Wetterdaten: Freitag, 21.09.2018
Datum Zeit Temp. A. Pool Temp. Temp. 5cm Feuchte A. Luftdruck Regen Wind Richtung Richtung Sonnenschein ET UV Solar Taupunkt Windchill Windben Empfang
21.09.2018 00:00 15,0 C 22,2 C 12,2 C 87 % 1015,9 hPa 0,0 l/m 1,1 km/h (1 Bft) S-SW 201 0 min 0,000 mm 0,0 UV-I 0 W/m 12,9 C 15,0 C 4,8 km/h (1 Bft) 98,00 %
21.09.2018 00:02 15,1 C 22,2 C 12,2 C 88 % 1015,9 hPa 0,0 l/m 0,5 km/h (0 Bft) S-SW 200 0 min 0,000 mm 0,0 UV-I 0 W/m 13,1 C 15,1 C 4,8 km/h (1 Bft) 93,33 %
21.09.2018 00:04 15,2 C 22,2 C 12,2 C 88 % 1015,8 hPa 0,0 l/m 2,0 km/h (1 Bft) S-SW 200 0 min 0,000 mm 0,0 UV-I 0 W/m 13,2 C 15,2 C 4,8 km/h (1 Bft) 97,37 %
21.09.2018 00:06 15,3 C 22,2 C 12,2 C 88 % 1015,8 hPa 0,0 l/m 0,0 km/h (0 Bft) S-SW 200 0 min 0,000 mm 0,0 UV-I 0 W/m 13,3 C 15,3 C 0,0 km/h (0 Bft) 94,00 %
21.09.2018 00:08 15,3 C 22,2 C 12,8 C 87 % 1015,8 hPa 0,0 l/m 2,9 km/h (1 Bft) S-SW 200 0 min 0,000 mm 0,0 UV-I 0 W/m 13,1 C 15,3 C 4,8 km/h (1 Bft) 95,45 %
21.09.2018 00:10 15,3 C 22,2 C 12,2 C 87 % 1015,7 hPa 0,0 l/m 0,5 km/h (0 Bft) S-SW 200 0 min 0,000 mm 0,0 UV-I 0 W/m 13,1 C 15,3 C 1,6 km/h (1 Bft) 95,74 %
21.09.2018 00:12 15,3 C 22,2 C 12,2 C 87 % 1015,8 hPa 0,0 l/m 0,0 km/h (0 Bft) S-SW 200 0 min 0,000 mm 0,0 UV-I 0 W/m 13,1 C 15,3 C 0,0 km/h (0 Bft) 96,00 %
21.09.2018 00:14 15,2 C 22,2 C 12,2 C 86 % 1015,8 hPa 0,0 l/m 0,0 km/h (0 Bft) S-SW 200 0 min 0,000 mm 0,0 UV-I 0 W/m 12,9 C 15,2 C 0,0 km/h (0 Bft) 96,23 %
21.09.2018 00:16 15,1 C 22,2 C 12,2 C 87 % 1015,7 hPa 0,0 l/m 0,0 km/h (0 Bft) S-SW 200 0 min 0,000 mm 0,0 UV-I 0 W/m 13,0 C 15,1 C 0,0 km/h (0 Bft) 95,74 %
21.09.2018 00:18 15,1 C 22,2 C 12,2 C 87 % 1015,7 hPa 0,0 l/m 0,0 km/h (0 Bft) S-SW 200 0 min 0,000 mm 0,0 UV-I 0 W/m 13,0 C 15,1 C 0,0 km/h (0 Bft) 95,74 %
21.09.2018 00:20 15,1 C 22,2 C 12,2 C 87 % 1015,7 hPa 0,0 l/m 0,0 km/h (0 Bft) S-SW 200 0 min 0,000 mm 0,0 UV-I 0 W/m 13,0 C 15,1 C 0,0 km/h (0 Bft) 95,74 %
21.09.2018 00:22 14,9 C 22,2 C 12,2 C 87 % 1015,7 hPa 0,0 l/m 0,0 km/h (0 Bft) S-SW 200 0 min 0,000 mm 0,0 UV-I 0 W/m 12,8 C 14,9 C 0,0 km/h (0 Bft) 94,44 %
21.09.2018 00:24 14,8 C 22,2 C 12,2 C 86 % 1015,7 hPa 0,0 l/m 0,0 km/h (0 Bft) S-SW 200 0 min 0,000 mm 0,0 UV-I 0 W/m 12,5 C 14,8 C 0,0 km/h (0 Bft) 95,74 %
21.09.2018 00:26 14,6 C 22,2 C 12,2 C 87 % 1015,6 hPa 0,0 l/m 0,0 km/h (0 Bft) S-SW 200 0 min 0,000 mm 0,0 UV-I 0 W/m 12,5 C 14,6 C 0,0 km/h (0 Bft) 96,43 %
21.09.2018 00:28 14,5 C 22,2 C 12,2 C 87 % 1015,6 hPa 0,0 l/m 0,0 km/h (0 Bft) S-SW 200 0 min 0,000 mm 0,0 UV-I 0 W/m 12,4 C 14,5 C 0,0 km/h (0 Bft) 97,87 %
21.09.2018 00:30 14,3 C 22,2 C 12,2 C 87 % 1015,6 hPa 0,0 l/m 1,5 km/h (1 Bft) S-SW 200 0 min 0,000 mm 0,0 UV-I 0 W/m 12,2 C 14,3 C 3,2 km/h (1 Bft) 97,56 %
21.09.2018 00:32 14,2 C 22,2 C 12,2 C 88 % 1015,6 hPa 0,0 l/m 1,8 km/h (1 Bft) S-SW 200 0 min 0,000 mm 0,0 UV-I 0 W/m 12,2 C 14,2 C 3,2 km/h (1 Bft) 98,00 %
21.09.2018 00:34 14,1 C 22,2 C 11,7 C 89 % 1015,5 hPa 0,0 l/m 1,6 km/h (1 Bft) S-SW 200 0 min 0,000 mm 0,0 UV-I 0 W/m 12,3 C 14,1 C 3,2 km/h (1 Bft) 98,00 %
21.09.2018 00:36 14,2 C 22,2 C 11,7 C 90 % 1015,5 hPa 0,0 l/m 1,9 km/h (1 Bft) S-SW 200 0 min 0,000 mm 0,0 UV-I 0 W/m 12,6 C 14,2 C 3,2 km/h (1 Bft) 97,87 %
21.09.2018 00:38 14,1 C 22,2 C 11,7 C 90 % 1015,5 hPa 0,0 l/m 2,2 km/h (1 Bft) S-SW 200 0 min 0,000 mm 0,0 UV-I 0 W/m 12,5 C 14,1 C 3,2 km/h (1 Bft) 97,56 %
21.09.2018 00:40 14,1 C 22,2 C 11,7 C 90 % 1015,5 hPa 0,0 l/m 1,9 km/h (1 Bft) S-SW 200 0 min 0,000 mm 0,0 UV-I 0 W/m 12,5 C 14,1 C 3,2 km/h (1 Bft) 97,73 %
21.09.2018 00:42 13,9 C 22,2 C 11,7 C 90 % 1015,5 hPa 0,0 l/m 1,8 km/h (1 Bft) S-SW 200 0 min 0,000 mm 0,0 UV-I 0 W/m 12,3 C 13,9 C 3,2 km/h (1 Bft) 100,00 %
21.09.2018 00:44 13,8 C 22,2 C 11,7 C 90 % 1015,5 hPa 0,0 l/m 1,7 km/h (1 Bft) S-SW 200 0 min 0,000 mm 0,0 UV-I 0 W/m 12,2 C 13,8 C 3,2 km/h (1 Bft) 98,00 %
21.09.2018 00:46 13,8 C 22,2 C 11,7 C 91 % 1015,5 hPa 0,0 l/m 1,2 km/h (1 Bft) S-SW 200 0 min 0,000 mm 0,0 UV-I 0 W/m 12,4 C 13,8 C 1,6 km/h (1 Bft) 100,00 %
21.09.2018 00:48 13,9 C 22,2 C 11,7 C 91 % 1015,5 hPa 0,0 l/m 0,0 km/h (0 Bft) S-SW 200 0 min 0,000 mm 0,0 UV-I 0 W/m 12,5 C 13,9 C 1,6 km/h (1 Bft) 100,00 %
21.09.2018 00:50 14,1 C 22,2 C 11,7 C 91 % 1015,5 hPa 0,0 l/m 0,5 km/h (0 Bft) S-SW 200 0 min 0,000 mm 0,0 UV-I 0 W/m 12,7 C 14,1 C 3,2 km/h (1 Bft) 97,87 %
21.09.2018 00:52 14,2 C 22,2 C 12,2 C 91 % 1015,5 hPa 0,0 l/m 2,2 km/h (1 Bft) S-SW 200 0 min 0,000 mm 0,0 UV-I 0 W/m 12,8 C 14,2 C 3,2 km/h (1 Bft) 100,00 %
21.09.2018 00:54 14,1 C 22,2 C 12,2 C 90 % 1015,5 hPa 0,0 l/m 2,2 km/h (1 Bft) S-SW 200 0 min 0,000 mm 0,0 UV-I 0 W/m 12,5 C 14,1 C 3,2 km/h (1 Bft) 100,00 %
21.09.2018 00:56 14,0 C 22,2 C 12,2 C 91 % 1015,5 hPa 0,0 l/m 1,8 km/h (1 Bft) S-SW 200 0 min 0,000 mm 0,0 UV-I 0 W/m 12,6 C 14,0 C 3,2 km/h (1 Bft) 100,00 %
21.09.2018 00:58 13,9 C 22,2 C 12,2 C 91 % 1015,4 hPa 0,0 l/m 2,1 km/h (1 Bft) S-SW 200 0 min 0,000 mm 0,0 UV-I 0 W/m 12,5 C 13,9 C 3,2 km/h (1 Bft) 97,73 %
21.09.2018 01:00 13,8 C 22,2 C 11,7 C 90 % 1015,4 hPa 0,0 l/m 2,2 km/h (1 Bft) S-SW 200 0 min 0,000 mm 0,0 UV-I 0 W/m 12,2 C 13,8 C 3,2 km/h (1 Bft) 98,39 %
21.09.2018 01:02 13,7 C 22,2 C 11,7 C 90 % 1015,4 hPa 0,0 l/m 1,7 km/h (1 Bft) S-SW 200 0 min 0,000 mm 0,0 UV-I 0 W/m 12,1 C 13,7 C 3,2 km/h (1 Bft) 97,96 %
21.09.2018 01:04 13,7 C 22,2 C 11,7 C 90 % 1015,4 hPa 0,0 l/m 2,5 km/h (1 Bft) S-SW 200 0 min 0,000 mm 0,0 UV-I 0 W/m 12,1 C 13,7 C 3,2 km/h (1 Bft) 97,44 %
21.09.2018 01:06 13,6 C 22,2 C 11,7 C 91 % 1015,3 hPa 0,0 l/m 2,4 km/h (1 Bft) S-SW 200 0 min 0,000 mm 0,0 UV-I 0 W/m 12,2 C 13,6 C 3,2 km/h (1 Bft) 96,23 %
21.09.2018 01:08 13,7 C 22,2 C 11,1 C 91 % 1015,3 hPa 0,0 l/m 2,6 km/h (1 Bft) S-SW 200 0 min 0,000 mm 0,0 UV-I 0 W/m 12,3 C 13,7 C 3,2 km/h (1 Bft) 98,00 %
21.09.2018 01:10 13,7 C 22,2 C 11,1 C 91 % 1015,3 hPa 0,0 l/m 2,3 km/h (1 Bft) S-SW 200 0 min 0,000 mm 0,0 UV-I 0 W/m 12,3 C 13,7 C 3,2 km/h (1 Bft) 94,00 %
21.09.2018 01:12 13,6 C 22,2 C 11,7 C 91 % 1015,3 hPa 0,0 l/m 1,5 km/h (1 Bft) S-SW 200 0 min 0,000 mm 0,0 UV-I 0 W/m 12,2 C 13,6 C 3,2 km/h (1 Bft) 97,56 %
21.09.2018 01:14 13,7 C 22,2 C 11,1 C 92 % 1015,3 hPa 0,0 l/m 0,3 km/h (0 Bft) S-SW 200 0 min 0,000 mm 0,0 UV-I 0 W/m 12,4 C 13,7 C 1,6 km/h (1 Bft) 97,87 %
21.09.2018 01:16 13,8 C 22,2 C 11,1 C 92 % 1015,2 hPa 0,0 l/m 0,0 km/h (0 Bft) S-SW 200 0 min 0,000 mm 0,0 UV-I 0 W/m 12,5 C 13,8 C 0,0 km/h (0 Bft) 93,62 %
21.09.2018 01:18 13,9 C 22,2 C 11,1 C 92 % 1015,2 hPa 0,0 l/m 0,0 km/h (0 Bft) S-SW 200 0 min 0,000 mm 0,0 UV-I 0 W/m 12,6 C 13,9 C 0,0 km/h (0 Bft) 98,00 %
21.09.2018 01:20 13,9 C 22,2 C 10,6 C 92 % 1015,2 hPa 0,0 l/m 0,0 km/h (0 Bft) S-SW 200 0 min 0,000 mm 0,0 UV-I 0 W/m 12,6 C 13,9 C 0,0 km/h (0 Bft) 97,37 %
21.09.2018 01:22 13,9 C 22,2 C 10,6 C 92 % 1015,2 hPa 0,0 l/m 0,0 km/h (0 Bft) S-SW 200 0 min 0,000 mm 0,0 UV-I 0 W/m 12,6 C 13,9 C 0,0 km/h (0 Bft) 97,87 %
21.09.2018 01:24 13,9 C 22,2 C 10,6 C 91 % 1015,2 hPa 0,0 l/m 0,0 km/h (0 Bft) S-SW 200 0 min 0,000 mm 0,0 UV-I 0 W/m 12,5 C 13,9 C 0,0 km/h (0 Bft) 96,23 %
21.09.2018 01:26 13,9 C 22,2 C 10,6 C 91 % 1015,2 hPa 0,0 l/m 0,0 km/h (0 Bft) S-SW 200 0 min 0,000 mm 0,0 UV-I 0 W/m 12,5 C 13,9 C 0,0 km/h (0 Bft) 93,18 %
21.09.2018 01:28 13,8 C 22,2 C 10,6 C 91 % 1015,1 hPa 0,0 l/m 0,0 km/h (0 Bft) S-SW 200 0 min 0,000 mm 0,0 UV-I 0 W/m 12,4 C 13,8 C 0,0 km/h (0 Bft) 94,00 %
21.09.2018 01:30 13,8 C 22,2 C 10,6 C 91 % 1015,1 hPa 0,0 l/m 0,0 km/h (0 Bft) S-SW 200 0 min 0,000 mm 0,0 UV-I 0 W/m 12,4 C 13,8 C 0,0 km/h (0 Bft) 95,12 %
21.09.2018 01:32 13,7 C 22,2 C 11,1 C 90 % 1015,1 hPa 0,0 l/m 0,0 km/h (0 Bft) S-SW 200 0 min 0,000 mm 0,0 UV-I 0 W/m 12,1 C 13,7 C 0,0 km/h (0 Bft) 93,62 %
21.09.2018 01:34 13,5 C 22,2 C 11,1 C 90 % 1015,1 hPa 0,0 l/m 0,0 km/h (0 Bft) S-SW 200 0 min 0,000 mm 0,0 UV-I 0 W/m 11,9 C 13,5 C 0,0 km/h (0 Bft) 97,44 %
21.09.2018 01:36 13,5 C 22,2 C 10,6 C 91 % 1015,1 hPa 0,0 l/m 0,0 km/h (0 Bft) S-SW 200 0 min 0,000 mm 0,0 UV-I 0 W/m 12,1 C 13,5 C 0,0 km/h (0 Bft) 93,75 %
21.09.2018 01:38 13,6 C 22,2 C 10,6 C 92 % 1015,1 hPa 0,0 l/m 0,0 km/h (0 Bft) S-SW 200 0 min 0,000 mm 0,0 UV-I 0 W/m 12,3 C 13,6 C 0,0 km/h (0 Bft) 97,62 %
21.09.2018 01:40 13,7 C 22,2 C 10,6 C 91 % 1015,1 hPa 0,0 l/m 0,0 km/h (0 Bft) S-SW 200 0 min 0,000 mm 0,0 UV-I 0 W/m 12,3 C 13,7 C 0,0 km/h (0 Bft) 96,15 %
21.09.2018 01:42 13,7 C 22,2 C 10,6 C 92 % 1015,0 hPa 0,0 l/m 0,0 km/h (0 Bft) S-SW 200 0 min 0,000 mm 0,0 UV-I 0 W/m 12,4 C 13,7 C 0,0 km/h (0 Bft) 97,22 %
21.09.2018 01:44 13,8 C 22,2 C 10,0 C 92 % 1015,0 hPa 0,0 l/m 0,0 km/h (0 Bft) S-SW 200 0 min 0,000 mm 0,0 UV-I 0 W/m 12,5 C 13,8 C 0,0 km/h (0 Bft) 96,23 %
21.09.2018 01:46 13,8 C 22,2 C 10,0 C 91 % 1015,0 hPa 0,0 l/m 0,0 km/h (0 Bft) S-SW 200 0 min 0,000 mm 0,0 UV-I 0 W/m 12,4 C 13,8 C 0,0 km/h (0 Bft) 95,74 %
21.09.2018 01:48 13,7 C 22,2 C 10,0 C 91 % 1015,0 hPa 0,0 l/m 0,0 km/h (0 Bft) S-SW 200 0 min 0,000 mm 0,0 UV-I 0 W/m 12,3 C 13,7 C 0,0 km/h (0 Bft) 97,87 %
21.09.2018 01:50 13,6 C 22,2 C 10,0 C 90 % 1015,0 hPa 0,0 l/m 0,0 km/h (0 Bft) S-SW 200 0 min 0,000 mm 0,0 UV-I 0 W/m 12,0 C 13,6 C 0,0 km/h (0 Bft) 100,00 %
21.09.2018 01:52 13,6 C 22,2 C 10,0 C 90 % 1015,0 hPa 0,0 l/m 0,0 km/h (0 Bft) S-SW 200 0 min 0,000 mm 0,0 UV-I 0 W/m 12,0 C 13,6 C 0,0 km/h (0 Bft) 97,56 %
21.09.2018 01:54 13,5 C 22,2 C 10,0 C 91 % 1015,0 hPa 0,0 l/m 0,0 km/h (0 Bft) S-SW 200 0 min 0,000 mm 0,0 UV-I 0 W/m 12,1 C 13,5 C 0,0 km/h (0 Bft) 100,00 %
21.09.2018 01:56 13,6 C 22,2 C 10,0 C 91 % 1014,9 hPa 0,0 l/m 0,0 km/h (0 Bft) S-SW 200 0 min 0,000 mm 0,0 UV-I 0 W/m 12,2 C 13,6 C 0,0 km/h (0 Bft) 97,87 %
21.09.2018 01:58 13,6 C 22,2 C 10,6 C 91 % 1014,9 hPa 0,0 l/m 0,0 km/h (0 Bft) S-SW 200 0 min 0,000 mm 0,0 UV-I 0 W/m 12,2 C 13,6 C 0,0 km/h (0 Bft) 100,00 %
21.09.2018 02:00 13,6 C 22,2 C 10,6 C 92 % 1014,9 hPa 0,0 l/m 0,0 km/h (0 Bft) S-SW 200 0 min 0,000 mm 0,0 UV-I 0 W/m 12,3 C 13,6 C 0,0 km/h (0 Bft) 100,00 %
21.09.2018 02:02 13,6 C 22,2 C 11,1 C 91 % 1014,9 hPa 0,0 l/m 0,0 km/h (0 Bft) S-SW 200 0 min 0,000 mm 0,0 UV-I 0 W/m 12,2 C 13,6 C 0,0 km/h (0 Bft) 100,00 %
21.09.2018 02:04 13,3 C 22,2 C 11,1 C 91 % 1014,9 hPa 0,0 l/m 0,0 km/h (0 Bft) S-SW 200 0 min 0,000 mm 0,0 UV-I 0 W/m 11,9 C 13,3 C 0,0 km/h (0 Bft) 100,00 %
21.09.2018 02:06 13,2 C 22,2 C 10,6 C 91 % 1014,9 hPa 0,0 l/m 0,0 km/h (0 Bft) S-SW 200 0 min 0,000 mm 0,0 UV-I 0 W/m 11,8 C 13,2 C 0,0 km/h (0 Bft) 100,00 %
21.09.2018 02:08 13,2 C 22,2 C 10,6 C 92 % 1014,9 hPa 0,0 l/m 0,0 km/h (0 Bft) S-SW 200 0 min 0,000 mm 0,0 UV-I 0 W/m 11,9 C 13,2 C 0,0 km/h (0 Bft) 100,00 %
21.09.2018 02:10 13,2 C 22,2 C 10,6 C 92 % 1014,9 hPa 0,0 l/m 0,0 km/h (0 Bft) S-SW 200 0 min 0,000 mm 0,0 UV-I 0 W/m 11,9 C 13,2 C 0,0 km/h (0 Bft) 100,00 %
21.09.2018 02:12 13,3 C 22,2 C 10,6 C 92 % 1014,9 hPa 0,0 l/m 0,0 km/h (0 Bft) S-SW 200 0 min 0,000 mm 0,0 UV-I 0 W/m 12,0 C 13,3 C 0,0 km/h (0 Bft) 100,00 %
21.09.2018 02:14 13,3 C 22,2 C 10,6 C 93 % 1014,9 hPa 0,0 l/m 0,0 km/h (0 Bft) S-SW 200 0 min 0,000 mm 0,0 UV-I 0 W/m 12,2 C 13,3 C 0,0 km/h (0 Bft) 100,00 %
21.09.2018 02:16 13,3 C 22,2 C 10,6 C 92 % 1014,9 hPa 0,0 l/m 0,0 km/h (0 Bft) S-SW 200 0 min 0,000 mm 0,0 UV-I 0 W/m 12,0 C 13,3 C 0,0 km/h (0 Bft) 98,00 %
21.09.2018 02:18 13,2 C 22,2 C 10,6 C 92 % 1014,8 hPa 0,0 l/m 0,0 km/h (0 Bft) S-SW 200 0 min 0,000 mm 0,0 UV-I 0 W/m 11,9 C 13,2 C 0,0 km/h (0 Bft) 100,00 %
21.09.2018 02:20 13,1 C 22,2 C 10,6 C 92 % 1014,8 hPa 0,0 l/m 0,0 km/h (0 Bft) S-SW 200 0 min 0,000 mm 0,0 UV-I 0 W/m 11,8 C 13,1 C 0,0 km/h (0 Bft) 100,00 %
21.09.2018 02:22 12,9 C 22,2 C 10,6 C 92 % 1014,7 hPa 0,0 l/m 0,0 km/h (0 Bft) S-SW 200 0 min 0,000 mm 0,0 UV-I 0 W/m 11,6 C 12,9 C 0,0 km/h (0 Bft) 98,00 %
21.09.2018 02:24 13,0 C 22,2 C 10,6 C 93 % 1014,7 hPa 0,0 l/m 0,0 km/h (0 Bft) S-SW 200 0 min 0,000 mm 0,0 UV-I 0 W/m 11,9 C 13,0 C 0,0 km/h (0 Bft) 100,00 %
21.09.2018 02:26 13,0 C 22,2 C 10,6 C 93 % 1014,7 hPa 0,0 l/m 0,0 km/h (0 Bft) S-SW 200 0 min 0,000 mm 0,0 UV-I 0 W/m 11,9 C 13,0 C 0,0 km/h (0 Bft) 100,00 %
21.09.2018 02:28 12,9 C 22,2 C 10,6 C 93 % 1014,7 hPa 0,0 l/m 1,3 km/h (1 Bft) S-SW 200 0 min 0,000 mm 0,0 UV-I 0 W/m 11,8 C 12,9 C 3,2 km/h (1 Bft) 97,56 %
21.09.2018 02:30 12,9 C 22,2 C 10,6 C 93 % 1014,6 hPa 0,0 l/m 2,3 km/h (1 Bft) O-SO 113 0 min 0,000 mm 0,0 UV-I 0 W/m 11,8 C 12,9 C 3,2 km/h (1 Bft) 100,00 %
21.09.2018 02:32 13,1 C 22,2 C 10,6 C 94 % 1014,6 hPa 0,0 l/m 2,4 km/h (1 Bft) O-SO 113 0 min 0,000 mm 0,0 UV-I 0 W/m 12,2 C 13,1 C 3,2 km/h (1 Bft) 100,00 %
21.09.2018 02:34 13,2 C 22,2 C 10,6 C 94 % 1014,6 hPa 0,0 l/m 1,2 km/h (1 Bft) O-SO 113 0 min 0,000 mm 0,0 UV-I 0 W/m 12,3 C 13,2 C 1,6 km/h (1 Bft) 100,00 %
21.09.2018 02:36 13,3 C 22,2 C 11,1 C 93 % 1014,5 hPa 0,0 l/m 0,4 km/h (0 Bft) O-SO 113 0 min 0,000 mm 0,0 UV-I 0 W/m 12,2 C 13,3 C 1,6 km/h (1 Bft) 97,73 %
21.09.2018 02:38 13,2 C 22,2 C 11,1 C 93 % 1014,5 hPa 0,0 l/m 0,0 km/h (0 Bft) O-SO 113 0 min 0,000 mm 0,0 UV-I 0 W/m 12,1 C 13,2 C 0,0 km/h (0 Bft) 97,87 %
21.09.2018 02:40 13,2 C 22,2 C 11,1 C 93 % 1014,5 hPa 0,0 l/m 0,0 km/h (0 Bft) O-SO 113 0 min 0,000 mm 0,0 UV-I 0 W/m 12,1 C 13,2 C 0,0 km/h (0 Bft) 100,00 %
21.09.2018 02:42 13,1 C 22,2 C 11,1 C 92 % 1014,5 hPa 0,0 l/m 0,0 km/h (0 Bft) O-SO 113 0 min 0,000 mm 0,0 UV-I 0 W/m 11,8 C 13,1 C 0,0 km/h (0 Bft) 98,57 %
21.09.2018 02:44 13,0 C 22,2 C 11,1 C 92 % 1014,5 hPa 0,0 l/m 0,9 km/h (0 Bft) O-SO 113 0 min 0,000 mm 0,0 UV-I 0 W/m 11,7 C 13,0 C 3,2 km/h (1 Bft) 97,56 %
21.09.2018 02:46 12,9 C 22,2 C 11,1 C 92 % 1014,5 hPa 0,0 l/m 2,0 km/h (1 Bft) O-SO 113 0 min 0,000 mm 0,0 UV-I 0 W/m 11,6 C 12,9 C 3,2 km/h (1 Bft) 98,00 %
21.09.2018 02:48 12,8 C 22,2 C 10,6 C 92 % 1014,4 hPa 0,0 l/m 1,3 km/h (1 Bft) O-SO 113 0 min 0,000 mm 0,0 UV-I 0 W/m 11,5 C 12,8 C 3,2 km/h (1 Bft) 97,73 %
21.09.2018 02:50 12,8 C 22,2 C 10,6 C 93 % 1014,4 hPa 0,0 l/m 0,3 km/h (0 Bft) O-SO 113 0 min 0,000 mm 0,0 UV-I 0 W/m 11,7 C 12,8 C 1,6 km/h (1 Bft) 94,34 %
21.09.2018 02:52 12,9 C 22,2 C 10,6 C 93 % 1014,4 hPa 0,0 l/m 0,0 km/h (0 Bft) O-SO 113 0 min 0,000 mm 0,0 UV-I 0 W/m 11,8 C 12,9 C 0,0 km/h (0 Bft) 97,87 %
21.09.2018 02:54 12,9 C 22,2 C 10,6 C 93 % 1014,4 hPa 0,0 l/m 0,0 km/h (0 Bft) O-SO 113 0 min 0,000 mm 0,0 UV-I 0 W/m 11,8 C 12,9 C 0,0 km/h (0 Bft) 100,00 %
21.09.2018 02:56 13,1 C 22,2 C 10,0 C 93 % 1014,3 hPa 0,0 l/m 0,0 km/h (0 Bft) O-SO 113 0 min 0,000 mm 0,0 UV-I 0 W/m 12,0 C 13,1 C 0,0 km/h (0 Bft) 96,23 %
21.09.2018 02:58 13,1 C 22,2 C 10,0 C 93 % 1014,3 hPa 0,0 l/m 0,0 km/h (0 Bft) O-SO 113 0 min 0,000 mm 0,0 UV-I 0 W/m 12,0 C 13,1 C 0,0 km/h (0 Bft) 98,11 %
21.09.2018 03:00 12,9 C 22,2 C 10,0 C 92 % 1014,3 hPa 0,0 l/m 0,0 km/h (0 Bft) O-SO 113 0 min 0,000 mm 0,0 UV-I 0 W/m 11,6 C 12,9 C 0,0 km/h (0 Bft) 97,87 %
21.09.2018 03:02 12,9 C 22,2 C 10,0 C 93 % 1014,3 hPa 0,0 l/m 0,0 km/h (0 Bft) O-SO 113 0 min 0,000 mm 0,0 UV-I 0 W/m 11,8 C 12,9 C 0,0 km/h (0 Bft) 97,37 %
21.09.2018 03:04 12,8 C 22,2 C 10,0 C 92 % 1014,2 hPa 0,0 l/m 0,0 km/h (0 Bft) O-SO 113 0 min 0,000 mm 0,0 UV-I 0 W/m 11,5 C 12,8 C 0,0 km/h (0 Bft) 95,74 %
21.09.2018 03:06 12,6 C 22,2 C 10,0 C 92 % 1014,2 hPa 0,0 l/m 0,0 km/h (0 Bft) O-SO 113 0 min 0,000 mm 0,0 UV-I 0 W/m 11,3 C 12,6 C 0,0 km/h (0 Bft) 93,62 %
21.09.2018 03:08 12,6 C 22,2 C 10,0 C 92 % 1014,2 hPa 0,0 l/m 0,0 km/h (0 Bft) O-SO 113 0 min 0,000 mm 0,0 UV-I 0 W/m 11,3 C 12,6 C 0,0 km/h (0 Bft) 98,11 %
21.09.2018 03:10 12,6 C 22,2 C 10,0 C 93 % 1014,2 hPa 0,0 l/m 0,0 km/h (0 Bft) O-SO 113 0 min 0,000 mm 0,0 UV-I 0 W/m 11,5 C 12,6 C 0,0 km/h (0 Bft) 93,62 %
21.09.2018 03:12 12,7 C 22,2 C 9,4 C 93 % 1014,2 hPa 0,0 l/m 0,0 km/h (0 Bft) O-SO 113 0 min 0,000 mm 0,0 UV-I 0 W/m 11,6 C 12,7 C 0,0 km/h (0 Bft) 94,74 %
21.09.2018 03:14 12,8 C 22,2 C 9,4 C 93 % 1014,2 hPa 0,0 l/m 0,0 km/h (0 Bft) O-SO 113 0 min 0,000 mm 0,0 UV-I 0 W/m 11,7 C 12,8 C 0,0 km/h (0 Bft) 95,74 %
21.09.2018 03:16 12,9 C 22,2 C 9,4 C 93 % 1014,2 hPa 0,0 l/m 0,0 km/h (0 Bft) O-SO 113 0 min 0,000 mm 0,0 UV-I 0 W/m 11,8 C 12,9 C 0,0 km/h (0 Bft) 96,00 %
21.09.2018 03:18 12,8 C 22,2 C 9,4 C 93 % 1014,2 hPa 0,0 l/m 0,0 km/h (0 Bft) O-SO 113 0 min 0,000 mm 0,0 UV-I 0 W/m 11,7 C 12,8 C 0,0 km/h (0 Bft) 93,62 %
21.09.2018 03:20 12,8 C 22,2 C 9,4 C 93 % 1014,2 hPa 0,0 l/m 0,0 km/h (0 Bft) O-SO 113 0 min 0,000 mm 0,0 UV-I 0 W/m 11,7 C 12,8 C 0,0 km/h (0 Bft) 91,49 %
21.09.2018 03:22 12,8 C 22,2 C 9,4 C 93 % 1014,2 hPa 0,0 l/m 0,0 km/h (0 Bft) O-SO 113 0 min 0,000 mm 0,0 UV-I 0 W/m 11,7 C 12,8 C 0,0 km/h (0 Bft) 96,00 %
21.09.2018 03:24 12,8 C 22,2 C 9,4 C 93 % 1014,2 hPa 0,0 l/m 0,0 km/h (0 Bft) O-SO 113 0 min 0,000 mm 0,0 UV-I 0 W/m 11,7 C 12,8 C 0,0 km/h (0 Bft) 95,74 %
21.09.2018 03:26 12,6 C 22,2 C 10,0 C 92 % 1014,1 hPa 0,0 l/m 0,4 km/h (0 Bft) O-SO 113 0 min 0,000 mm 0,0 UV-I 0 W/m 11,3 C 12,6 C 1,6 km/h (1 Bft) 95,74 %
21.09.2018 03:28 12,4 C 22,2 C 10,6 C 92 % 1014,2 hPa 0,0 l/m 1,7 km/h (1 Bft) O-SO 113 0 min 0,000 mm 0,0 UV-I 0 W/m 11,1 C 12,4 C 3,2 km/h (1 Bft) 95,74 %
21.09.2018 03:30 12,2 C 22,2 C 10,0 C 92 % 1014,2 hPa 0,0 l/m 2,9 km/h (1 Bft) O-SO 114 0 min 0,000 mm 0,0 UV-I 0 W/m 10,9 C 12,2 C 3,2 km/h (1 Bft) 95,74 %
21.09.2018 03:32 12,2 C 22,2 C 10,0 C 93 % 1014,1 hPa 0,0 l/m 1,7 km/h (1 Bft) O-SO 114 0 min 0,000 mm 0,0 UV-I 0 W/m 11,1 C 12,2 C 3,2 km/h (1 Bft) 95,74 %
21.09.2018 03:34 12,3 C 22,2 C 10,0 C 94 % 1014,2 hPa 0,0 l/m 1,0 km/h (0 Bft) O-SO 114 0 min 0,000 mm 0,0 UV-I 0 W/m 11,4 C 12,3 C 1,6 km/h (1 Bft) 95,24 %
21.09.2018 03:36 12,4 C 22,2 C 10,0 C 94 % 1014,2 hPa 0,0 l/m 1,8 km/h (1 Bft) S-SO 152 0 min 0,000 mm 0,0 UV-I 0 W/m 11,5 C 12,4 C 3,2 km/h (1 Bft) 90,57 %
21.09.2018 03:38 12,7 C 22,2 C 10,0 C 94 % 1014,2 hPa 0,0 l/m 3,1 km/h (1 Bft) S-SW 202 0 min 0,000 mm 0,0 UV-I 0 W/m 11,8 C 12,7 C 4,8 km/h (1 Bft) 97,30 %
21.09.2018 03:40 12,7 C 22,2 C 10,0 C 94 % 1014,2 hPa 0,0 l/m 4,3 km/h (1 Bft) S-SW 202 0 min 0,000 mm 0,0 UV-I 0 W/m 11,8 C 12,7 C 4,8 km/h (1 Bft) 94,00 %
21.09.2018 03:42 12,7 C 22,2 C 10,0 C 94 % 1014,2 hPa 0,0 l/m 4,1 km/h (1 Bft) S-SW 202 0 min 0,000 mm 0,0 UV-I 0 W/m 11,8 C 12,7 C 4,8 km/h (1 Bft) 95,45 %
21.09.2018 03:44 12,7 C 22,2 C 10,0 C 94 % 1014,1 hPa 0,0 l/m 3,3 km/h (1 Bft) S-SW 202 0 min 0,000 mm 0,0 UV-I 0 W/m 11,8 C 12,7 C 4,8 km/h (1 Bft) 94,34 %
21.09.2018 03:46 12,5 C 22,2 C 10,0 C 93 % 1014,0 hPa 0,0 l/m 2,5 km/h (1 Bft) S-SW 202 0 min 0,000 mm 0,0 UV-I 0 W/m 11,4 C 12,5 C 3,2 km/h (1 Bft) 95,74 %
21.09.2018 03:48 12,2 C 22,2 C 10,0 C 93 % 1014,0 hPa 0,0 l/m 2,9 km/h (1 Bft) S-SW 202 0 min 0,000 mm 0,0 UV-I 0 W/m 11,1 C 12,2 C 3,2 km/h (1 Bft) 95,12 %
21.09.2018 03:50 12,1 C 22,2 C 10,0 C 93 % 1014,0 hPa 0,0 l/m 3,4 km/h (1 Bft) S-SW 202 0 min 0,000 mm 0,0 UV-I 0 W/m 11,0 C 12,1 C 4,8 km/h (1 Bft) 97,87 %
21.09.2018 03:52 12,2 C 22,2 C 9,4 C 94 % 1014,0 hPa 0,0 l/m 3,7 km/h (1 Bft) S-SW 202 0 min 0,000 mm 0,0 UV-I 0 W/m 11,3 C 12,2 C 4,8 km/h (1 Bft) 96,00 %
21.09.2018 03:54 12,2 C 22,2 C 9,4 C 94 % 1014,0 hPa 0,0 l/m 3,3 km/h (1 Bft) S-SW 202 0 min 0,000 mm 0,0 UV-I 0 W/m 11,3 C 12,2 C 4,8 km/h (1 Bft) 98,11 %
21.09.2018 03:56 12,3 C 22,2 C 10,0 C 94 % 1014,0 hPa 0,0 l/m 3,0 km/h (1 Bft) S-SW 202 0 min 0,000 mm 0,0 UV-I 0 W/m 11,4 C 12,3 C 3,2 km/h (1 Bft) 97,37 %
21.09.2018 03:58 12,3 C 22,2 C 10,0 C 94 % 1014,0 hPa 0,0 l/m 3,1 km/h (1 Bft) S-SW 202 0 min 0,000 mm 0,0 UV-I 0 W/m 11,4 C 12,3 C 4,8 km/h (1 Bft) 100,00 %
21.09.2018 04:00 12,2 C 22,2 C 10,0 C 94 % 1014,0 hPa 0,0 l/m 2,9 km/h (1 Bft) S-SW 202 0 min 0,000 mm 0,0 UV-I 0 W/m 11,3 C 12,2 C 3,2 km/h (1 Bft) 98,00 %
21.09.2018 04:02 12,2 C 22,2 C 10,0 C 94 % 1014,0 hPa 0,0 l/m 3,5 km/h (1 Bft) S-SW 202 0 min 0,000 mm 0,0 UV-I 0 W/m 11,3 C 12,2 C 4,8 km/h (1 Bft) 100,00 %
21.09.2018 04:04 12,1 C 22,2 C 9,4 C 94 % 1013,9 hPa 0,0 l/m 3,4 km/h (1 Bft) S-SW 202 0 min 0,000 mm 0,0 UV-I 0 W/m 11,2 C 12,1 C 4,8 km/h (1 Bft) 100,00 %
21.09.2018 04:06 12,2 C 22,2 C 9,4 C 94 % 1014,0 hPa 0,0 l/m 2,8 km/h (1 Bft) S-SW 202 0 min 0,000 mm 0,0 UV-I 0 W/m 11,3 C 12,2 C 4,8 km/h (1 Bft) 100,00 %
21.09.2018 04:08 12,3 C 22,2 C 9,4 C 95 % 1014,0 hPa 0,0 l/m 2,0 km/h (1 Bft) S-SW 202 0 min 0,000 mm 0,0 UV-I 0 W/m 11,5 C 12,3 C 3,2 km/h (1 Bft) 98,11 %
21.09.2018 04:10 12,3 C 21,7 C 9,4 C 94 % 1014,0 hPa 0,0 l/m 1,1 km/h (1 Bft) S-SW 202 0 min 0,000 mm 0,0 UV-I 0 W/m 11,4 C 12,3 C 3,2 km/h (1 Bft) 95,74 %
21.09.2018 04:12 12,2 C 21,7 C 9,4 C 94 % 1014,0 hPa 0,0 l/m 1,8 km/h (1 Bft) S-SW 202 0 min 0,000 mm 0,0 UV-I 0 W/m 11,3 C 12,2 C 3,2 km/h (1 Bft) 94,00 %
21.09.2018 04:14 12,3 C 21,7 C 9,4 C 95 % 1014,0 hPa 0,0 l/m 1,3 km/h (1 Bft) S-SW 202 0 min 0,000 mm 0,0 UV-I 0 W/m 11,5 C 12,3 C 3,2 km/h (1 Bft) 100,00 %
21.09.2018 04:16 12,4 C 22,2 C 9,4 C 95 % 1013,9 hPa 0,0 l/m 0,1 km/h (0 Bft) S-SW 202 0 min 0,000 mm 0,0 UV-I 0 W/m 11,6 C 12,4 C 1,6 km/h (1 Bft) 94,00 %
21.09.2018 04:18 12,5 C 22,2 C 9,4 C 95 % 1013,9 hPa 0,0 l/m 2,3 km/h (1 Bft) S-SW 202 0 min 0,000 mm 0,0 UV-I 0 W/m 11,7 C 12,5 C 3,2 km/h (1 Bft) 98,00 %
21.09.2018 04:20 12,3 C 22,2 C 9,4 C 94 % 1013,9 hPa 0,0 l/m 2,6 km/h (1 Bft) S-SW 202 0 min 0,000 mm 0,0 UV-I 0 W/m 11,4 C 12,3 C 3,2 km/h (1 Bft) 100,00 %
21.09.2018 04:22 12,2 C 22,2 C 9,4 C 93 % 1013,9 hPa 0,0 l/m 3,0 km/h (1 Bft) S-SW 202 0 min 0,000 mm 0,0 UV-I 0 W/m 11,1 C 12,2 C 4,8 km/h (1 Bft) 97,18 %
21.09.2018 04:24 12,1 C 22,2 C 9,4 C 94 % 1013,8 hPa 0,0 l/m 2,6 km/h (1 Bft) S-SW 202 0 min 0,000 mm 0,0 UV-I 0 W/m 11,2 C 12,1 C 3,2 km/h (1 Bft) 97,87 %
21.09.2018 04:26 12,0 C 22,2 C 9,4 C 94 % 1013,9 hPa 0,0 l/m 1,8 km/h (1 Bft) S-SW 202 0 min 0,000 mm 0,0 UV-I 0 W/m 11,1 C 12,0 C 3,2 km/h (1 Bft) 98,00 %
21.09.2018 04:28 12,1 C 21,7 C 9,4 C 94 % 1013,8 hPa 0,0 l/m 1,6 km/h (1 Bft) S-SW 202 0 min 0,000 mm 0,0 UV-I 0 W/m 11,2 C 12,1 C 3,2 km/h (1 Bft) 95,74 %
21.09.2018 04:30 12,2 C 21,7 C 10,0 C 95 % 1013,9 hPa 0,0 l/m 1,3 km/h (1 Bft) S-SW 202 0 min 0,000 mm 0,0 UV-I 0 W/m 11,4 C 12,2 C 3,2 km/h (1 Bft) 100,00 %
21.09.2018 04:32 12,4 C 21,7 C 10,0 C 95 % 1013,8 hPa 0,0 l/m 1,5 km/h (1 Bft) S-SW 202 0 min 0,000 mm 0,0 UV-I 0 W/m 11,6 C 12,4 C 3,2 km/h (1 Bft) 100,00 %
21.09.2018 04:34 12,4 C 21,7 C 10,0 C 95 % 1013,9 hPa 0,0 l/m 1,6 km/h (1 Bft) S-SW 202 0 min 0,000 mm 0,0 UV-I 0 W/m 11,6 C 12,4 C 3,2 km/h (1 Bft) 100,00 %
21.09.2018 04:36 12,2 C 21,7 C 10,0 C 94 % 1013,8 hPa 0,0 l/m 0,7 km/h (0 Bft) S-SW 202 0 min 0,000 mm 0,0 UV-I 0 W/m 11,3 C 12,2 C 1,6 km/h (1 Bft) 100,00 %
21.09.2018 04:38 12,1 C 21,7 C 10,0 C 94 % 1013,7 hPa 0,0 l/m 1,1 km/h (1 Bft) S-SW 202 0 min 0,000 mm 0,0 UV-I 0 W/m 11,2 C 12,1 C 3,2 km/h (1 Bft) 100,00 %
21.09.2018 04:40 12,0 C 21,7 C 10,0 C 94 % 1013,7 hPa 0,0 l/m 1,4 km/h (1 Bft) S-SW 202 0 min 0,000 mm 0,0 UV-I 0 W/m 11,1 C 12,0 C 3,2 km/h (1 Bft) 96,00 %
21.09.2018 04:42 11,9 C 21,7 C 9,4 C 94 % 1013,8 hPa 0,0 l/m 0,5 km/h (0 Bft) S-SW 202 0 min 0,000 mm 0,0 UV-I 0 W/m 11,0 C 11,9 C 1,6 km/h (1 Bft) 100,00 %
21.09.2018 04:44 12,1 C 21,7 C 9,4 C 94 % 1013,7 hPa 0,0 l/m 0,8 km/h (0 Bft) S-SW 202 0 min 0,000 mm 0,0 UV-I 0 W/m 11,2 C 12,1 C 3,2 km/h (1 Bft) 100,00 %
21.09.2018 04:46 12,1 C 21,7 C 10,0 C 94 % 1013,7 hPa 0,0 l/m 2,9 km/h (1 Bft) S-SW 202 0 min 0,000 mm 0,0 UV-I 0 W/m 11,2 C 12,1 C 3,2 km/h (1 Bft) 100,00 %
21.09.2018 04:48 12,1 C 21,7 C 10,0 C 94 % 1013,7 hPa 0,0 l/m 2,3 km/h (1 Bft) S-SW 202 0 min 0,000 mm 0,0 UV-I 0 W/m 11,2 C 12,1 C 3,2 km/h (1 Bft) 100,00 %
21.09.2018 04:50 12,0 C 21,7 C 10,0 C 94 % 1013,7 hPa 0,0 l/m 2,2 km/h (1 Bft) S-SW 202 0 min 0,000 mm 0,0 UV-I 0 W/m 11,1 C 12,0 C 3,2 km/h (1 Bft) 100,00 %
21.09.2018 04:52 12,0 C 21,7 C 9,4 C 94 % 1013,7 hPa 0,0 l/m 2,5 km/h (1 Bft) S-SW 202 0 min 0,000 mm 0,0 UV-I 0 W/m 11,1 C 12,0 C 3,2 km/h (1 Bft) 100,00 %
21.09.2018 04:54 11,9 C 21,7 C 9,4 C 94 % 1013,6 hPa 0,0 l/m 1,9 km/h (1 Bft) S-SW 202 0 min 0,000 mm 0,0 UV-I 0 W/m 11,0 C 11,9 C 3,2 km/h (1 Bft) 97,87 %
21.09.2018 04:56 11,8 C 21,7 C 9,4 C 94 % 1013,7 hPa 0,0 l/m 1,6 km/h (1 Bft) S-SW 202 0 min 0,000 mm 0,0 UV-I 0 W/m 10,9 C 11,8 C 3,2 km/h (1 Bft) 100,00 %
21.09.2018 04:58 11,7 C 21,7 C 9,4 C 94 % 1013,7 hPa 0,0 l/m 2,4 km/h (1 Bft) S-SW 202 0 min 0,000 mm 0,0 UV-I 0 W/m 10,8 C 11,7 C 3,2 km/h (1 Bft) 97,87 %
21.09.2018 05:00 11,8 C 21,7 C 8,9 C 94 % 1013,6 hPa 0,0 l/m 2,2 km/h (1 Bft) S-SW 202 0 min 0,000 mm 0,0 UV-I 0 W/m 10,9 C 11,8 C 4,8 km/h (1 Bft) 100,00 %
21.09.2018 05:02 11,7 C 21,7 C 8,9 C 94 % 1013,6 hPa 0,0 l/m 2,2 km/h (1 Bft) S-SW 202 0 min 0,000 mm 0,0 UV-I 0 W/m 10,8 C 11,7 C 3,2 km/h (1 Bft) 100,00 %
21.09.2018 05:04 11,8 C 21,7 C 8,9 C 95 % 1013,6 hPa 0,0 l/m 1,6 km/h (1 Bft) S-SW 202 0 min 0,000 mm 0,0 UV-I 0 W/m 11,0 C 11,8 C 3,2 km/h (1 Bft) 100,00 %
21.09.2018 05:06 12,1 C 21,7 C 8,9 C 95 % 1013,6 hPa 0,0 l/m 2,1 km/h (1 Bft) S-SW 202 0 min 0,000 mm 0,0 UV-I 0 W/m 11,3 C 12,1 C 3,2 km/h (1 Bft) 100,00 %
21.09.2018 05:09 12,2 C 21,7 C 8,9 C 95 % 1013,5 hPa 0,0 l/m 1,1 km/h (1 Bft) S-SW 202 0 min 0,000 mm 0,0 UV-I 0 W/m 11,4 C 12,2 C 1,6 km/h (1 Bft) 100,00 %
21.09.2018 05:10 12,2 C 21,7 C 8,9 C 95 % 1013,5 hPa 0,0 l/m 0,1 km/h (0 Bft) S-SW 202 0 min 0,000 mm 0,0 UV-I 0 W/m 11,4 C 12,2 C 1,6 km/h (1 Bft) 100,00 %
21.09.2018 05:12 12,3 C 21,7 C 8,3 C 95 % 1013,5 hPa 0,0 l/m 0,0 km/h (0 Bft) S-SW 202 0 min 0,000 mm 0,0 UV-I 0 W/m 11,5 C 12,3 C 0,0 km/h (0 Bft) 100,00 %
21.09.2018 05:14 12,3 C 21,7 C 8,9 C 95 % 1013,5 hPa 0,0 l/m 0,0 km/h (0 Bft) S-SW 202 0 min 0,000 mm 0,0 UV-I 0 W/m 11,5 C 12,3 C 0,0 km/h (0 Bft) 100,00 %
21.09.2018 05:16 12,2 C 21,7 C 8,9 C 95 % 1013,5 hPa 0,0 l/m 0,0 km/h (0 Bft) S-SW 202 0 min 0,000 mm 0,0 UV-I 0 W/m 11,4 C 12,2 C 0,0 km/h (0 Bft) 100,00 %
21.09.2018 05:18 12,1 C 21,7 C 9,4 C 95 % 1013,5 hPa 0,0 l/m 1,2 km/h (1 Bft) S-SW 202 0 min 0,000 mm 0,0 UV-I 0 W/m 11,3 C 12,1 C 3,2 km/h (1 Bft) 100,00 %
21.09.2018 05:20 11,8 C 21,7 C 9,4 C 94 % 1013,5 hPa 0,0 l/m 1,2 km/h (1 Bft) S-SW 202 0 min 0,000 mm 0,0 UV-I 0 W/m 10,9 C 11,8 C 3,2 km/h (1 Bft) 100,00 %
21.09.2018 05:22 11,6 C 21,7 C 10,0 C 94 % 1013,4 hPa 0,0 l/m 0,0 km/h (0 Bft) S-SW 202 0 min 0,000 mm 0,0 UV-I 0 W/m 10,7 C 11,6 C 0,0 km/h (0 Bft) 100,00 %
21.09.2018 05:24 11,6 C 21,7 C 9,4 C 94 % 1013,5 hPa 0,0 l/m 0,0 km/h (0 Bft) S-SW 202 0 min 0,000 mm 0,0 UV-I 0 W/m 10,7 C 11,6 C 0,0 km/h (0 Bft) 97,22 %
21.09.2018 05:26 11,6 C 21,7 C 9,4 C 95 % 1013,4 hPa 0,0 l/m 2,0 km/h (1 Bft) S-SW 202 0 min 0,000 mm 0,0 UV-I 0 W/m 10,8 C 11,6 C 3,2 km/h (1 Bft) 98,00 %
21.09.2018 05:28 11,5 C 21,7 C 10,0 C 95 % 1013,4 hPa 0,0 l/m 2,9 km/h (1 Bft) S-SW 202 0 min 0,000 mm 0,0 UV-I 0 W/m 10,7 C 11,5 C 3,2 km/h (1 Bft) 98,11 %
21.09.2018 05:30 11,3 C 21,7 C 10,0 C 94 % 1013,4 hPa 0,0 l/m 1,0 km/h (0 Bft) S-SW 202 0 min 0,000 mm 0,0 UV-I 0 W/m 10,4 C 11,3 C 1,6 km/h (1 Bft) 95,12 %
21.09.2018 05:32 11,2 C 21,7 C 9,4 C 94 % 1013,4 hPa 0,0 l/m 0,1 km/h (0 Bft) S-SW 202 0 min 0,000 mm 0,0 UV-I 0 W/m 10,3 C 11,2 C 1,6 km/h (1 Bft) 96,00 %
21.09.2018 05:34 11,3 C 21,7 C 9,4 C 95 % 1013,3 hPa 0,0 l/m 0,0 km/h (0 Bft) S-SW 202 0 min 0,000 mm 0,0 UV-I 0 W/m 10,5 C 11,3 C 0,0 km/h (0 Bft) 94,00 %
21.09.2018 05:36 11,4 C 21,7 C 10,0 C 95 % 1013,3 hPa 0,0 l/m 0,0 km/h (0 Bft) S-SW 202 0 min 0,000 mm 0,0 UV-I 0 W/m 10,6 C 11,4 C 0,0 km/h (0 Bft) 100,00 %
21.09.2018 05:38 11,6 C 21,7 C 9,4 C 95 % 1013,3 hPa 0,0 l/m 0,0 km/h (0 Bft) S-SW 202 0 min 0,000 mm 0,0 UV-I 0 W/m 10,8 C 11,6 C 0,0 km/h (0 Bft) 91,49 %
21.09.2018 05:40 11,7 C 21,7 C 9,4 C 95 % 1013,3 hPa 0,0 l/m 0,0 km/h (0 Bft) S-SW 202 0 min 0,000 mm 0,0 UV-I 0 W/m 10,9 C 11,7 C 0,0 km/h (0 Bft) 92,45 %
21.09.2018 05:42 11,8 C 21,7 C 9,4 C 95 % 1013,3 hPa 0,0 l/m 0,0 km/h (0 Bft) S-SW 202 0 min 0,000 mm 0,0 UV-I 0 W/m 11,0 C 11,8 C 0,0 km/h (0 Bft) 93,62 %
21.09.2018 05:44 11,8 C 21,7 C 9,4 C 95 % 1013,2 hPa 0,0 l/m 0,0 km/h (0 Bft) S-SW 202 0 min 0,000 mm 0,0 UV-I 0 W/m 11,0 C 11,8 C 0,0 km/h (0 Bft) 96,00 %
21.09.2018 05:46 11,8 C 21,7 C 9,4 C 95 % 1013,3 hPa 0,0 l/m 0,0 km/h (0 Bft) S-SW 202 0 min 0,000 mm 0,0 UV-I 0 W/m 11,0 C 11,8 C 0,0 km/h (0 Bft) 95,12 %
21.09.2018 05:48 11,8 C 21,7 C 10,0 C 95 % 1013,2 hPa 0,0 l/m 0,0 km/h (0 Bft) S-SW 202 0 min 0,000 mm 0,0 UV-I 0 W/m 11,0 C 11,8 C 0,0 km/h (0 Bft) 96,00 %
21.09.2018 05:50 11,7 C 21,7 C 10,0 C 95 % 1013,3 hPa 0,0 l/m 1,1 km/h (1 Bft) S-SW 202 0 min 0,000 mm 0,0 UV-I 0 W/m 10,9 C 11,7 C 3,2 km/h (1 Bft) 94,74 %
21.09.2018 05:52 11,6 C 21,7 C 10,0 C 95 % 1013,3 hPa 0,0 l/m 0,8 km/h (0 Bft) S-SW 202 0 min 0,000 mm 0,0 UV-I 0 W/m 10,8 C 11,6 C 1,6 km/h (1 Bft) 98,11 %
21.09.2018 05:54 11,6 C 21,7 C 9,4 C 95 % 1013,3 hPa 0,0 l/m 0,0 km/h (0 Bft) S-SW 202 0 min 0,000 mm 0,0 UV-I 0 W/m 10,8 C 11,6 C 1,6 km/h (1 Bft) 96,23 %
21.09.2018 05:56 11,6 C 21,7 C 9,4 C 95 % 1013,3 hPa 0,0 l/m 2,9 km/h (1 Bft) S-SW 202 0 min 0,000 mm 0,0 UV-I 0 W/m 10,8 C 11,6 C 3,2 km/h (1 Bft) 94,44 %
21.09.2018 05:58 11,4 C 21,7 C 10,0 C 95 % 1013,3 hPa 0,0 l/m 3,6 km/h (1 Bft) SW 220 0 min 0,000 mm 0,0 UV-I 0 W/m 10,6 C 11,4 C 4,8 km/h (1 Bft) 98,18 %
21.09.2018 06:00 11,2 C 21,7 C 10,0 C 94 % 1013,3 hPa 0,0 l/m 3,7 km/h (1 Bft) SW 223 0 min 0,000 mm 0,0 UV-I 0 W/m 10,3 C 11,2 C 6,4 km/h (2 Bft) 100,00 %
21.09.2018 06:02 11,1 C 21,7 C 10,0 C 94 % 1013,4 hPa 0,0 l/m 4,2 km/h (1 Bft) SW 225 0 min 0,000 mm 0,0 UV-I 0 W/m 10,2 C 11,1 C 4,8 km/h (1 Bft) 100,00 %
21.09.2018 06:04 11,0 C 21,7 C 9,4 C 94 % 1013,4 hPa 0,0 l/m 4,5 km/h (1 Bft) SW 225 0 min 0,000 mm 0,0 UV-I 0 W/m 10,1 C 11,0 C 6,4 km/h (2 Bft) 97,87 %
21.09.2018 06:06 11,1 C 21,7 C 9,4 C 95 % 1013,4 hPa 0,0 l/m 3,1 km/h (1 Bft) SW 225 0 min 0,000 mm 0,0 UV-I 0 W/m 10,3 C 11,1 C 4,8 km/h (1 Bft) 96,00 %
21.09.2018 06:08 11,2 C 21,7 C 9,4 C 95 % 1013,4 hPa 0,0 l/m 2,4 km/h (1 Bft) SW 225 0 min 0,000 mm 0,0 UV-I 0 W/m 10,4 C 11,2 C 3,2 km/h (1 Bft) 100,00 %
21.09.2018 06:10 11,2 C 21,7 C 9,4 C 95 % 1013,4 hPa 0,0 l/m 3,4 km/h (1 Bft) SW 225 0 min 0,000 mm 0,0 UV-I 0 W/m 10,4 C 11,2 C 4,8 km/h (1 Bft) 100,00 %
21.09.2018 06:12 11,2 C 21,7 C 9,4 C 95 % 1013,4 hPa 0,0 l/m 3,7 km/h (1 Bft) SW 224 0 min 0,000 mm 0,0 UV-I 0 W/m 10,4 C 11,2 C 4,8 km/h (1 Bft) 100,00 %
21.09.2018 06:14 10,9 C 21,7 C 9,4 C 95 % 1013,4 hPa 0,0 l/m 3,4 km/h (1 Bft) SW 224 0 min 0,000 mm 0,0 UV-I 0 W/m 10,1 C 10,9 C 4,8 km/h (1 Bft) 98,11 %
21.09.2018 06:16 10,8 C 21,7 C 8,9 C 94 % 1013,4 hPa 0,0 l/m 3,5 km/h (1 Bft) SW 224 0 min 0,000 mm 0,0 UV-I 0 W/m 9,9 C 10,8 C 4,8 km/h (1 Bft) 97,37 %
21.09.2018 06:18 10,7 C 21,7 C 8,9 C 95 % 1013,3 hPa 0,0 l/m 3,3 km/h (1 Bft) SW 224 0 min 0,000 mm 0,0 UV-I 0 W/m 9,9 C 10,7 C 4,8 km/h (1 Bft) 98,11 %
21.09.2018 06:20 10,9 C 21,7 C 8,9 C 95 % 1013,3 hPa 0,0 l/m 3,3 km/h (1 Bft) SW 224 0 min 0,000 mm 0,0 UV-I 0 W/m 10,1 C 10,9 C 4,8 km/h (1 Bft) 95,12 %
21.09.2018 06:22 11,2 C 21,7 C 8,3 C 96 % 1013,3 hPa 0,0 l/m 2,2 km/h (1 Bft) SW 224 0 min 0,000 mm 0,0 UV-I 0 W/m 10,6 C 11,2 C 3,2 km/h (1 Bft) 98,00 %
21.09.2018 06:24 11,4 C 21,7 C 8,3 C 96 % 1013,3 hPa 0,0 l/m 4,1 km/h (1 Bft) SW 224 0 min 0,000 mm 0,0 UV-I 0 W/m 10,8 C 11,4 C 4,8 km/h (1 Bft) 97,87 %
21.09.2018 06:26 11,6 C 21,7 C 8,9 C 96 % 1013,3 hPa 0,0 l/m 3,4 km/h (1 Bft) SW 224 0 min 0,000 mm 0,0 UV-I 0 W/m 11,0 C 11,6 C 4,8 km/h (1 Bft) 98,00 %
21.09.2018 06:28 11,4 C 21,7 C 9,4 C 96 % 1013,3 hPa 0,0 l/m 2,7 km/h (1 Bft) SW 224 0 min 0,000 mm 0,0 UV-I 0 W/m 10,8 C 11,4 C 4,8 km/h (1 Bft) 95,74 %
21.09.2018 06:30 11,2 C 21,7 C 9,4 C 95 % 1013,2 hPa 0,0 l/m 2,6 km/h (1 Bft) SW 224 0 min 0,000 mm 0,0 UV-I 0 W/m 10,4 C 11,2 C 3,2 km/h (1 Bft) 100,00 %
21.09.2018 06:32 11,1 C 21,7 C 8,9 C 95 % 1013,2 hPa 0,0 l/m 2,8 km/h (1 Bft) SW 224 0 min 0,000 mm 0,0 UV-I 0 W/m 10,3 C 11,1 C 4,8 km/h (1 Bft) 96,72 %
21.09.2018 06:34 11,2 C 21,7 C 8,9 C 95 % 1013,2 hPa 0,0 l/m 3,1 km/h (1 Bft) SW 224 0 min 0,000 mm 0,0 UV-I 0 W/m 10,4 C 11,2 C 3,2 km/h (1 Bft) 97,92 %
21.09.2018 06:36 11,2 C 21,7 C 8,9 C 96 % 1013,2 hPa 0,0 l/m 3,0 km/h (1 Bft) SW 224 0 min 0,000 mm 0,0 UV-I 4 W/m 10,6 C 11,2 C 4,8 km/h (1 Bft) 98,00 %
21.09.2018 06:38 11,3 C 21,7 C 8,9 C 96 % 1013,3 hPa 0,0 l/m 3,0 km/h (1 Bft) SW 224 0 min 0,000 mm 0,0 UV-I 5 W/m 10,7 C 11,3 C 3,2 km/h (1 Bft) 98,08 %
21.09.2018 06:40 11,4 C 21,7 C 8,9 C 96 % 1013,2 hPa 0,0 l/m 3,6 km/h (1 Bft) SW 224 0 min 0,000 mm 0,0 UV-I 5 W/m 10,8 C 11,4 C 4,8 km/h (1 Bft) 95,83 %
21.09.2018 06:42 11,6 C 21,7 C 8,9 C 96 % 1013,2 hPa 0,0 l/m 3,8 km/h (1 Bft) SW 224 0 min 0,000 mm 0,0 UV-I 5 W/m 11,0 C 11,6 C 4,8 km/h (1 Bft) 94,74 %
21.09.2018 06:44 11,8 C 21,7 C 8,9 C 96 % 1013,2 hPa 0,0 l/m 2,9 km/h (1 Bft) SW 224 0 min 0,000 mm 0,0 UV-I 7 W/m 11,2 C 11,8 C 3,2 km/h (1 Bft) 98,00 %
21.09.2018 06:46 11,8 C 21,7 C 8,9 C 96 % 1013,2 hPa 0,0 l/m 2,5 km/h (1 Bft) SW 224 0 min 0,000 mm 0,0 UV-I 7 W/m 11,2 C 11,8 C 3,2 km/h (1 Bft) 98,00 %
21.09.2018 06:48 11,8 C 21,7 C 8,9 C 96 % 1013,2 hPa 0,0 l/m 1,8 km/h (1 Bft) SW 224 0 min 0,000 mm 0,0 UV-I 8 W/m 11,2 C 11,8 C 3,2 km/h (1 Bft) 97,56 %
21.09.2018 06:50 11,8 C 21,7 C 8,9 C 96 % 1013,2 hPa 0,0 l/m 0,6 km/h (0 Bft) SW 224 0 min 0,000 mm 0,0 UV-I 9 W/m 11,2 C 11,8 C 1,6 km/h (1 Bft) 94,34 %
21.09.2018 06:52 11,6 C 21,7 C 8,9 C 95 % 1013,2 hPa 0,0 l/m 0,0 km/h (0 Bft) SW 224 0 min 0,000 mm 0,0 UV-I 10 W/m 10,8 C 11,6 C 0,0 km/h (0 Bft) 95,12 %
21.09.2018 06:54 11,5 C 21,7 C 8,3 C 95 % 1013,2 hPa 0,0 l/m 0,0 km/h (0 Bft) SW 224 0 min 0,000 mm 0,0 UV-I 11 W/m 10,7 C 11,5 C 0,0 km/h (0 Bft) 95,74 %
21.09.2018 06:56 11,6 C 21,7 C 8,3 C 96 % 1013,2 hPa 0,0 l/m 0,0 km/h (0 Bft) SW 224 0 min 0,000 mm 0,0 UV-I 12 W/m 11,0 C 11,6 C 0,0 km/h (0 Bft) 95,74 %
21.09.2018 06:58 11,6 C 21,7 C 8,3 C 96 % 1013,2 hPa 0,0 l/m 0,0 km/h (0 Bft) SW 224 0 min 0,000 mm 0,0 UV-I 15 W/m 11,0 C 11,6 C 0,0 km/h (0 Bft) 94,34 %
21.09.2018 07:00 11,7 C 21,7 C 8,3 C 96 % 1013,2 hPa 0,0 l/m 0,0 km/h (0 Bft) SW 224 2 min 0,000 mm 0,0 UV-I 18 W/m 11,1 C 11,7 C 0,0 km/h (0 Bft) 97,14 %
21.09.2018 07:02 11,7 C 21,7 C 8,3 C 96 % 1013,1 hPa 0,0 l/m 0,0 km/h (0 Bft) SW 224 2 min 0,000 mm 0,0 UV-I 20 W/m 11,1 C 11,7 C 0,0 km/h (0 Bft) 94,34 %
21.09.2018 07:04 11,7 C 21,7 C 8,9 C 96 % 1013,1 hPa 0,0 l/m 0,0 km/h (0 Bft) SW 224 2 min 0,000 mm 0,0 UV-I 21 W/m 11,1 C 11,7 C 0,0 km/h (0 Bft) 95,74 %
21.09.2018 07:06 11,6 C 21,7 C 9,4 C 96 % 1013,1 hPa 0,0 l/m 0,3 km/h (0 Bft) SW 224 2 min 0,000 mm 0,0 UV-I 23 W/m 11,0 C 11,6 C 1,6 km/h (1 Bft) 93,62 %
21.09.2018 07:08 11,5 C 21,7 C 9,4 C 96 % 1013,1 hPa 0,0 l/m 2,2 km/h (1 Bft) SW 224 2 min 0,000 mm 0,0 UV-I 26 W/m 10,9 C 11,5 C 3,2 km/h (1 Bft) 95,74 %
21.09.2018 07:10 11,4 C 21,7 C 8,9 C 96 % 1013,2 hPa 0,0 l/m 1,5 km/h (1 Bft) SW 224 2 min 0,000 mm 0,0 UV-I 30 W/m 10,8 C 11,4 C 1,6 km/h (1 Bft) 96,00 %
21.09.2018 07:12 11,4 C 21,7 C 8,9 C 96 % 1013,2 hPa 0,0 l/m 2,0 km/h (1 Bft) SW 224 2 min 0,000 mm 0,0 UV-I 33 W/m 10,8 C 11,4 C 3,2 km/h (1 Bft) 100,00 %
21.09.2018 07:14 11,6 C 21,7 C 8,9 C 96 % 1013,2 hPa 0,0 l/m 1,8 km/h (1 Bft) SW 224 2 min 0,000 mm 0,0 UV-I 37 W/m 11,0 C 11,6 C 3,2 km/h (1 Bft) 97,44 %
21.09.2018 07:16 11,6 C 21,7 C 9,4 C 96 % 1013,2 hPa 0,0 l/m 0,0 km/h (0 Bft) SW 224 2 min 0,000 mm 0,0 UV-I 41 W/m 11,0 C 11,6 C 0,0 km/h (0 Bft) 100,00 %
21.09.2018 07:18 11,4 C 21,7 C 10,0 C 96 % 1013,2 hPa 0,0 l/m 1,2 km/h (1 Bft) SW 224 2 min 0,000 mm 0,0 UV-I 46 W/m 10,8 C 11,4 C 3,2 km/h (1 Bft) 100,00 %
21.09.2018 07:20 11,4 C 21,7 C 10,0 C 96 % 1013,2 hPa 0,0 l/m 3,0 km/h (1 Bft) SW 224 2 min 0,000 mm 0,0 UV-I 51 W/m 10,8 C 11,4 C 4,8 km/h (1 Bft) 100,00 %
21.09.2018 07:22 11,4 C 21,7 C 10,0 C 96 % 1013,2 hPa 0,0 l/m 2,4 km/h (1 Bft) SW 224 2 min 0,000 mm 0,0 UV-I 55 W/m 10,8 C 11,4 C 3,2 km/h (1 Bft) 97,87 %
21.09.2018 07:24 11,3 C 21,7 C 10,0 C 96 % 1013,2 hPa 0,0 l/m 1,5 km/h (1 Bft) SW 224 2 min 0,000 mm 0,0 UV-I 61 W/m 10,7 C 11,3 C 3,2 km/h (1 Bft) 98,11 %
21.09.2018 07:26 11,4 C 21,7 C 10,0 C 96 % 1013,2 hPa 0,0 l/m 1,5 km/h (1 Bft) SW 224 2 min 0,000 mm 0,0 UV-I 66 W/m 10,8 C 11,4 C 3,2 km/h (1 Bft) 100,00 %
21.09.2018 07:28 11,4 C 21,7 C 10,0 C 96 % 1013,3 hPa 0,0 l/m 1,6 km/h (1 Bft) SW 224 2 min 0,000 mm 0,0 UV-I 70 W/m 10,8 C 11,4 C 3,2 km/h (1 Bft) 97,87 %
21.09.2018 07:30 11,6 C 21,7 C 9,4 C 96 % 1013,2 hPa 0,0 l/m 1,3 km/h (1 Bft) SW 224 2 min 0,000 mm 0,0 UV-I 75 W/m 11,0 C 11,6 C 3,2 km/h (1 Bft) 100,00 %
21.09.2018 07:32 11,7 C 21,7 C 9,4 C 96 % 1013,3 hPa 0,0 l/m 1,8 km/h (1 Bft) SW 224 2 min 0,000 mm 0,0 UV-I 77 W/m 11,1 C 11,7 C 3,2 km/h (1 Bft) 100,00 %
21.09.2018 07:34 11,8 C 21,7 C 10,0 C 96 % 1013,3 hPa 0,0 l/m 1,4 km/h (1 Bft) SW 224 2 min 0,000 mm 0,0 UV-I 82 W/m 11,2 C 11,8 C 1,6 km/h (1 Bft) 98,11 %
21.09.2018 07:36 11,7 C 21,7 C 10,0 C 96 % 1013,3 hPa 0,0 l/m 1,9 km/h (1 Bft) SW 224 2 min 0,000 mm 0,0 UV-I 85 W/m 11,1 C 11,7 C 3,2 km/h (1 Bft) 100,00 %
21.09.2018 07:38 11,6 C 21,7 C 10,0 C 96 % 1013,3 hPa 0,0 l/m 2,0 km/h (1 Bft) SW 224 2 min 0,000 mm 0,0 UV-I 89 W/m 11,0 C 11,6 C 3,2 km/h (1 Bft) 96,00 %
21.09.2018 07:40 11,5 C 21,7 C 10,6 C 96 % 1013,3 hPa 0,0 l/m 2,2 km/h (1 Bft) SW 224 2 min 0,000 mm 0,0 UV-I 95 W/m 10,9 C 11,5 C 3,2 km/h (1 Bft) 97,87 %
21.09.2018 07:42 11,4 C 21,7 C 10,6 C 95 % 1013,3 hPa 0,0 l/m 2,1 km/h (1 Bft) SW 224 2 min 0,000 mm 0,0 UV-I 99 W/m 10,6 C 11,4 C 3,2 km/h (1 Bft) 95,74 %
21.09.2018 07:44 11,6 C 21,7 C 10,6 C 96 % 1013,3 hPa 0,0 l/m 2,6 km/h (1 Bft) SW 224 2 min 0,000 mm 0,0 UV-I 105 W/m 11,0 C 11,6 C 3,2 km/h (1 Bft) 100,00 %
21.09.2018 07:46 11,7 C 21,7 C 10,6 C 96 % 1013,3 hPa 0,0 l/m 2,6 km/h (1 Bft) SW 224 2 min 0,000 mm 0,0 UV-I 109 W/m 11,1 C 11,7 C 3,2 km/h (1 Bft) 98,00 %
21.09.2018 07:48 11,8 C 21,7 C 10,6 C 96 % 1013,4 hPa 0,0 l/m 2,3 km/h (1 Bft) SW 224 2 min 0,000 mm 0,0 UV-I 115 W/m 11,2 C 11,8 C 3,2 km/h (1 Bft) 97,22 %
21.09.2018 07:50 12,0 C 21,7 C 10,6 C 96 % 1013,3 hPa 0,0 l/m 1,9 km/h (1 Bft) SW 224 2 min 0,000 mm 0,0 UV-I 119 W/m 11,4 C 12,0 C 3,2 km/h (1 Bft) 97,96 %
21.09.2018 07:52 12,1 C 21,7 C 11,1 C 96 % 1013,3 hPa 0,0 l/m 2,2 km/h (1 Bft) SW 224 2 min 0,000 mm 0,0 UV-I 123 W/m 11,5 C 12,1 C 3,2 km/h (1 Bft) 95,24 %
21.09.2018 07:54 12,1 C 21,7 C 11,1 C 96 % 1013,3 hPa 0,0 l/m 1,8 km/h (1 Bft) SW 224 2 min 0,000 mm 0,0 UV-I 129 W/m 11,5 C 12,1 C 3,2 km/h (1 Bft) 94,00 %
21.09.2018 07:56 12,2 C 21,7 C 11,7 C 96 % 1013,2 hPa 0,0 l/m 2,1 km/h (1 Bft) SW 224 2 min 0,000 mm 0,0 UV-I 133 W/m 11,6 C 12,2 C 3,2 km/h (1 Bft) 96,00 %
21.09.2018 07:58 12,4 C 21,7 C 11,7 C 96 % 1013,2 hPa 0,0 l/m 1,5 km/h (1 Bft) SW 224 2 min 0,000 mm 0,0 UV-I 137 W/m 11,8 C 12,4 C 3,2 km/h (1 Bft) 98,00 %
21.09.2018 08:00 12,6 C 21,7 C 11,7 C 96 % 1013,2 hPa 0,0 l/m 1,0 km/h (0 Bft) SW 224 2 min 0,051 mm 0,0 UV-I 142 W/m 12,0 C 12,6 C 1,6 km/h (1 Bft) 100,00 %
21.09.2018 08:02 12,7 C 21,7 C 12,2 C 96 % 1013,2 hPa 0,0 l/m 0,4 km/h (0 Bft) SW 224 2 min 0,000 mm 0,0 UV-I 146 W/m 12,1 C 12,7 C 1,6 km/h (1 Bft) 95,59 %
21.09.2018 08:04 12,8 C 21,7 C 12,2 C 96 % 1013,2 hPa 0,0 l/m 0,0 km/h (0 Bft) SW 224 2 min 0,000 mm 0,0 UV-I 150 W/m 12,2 C 12,8 C 0,0 km/h (0 Bft) 97,73 %
21.09.2018 08:06 12,9 C 21,7 C 12,2 C 96 % 1013,3 hPa 0,0 l/m 1,5 km/h (1 Bft) SW 224 2 min 0,000 mm 0,0 UV-I 155 W/m 12,3 C 12,9 C 3,2 km/h (1 Bft) 98,00 %
21.09.2018 08:08 13,0 C 21,7 C 12,2 C 95 % 1013,3 hPa 0,0 l/m 1,3 km/h (1 Bft) SW 224 2 min 0,000 mm 0,0 UV-I 162 W/m 12,2 C 13,0 C 3,2 km/h (1 Bft) 95,74 %
21.09.2018 08:10 13,1 C 21,7 C 12,8 C 95 % 1013,2 hPa 0,0 l/m 0,9 km/h (0 Bft) SW 224 2 min 0,000 mm 0,0 UV-I 166 W/m 12,3 C 13,1 C 1,6 km/h (1 Bft) 94,00 %
21.09.2018 08:12 13,2 C 21,7 C 12,8 C 95 % 1013,2 hPa 0,0 l/m 0,1 km/h (0 Bft) SW 225 2 min 0,000 mm 0,0 UV-I 172 W/m 12,4 C 13,2 C 1,6 km/h (1 Bft) 97,37 %
21.09.2018 08:14 13,3 C 21,7 C 12,8 C 95 % 1013,3 hPa 0,0 l/m 0,2 km/h (0 Bft) SW 224 2 min 0,000 mm 0,0 UV-I 176 W/m 12,5 C 13,3 C 1,6 km/h (1 Bft) 94,00 %
21.09.2018 08:16 13,4 C 21,7 C 12,8 C 95 % 1013,3 hPa 0,0 l/m 1,7 km/h (1 Bft) SW 224 2 min 0,000 mm 0,0 UV-I 180 W/m 12,6 C 13,4 C 3,2 km/h (1 Bft) 97,87 %
21.09.2018 08:18 13,5 C 21,7 C 12,8 C 95 % 1013,2 hPa 0,0 l/m 0,5 km/h (0 Bft) SW 224 2 min 0,000 mm 0,0 UV-I 186 W/m 12,7 C 13,5 C 1,6 km/h (1 Bft) 98,00 %
21.09.2018 08:20 13,6 C 21,7 C 12,8 C 95 % 1013,2 hPa 0,0 l/m 0,0 km/h (0 Bft) SW 224 2 min 0,000 mm 0,0 UV-I 190 W/m 12,8 C 13,6 C 0,0 km/h (0 Bft) 95,74 %
21.09.2018 08:22 13,7 C 21,7 C 12,8 C 95 % 1013,2 hPa 0,0 l/m 0,0 km/h (0 Bft) SW 224 2 min 0,000 mm 0,0 UV-I 196 W/m 12,9 C 13,7 C 0,0 km/h (0 Bft) 97,87 %
21.09.2018 08:24 13,8 C 21,7 C 12,8 C 95 % 1013,2 hPa 0,0 l/m 0,0 km/h (0 Bft) SW 224 2 min 0,000 mm 0,0 UV-I 200 W/m 13,0 C 13,8 C 0,0 km/h (0 Bft) 97,73 %
21.09.2018 08:26 13,9 C 21,7 C 12,8 C 94 % 1013,2 hPa 0,0 l/m 0,0 km/h (0 Bft) SW 225 2 min 0,000 mm 0,0 UV-I 206 W/m 12,9 C 13,9 C 0,0 km/h (0 Bft) 95,74 %
21.09.2018 08:28 13,9 C 21,7 C 13,3 C 94 % 1013,2 hPa 0,0 l/m 0,0 km/h (0 Bft) SW 224 2 min 0,000 mm 0,0 UV-I 211 W/m 12,9 C 13,9 C 0,0 km/h (0 Bft) 98,00 %
21.09.2018 08:30 14,0 C 21,7 C 13,3 C 94 % 1013,2 hPa 0,0 l/m 0,0 km/h (0 Bft) SW 224 2 min 0,000 mm 0,0 UV-I 215 W/m 13,0 C 14,0 C 0,0 km/h (0 Bft) 100,00 %
21.09.2018 08:32 14,2 C 21,7 C 13,3 C 94 % 1013,2 hPa 0,0 l/m 0,0 km/h (0 Bft) SW 225 2 min 0,000 mm 0,0 UV-I 220 W/m 13,2 C 14,2 C 0,0 km/h (0 Bft) 98,31 %
21.09.2018 08:34 14,3 C 21,7 C 13,3 C 94 % 1013,2 hPa 0,0 l/m 0,0 km/h (0 Bft) SW 224 2 min 0,000 mm 0,0 UV-I 226 W/m 13,3 C 14,3 C 0,0 km/h (0 Bft) 100,00 %
21.09.2018 08:36 14,6 C 21,7 C 13,3 C 94 % 1013,2 hPa 0,0 l/m 0,0 km/h (0 Bft) SW 224 2 min 0,000 mm 0,5 UV-I 230 W/m 13,6 C 14,6 C 0,0 km/h (0 Bft) 97,87 %
21.09.2018 08:38 14,8 C 21,7 C 13,9 C 93 % 1013,2 hPa 0,0 l/m 0,0 km/h (0 Bft) SW 225 2 min 0,000 mm 0,5 UV-I 236 W/m 13,7 C 14,8 C 0,0 km/h (0 Bft) 97,73 %
21.09.2018 08:40 14,8 C 21,7 C 13,9 C 93 % 1013,2 hPa 0,0 l/m 0,6 km/h (0 Bft) SW 225 2 min 0,000 mm 0,5 UV-I 240 W/m 13,7 C 14,8 C 1,6 km/h (1 Bft) 100,00 %
21.09.2018 08:42 14,9 C 21,7 C 13,9 C 93 % 1013,2 hPa 0,0 l/m 0,7 km/h (0 Bft) SW 224 2 min 0,000 mm 0,5 UV-I 245 W/m 13,8 C 14,9 C 1,6 km/h (1 Bft) 100,00 %
21.09.2018 08:44 15,2 C 21,7 C 13,9 C 92 % 1013,3 hPa 0,0 l/m 0,0 km/h (0 Bft) SW 224 2 min 0,000 mm 0,5 UV-I 250 W/m 13,9 C 15,2 C 0,0 km/h (0 Bft) 100,00 %
21.09.2018 08:46 15,3 C 21,7 C 13,9 C 91 % 1013,2 hPa 0,0 l/m 0,0 km/h (0 Bft) SW 224 2 min 0,000 mm 0,5 UV-I 258 W/m 13,8 C 15,3 C 0,0 km/h (0 Bft) 100,00 %
21.09.2018 08:48 15,2 C 21,7 C 13,9 C 90 % 1013,3 hPa 0,0 l/m 0,0 km/h (0 Bft) SW 224 2 min 0,000 mm 0,6 UV-I 266 W/m 13,6 C 15,2 C 0,0 km/h (0 Bft) 100,00 %
21.09.2018 08:50 15,3 C 21,7 C 13,9 C 91 % 1013,2 hPa 0,0 l/m 0,2 km/h (0 Bft) SW 224 2 min 0,000 mm 0,6 UV-I 272 W/m 13,8 C 15,3 C 1,6 km/h (1 Bft) 100,00 %
21.09.2018 08:52 15,4 C 21,7 C 14,4 C 91 % 1013,3 hPa 0,0 l/m 0,1 km/h (0 Bft) SW 224 2 min 0,000 mm 0,6 UV-I 276 W/m 13,9 C 15,4 C 1,6 km/h (1 Bft) 100,00 %
21.09.2018 08:54 15,5 C 21,7 C 14,4 C 91 % 1013,2 hPa 0,0 l/m 0,6 km/h (0 Bft) SW 224 2 min 0,000 mm 0,6 UV-I 280 W/m 14,0 C 15,5 C 1,6 km/h (1 Bft) 100,00 %
21.09.2018 08:56 15,6 C 21,7 C 14,4 C 91 % 1013,2 hPa 0,0 l/m 0,1 km/h (0 Bft) SW 224 2 min 0,000 mm 0,7 UV-I 285 W/m 14,1 C 15,6 C 1,6 km/h (1 Bft) 100,00 %
21.09.2018 08:58 15,8 C 21,7 C 14,4 C 90 % 1013,2 hPa 0,0 l/m 0,0 km/h (0 Bft) SW 224 2 min 0,000 mm 0,7 UV-I 291 W/m 14,2 C 15,8 C 0,0 km/h (0 Bft) 100,00 %
21.09.2018 09:00 16,0 C 21,7 C 14,4 C 89 % 1013,2 hPa 0,0 l/m 0,9 km/h (0 Bft) SW 224 2 min 0,101 mm 0,7 UV-I 299 W/m 14,2 C 16,0 C 1,6 km/h (1 Bft) 100,00 %
21.09.2018 09:02 16,1 C 21,7 C 14,4 C 89 % 1013,2 hPa 0,0 l/m 1,1 km/h (1 Bft) SW 224 2 min 0,000 mm 0,7 UV-I 303 W/m 14,3 C 16,1 C 1,6 km/h (1 Bft) 100,00 %
21.09.2018 09:04 16,3 C 21,7 C 14,4 C 88 % 1013,1 hPa 0,0 l/m 1,5 km/h (1 Bft) SW 224 2 min 0,000 mm 0,8 UV-I 308 W/m 14,3 C 16,3 C 3,2 km/h (1 Bft) 100,00 %
21.09.2018 09:06 16,3 C 21,7 C 14,4 C 88 % 1013,1 hPa 0,0 l/m 0,4 km/h (0 Bft) SW 225 2 min 0,000 mm 0,8 UV-I 313 W/m 14,3 C 16,3 C 1,6 km/h (1 Bft) 98,44 %
21.09.2018 09:08 16,3 C 21,7 C 14,4 C 87 % 1013,1 hPa 0,0 l/m 0,0 km/h (0 Bft) SW 225 2 min 0,000 mm 0,8 UV-I 316 W/m 14,1 C 16,3 C 1,6 km/h (1 Bft) 100,00 %
21.09.2018 09:10 16,3 C 21,7 C 14,4 C 88 % 1013,1 hPa 0,0 l/m 0,5 km/h (0 Bft) SW 225 2 min 0,000 mm 0,8 UV-I 321 W/m 14,3 C 16,3 C 1,6 km/h (1 Bft) 100,00 %
21.09.2018 09:12 16,3 C 21,7 C 14,4 C 88 % 1013,1 hPa 0,0 l/m 0,3 km/h (0 Bft) SW 225 2 min 0,000 mm 0,9 UV-I 325 W/m 14,3 C 16,3 C 1,6 km/h (1 Bft) 100,00 %
21.09.2018 09:14 16,3 C 21,7 C 15,0 C 88 % 1013,2 hPa 0,0 l/m 0,4 km/h (0 Bft) SW 227 2 min 0,000 mm 0,9 UV-I 331 W/m 14,3 C 16,3 C 1,6 km/h (1 Bft) 100,00 %
21.09.2018 09:16 16,3 C 21,7 C 15,0 C 88 % 1013,2 hPa 0,0 l/m 2,3 km/h (1 Bft) SW 231 2 min 0,000 mm 0,9 UV-I 337 W/m 14,3 C 16,3 C 3,2 km/h (1 Bft) 95,74 %
21.09.2018 09:18 16,4 C 21,7 C 15,0 C 88 % 1013,1 hPa 0,0 l/m 1,6 km/h (1 Bft) SW 231 2 min 0,000 mm 0,9 UV-I 340 W/m 14,4 C 16,4 C 3,2 km/h (1 Bft) 100,00 %
21.09.2018 09:20 16,5 C 21,7 C 15,6 C 88 % 1013,2 hPa 0,0 l/m 1,6 km/h (1 Bft) SW 231 2 min 0,000 mm 1,0 UV-I 344 W/m 14,5 C 16,5 C 3,2 km/h (1 Bft) 100,00 %
21.09.2018 09:22 16,3 C 21,7 C 15,6 C 88 % 1013,2 hPa 0,0 l/m 0,1 km/h (0 Bft) SW 231 2 min 0,000 mm 1,0 UV-I 348 W/m 14,3 C 16,3 C 1,6 km/h (1 Bft) 100,00 %
21.09.2018 09:24 16,3 C 21,7 C 15,6 C 89 % 1013,2 hPa 0,0 l/m 0,1 km/h (0 Bft) SW 231 2 min 0,000 mm 1,0 UV-I 352 W/m 14,5 C 16,3 C 1,6 km/h (1 Bft) 100,00 %
21.09.2018 09:26 16,3 C 21,7 C 15,6 C 89 % 1013,2 hPa 0,0 l/m 1,0 km/h (0 Bft) W 262 2 min 0,000 mm 1,0 UV-I 356 W/m 14,5 C 16,3 C 3,2 km/h (1 Bft) 98,00 %
21.09.2018 09:28 16,5 C 21,7 C 16,1 C 89 % 1013,2 hPa 0,0 l/m 1,7 km/h (1 Bft) W-NW 287 2 min 0,000 mm 1,1 UV-I 361 W/m 14,7 C 16,5 C 3,2 km/h (1 Bft) 95,74 %
21.09.2018 09:30 16,7 C 21,7 C 16,1 C 89 % 1013,2 hPa 0,0 l/m 2,6 km/h (1 Bft) W-NW 288 2 min 0,000 mm 1,1 UV-I 367 W/m 14,9 C 16,7 C 4,8 km/h (1 Bft) 97,73 %
21.09.2018 09:32 16,7 C 21,7 C 16,1 C 87 % 1013,2 hPa 0,0 l/m 2,2 km/h (1 Bft) W-NW 288 2 min 0,000 mm 1,1 UV-I 370 W/m 14,5 C 16,7 C 3,2 km/h (1 Bft) 96,23 %
21.09.2018 09:34 16,8 C 21,7 C 16,1 C 88 % 1013,2 hPa 0,0 l/m 1,2 km/h (1 Bft) W-NW 288 2 min 0,000 mm 1,1 UV-I 374 W/m 14,8 C 16,8 C 3,2 km/h (1 Bft) 97,56 %
21.09.2018 09:36 16,8 C 21,7 C 16,1 C 87 % 1013,2 hPa 0,0 l/m 0,8 km/h (0 Bft) W-NW 288 2 min 0,000 mm 1,2 UV-I 380 W/m 14,6 C 16,8 C 1,6 km/h (1 Bft) 96,43 %
21.09.2018 09:38 16,8 C 21,7 C 16,1 C 87 % 1013,2 hPa 0,0 l/m 1,4 km/h (1 Bft) W-NW 288 2 min 0,000 mm 1,2 UV-I 385 W/m 14,6 C 16,8 C 3,2 km/h (1 Bft) 94,74 %
21.09.2018 09:40 16,9 C 21,7 C 16,7 C 87 % 1013,2 hPa 0,0 l/m 1,4 km/h (1 Bft) W-NW 288 2 min 0,000 mm 1,2 UV-I 389 W/m 14,7 C 16,9 C 3,2 km/h (1 Bft) 89,58 %
21.09.2018 09:42 17,1 C 21,7 C 16,7 C 88 % 1013,2 hPa 0,0 l/m 2,7 km/h (1 Bft) N 9 2 min 0,000 mm 1,3 UV-I 393 W/m 15,1 C 17,1 C 4,8 km/h (1 Bft) 92,00 %
21.09.2018 09:44 17,3 C 21,7 C 17,2 C 86 % 1013,2 hPa 0,0 l/m 2,4 km/h (1 Bft) N 5 2 min 0,000 mm 1,3 UV-I 397 W/m 14,9 C 17,3 C 4,8 km/h (1 Bft) 92,00 %
21.09.2018 09:46 17,4 C 21,7 C 18,3 C 86 % 1013,2 hPa 0,0 l/m 1,2 km/h (1 Bft) N 5 2 min 0,000 mm 1,3 UV-I 404 W/m 15,0 C 17,4 C 3,2 km/h (1 Bft) 94,00 %
21.09.2018 09:48 17,7 C 21,7 C 18,9 C 87 % 1013,2 hPa 0,0 l/m 2,3 km/h (1 Bft) N 9 2 min 0,000 mm 1,3 UV-I 409 W/m 15,5 C 17,7 C 3,2 km/h (1 Bft) 92,11 %
21.09.2018 09:50 17,7 C 21,7 C 20,0 C 86 % 1013,2 hPa 0,0 l/m 2,4 km/h (1 Bft) O-NO 58 2 min 0,000 mm 1,4 UV-I 415 W/m 15,3 C 17,7 C 4,8 km/h (1 Bft) 90,00 %
21.09.2018 09:52 17,7 C 21,7 C 21,7 C 86 % 1013,2 hPa 0,0 l/m 1,2 km/h (1 Bft) O-NO 58 2 min 0,000 mm 1,4 UV-I 419 W/m 15,3 C 17,7 C 3,2 km/h (1 Bft) 96,00 %
21.09.2018 09:54 17,8 C 21,7 C 22,8 C 86 % 1013,2 hPa 0,0 l/m 1,1 km/h (1 Bft) O-NO 58 2 min 0,000 mm 1,4 UV-I 423 W/m 15,4 C 17,8 C 3,2 km/h (1 Bft) 94,00 %
21.09.2018 09:56 17,9 C 21,7 C 24,4 C 85 % 1013,2 hPa 0,0 l/m 0,4 km/h (0 Bft) O-NO 58 2 min 0,000 mm 1,5 UV-I 427 W/m 15,3 C 17,9 C 1,6 km/h (1 Bft) 97,14 %
21.09.2018 09:58 18,1 C 21,7 C 26,1 C 87 % 1013,2 hPa 0,0 l/m 2,7 km/h (1 Bft) NW 306 2 min 0,000 mm 1,5 UV-I 432 W/m 15,9 C 18,1 C 4,8 km/h (1 Bft) 92,86 %
21.09.2018 10:00 18,1 C 21,7 C 26,7 C 84 % 1013,2 hPa 0,0 l/m 0,4 km/h (0 Bft) NW 306 2 min 0,204 mm 1,5 UV-I 435 W/m 15,4 C 18,1 C 3,2 km/h (1 Bft) 91,49 %
21.09.2018 10:02 18,2 C 21,7 C 27,2 C 86 % 1013,3 hPa 0,0 l/m 1,1 km/h (1 Bft) NW 306 2 min 0,000 mm 1,5 UV-I 439 W/m 15,8 C 18,2 C 3,2 km/h (1 Bft) 95,74 %
21.09.2018 10:04 18,3 C 21,7 C 27,8 C 84 % 1013,2 hPa 0,0 l/m 2,3 km/h (1 Bft) NW 308 2 min 0,000 mm 1,6 UV-I 444 W/m 15,5 C 18,3 C 3,2 km/h (1 Bft) 95,74 %
21.09.2018 10:06 18,6 C 21,7 C 28,9 C 84 % 1013,2 hPa 0,0 l/m 2,1 km/h (1 Bft) N-NW 336 2 min 0,000 mm 1,6 UV-I 448 W/m 15,8 C 18,6 C 3,2 km/h (1 Bft) 97,56 %
21.09.2018 10:08 18,7 C 21,7 C 28,9 C 83 % 1013,1 hPa 0,0 l/m 2,5 km/h (1 Bft) N-NW 346 2 min 0,000 mm 1,6 UV-I 453 W/m 15,8 C 18,7 C 3,2 km/h (1 Bft) 94,34 %
21.09.2018 10:10 18,8 C 21,7 C 29,4 C 82 % 1013,1 hPa 0,0 l/m 3,3 km/h (1 Bft) N-NW 346 2 min 0,000 mm 1,7 UV-I 458 W/m 15,7 C 18,8 C 4,8 km/h (1 Bft) 97,37 %
21.09.2018 10:12 18,9 C 21,7 C 30,6 C 81 % 1013,1 hPa 0,0 l/m 2,2 km/h (1 Bft) N 351 2 min 0,000 mm 1,7 UV-I 463 W/m 15,6 C 18,9 C 4,8 km/h (1 Bft) 96,00 %
21.09.2018 10:14 18,9 C 21,7 C 30,6 C 81 % 1013,1 hPa 0,0 l/m 2,2 km/h (1 Bft) N 349 2 min 0,000 mm 1,7 UV-I 465 W/m 15,6 C 18,9 C 4,8 km/h (1 Bft) 97,87 %
21.09.2018 10:16 18,9 C 21,7 C 31,1 C 81 % 1013,1 hPa 0,0 l/m 2,5 km/h (1 Bft) N 349 2 min 0,000 mm 1,8 UV-I 467 W/m 15,6 C 18,9 C 4,8 km/h (1 Bft) 95,74 %
21.09.2018 10:18 19,0 C 21,7 C 31,7 C 82 % 1013,1 hPa 0,0 l/m 2,5 km/h (1 Bft) N 349 2 min 0,000 mm 1,8 UV-I 472 W/m 15,9 C 19,0 C 4,8 km/h (1 Bft) 98,00 %
21.09.2018 10:20 19,2 C 21,7 C 31,7 C 81 % 1013,0 hPa 0,0 l/m 3,4 km/h (1 Bft) N 349 2 min 0,000 mm 1,8 UV-I 476 W/m 15,9 C 19,2 C 4,8 km/h (1 Bft) 98,00 %
21.09.2018 10:22 19,4 C 21,7 C 31,7 C 80 % 1013,0 hPa 0,0 l/m 3,3 km/h (1 Bft) N 349 2 min 0,000 mm 1,9 UV-I 481 W/m 15,9 C 19,4 C 4,8 km/h (1 Bft) 97,44 %
21.09.2018 10:24 19,4 C 21,7 C 31,1 C 79 % 1013,0 hPa 0,0 l/m 2,0 km/h (1 Bft) N 349 2 min 0,000 mm 1,9 UV-I 485 W/m 15,7 C 19,4 C 3,2 km/h (1 Bft) 97,73 %
21.09.2018 10:26 19,3 C 21,7 C 31,7 C 77 % 1013,1 hPa 0,0 l/m 1,6 km/h (1 Bft) N-NW 348 2 min 0,000 mm 1,9 UV-I 488 W/m 15,2 C 19,3 C 3,2 km/h (1 Bft) 96,23 %
21.09.2018 10:28 19,3 C 21,7 C 31,7 C 77 % 1013,1 hPa 0,0 l/m 2,3 km/h (1 Bft) W 271 2 min 0,000 mm 2,0 UV-I 494 W/m 15,2 C 19,3 C 4,8 km/h (1 Bft) 95,74 %
21.09.2018 10:30 19,4 C 21,7 C 31,7 C 77 % 1013,1 hPa 0,0 l/m 3,5 km/h (1 Bft) W 279 2 min 0,000 mm 2,0 UV-I 497 W/m 15,3 C 19,4 C 4,8 km/h (1 Bft) 98,00 %
21.09.2018 10:32 19,3 C 21,7 C 31,7 C 77 % 1013,0 hPa 0,0 l/m 3,3 km/h (1 Bft) W-NW 289 2 min 0,000 mm 2,0 UV-I 501 W/m 15,2 C 19,3 C 4,8 km/h (1 Bft) 97,73 %
21.09.2018 10:34 19,3 C 21,7 C 31,1 C 77 % 1013,1 hPa 0,0 l/m 3,0 km/h (1 Bft) W-NW 289 2 min 0,000 mm 2,0 UV-I 504 W/m 15,2 C 19,3 C 4,8 km/h (1 Bft) 97,87 %
21.09.2018 10:36 19,3 C 21,7 C 31,7 C 78 % 1013,1 hPa 0,0 l/m 1,7 km/h (1 Bft) W-NW 292 2 min 0,000 mm 2,1 UV-I 510 W/m 15,4 C 19,3 C 3,2 km/h (1 Bft) 97,37 %
21.09.2018 10:38 19,7 C 21,7 C 32,2 C 79 % 1013,0 hPa 0,0 l/m 2,5 km/h (1 Bft) W 280 2 min 0,000 mm 2,1 UV-I 513 W/m 16,0 C 19,7 C 4,8 km/h (1 Bft) 98,11 %
21.09.2018 10:40 19,7 C 21,7 C 31,7 C 76 % 1013,0 hPa 0,0 l/m 0,7 km/h (0 Bft) W 280 2 min 0,000 mm 2,2 UV-I 516 W/m 15,3 C 19,7 C 3,2 km/h (1 Bft) 97,87 %
21.09.2018 10:42 19,8 C 21,7 C 32,8 C 76 % 1013,0 hPa 0,0 l/m 0,2 km/h (0 Bft) W 280 2 min 0,000 mm 2,2 UV-I 522 W/m 15,4 C 19,8 C 1,6 km/h (1 Bft) 98,00 %
21.09.2018 10:44 19,8 C 21,7 C 33,3 C 76 % 1013,0 hPa 0,0 l/m 1,4 km/h (1 Bft) W 281 2 min 0,000 mm 2,2 UV-I 523 W/m 15,4 C 19,8 C 3,2 km/h (1 Bft) 96,00 %
21.09.2018 10:46 20,2 C 21,7 C 32,8 C 77 % 1013,0 hPa 0,0 l/m 2,8 km/h (1 Bft) N-NW 344 2 min 0,000 mm 2,2 UV-I 526 W/m 16,0 C 20,2 C 4,8 km/h (1 Bft) 100,00 %
21.09.2018 10:48 20,3 C 21,7 C 32,8 C 78 % 1013,0 hPa 0,0 l/m 3,4 km/h (1 Bft) NW 313 2 min 0,000 mm 2,2 UV-I 529 W/m 16,3 C 20,3 C 6,4 km/h (2 Bft) 96,00 %
21.09.2018 10:50 20,3 C 21,7 C 32,2 C 76 % 1013,0 hPa 0,0 l/m 3,3 km/h (1 Bft) N-NW 335 2 min 0,000 mm 2,3 UV-I 532 W/m 15,9 C 20,3 C 4,8 km/h (1 Bft) 95,45 %
21.09.2018 10:52 20,3 C 21,7 C 32,8 C 76 % 1012,9 hPa 0,0 l/m 1,9 km/h (1 Bft) N-NW 336 2 min 0,000 mm 2,3 UV-I 536 W/m 15,9 C 20,3 C 3,2 km/h (1 Bft) 98,11 %
21.09.2018 10:54 20,4 C 21,7 C 32,8 C 77 % 1013,0 hPa 0,0 l/m 3,0 km/h (1 Bft) N-NO 18 2 min 0,000 mm 2,3 UV-I 538 W/m 16,2 C 20,4 C 4,8 km/h (1 Bft) 95,24 %
21.09.2018 10:56 20,5 C 21,7 C 32,8 C 75 % 1012,9 hPa 0,0 l/m 2,2 km/h (1 Bft) NW 317 2 min 0,000 mm 2,4 UV-I 541 W/m 15,9 C 20,5 C 4,8 km/h (1 Bft) 95,74 %
21.09.2018 10:58 20,4 C 21,7 C 32,2 C 75 % 1012,9 hPa 0,0 l/m 3,1 km/h (1 Bft) NW 322 2 min 0,000 mm 2,4 UV-I 543 W/m 15,8 C 20,4 C 4,8 km/h (1 Bft) 95,74 %
21.09.2018 11:00 20,4 C 21,7 C 32,2 C 74 % 1013,0 hPa 0,0 l/m 2,6 km/h (1 Bft) W-NW 286 2 min 0,279 mm 2,4 UV-I 545 W/m 15,6 C 20,4 C 4,8 km/h (1 Bft) 96,23 %
21.09.2018 11:02 20,4 C 21,7 C 32,2 C 74 % 1012,9 hPa 0,0 l/m 2,2 km/h (1 Bft) W-NW 295 2 min 0,000 mm 2,4 UV-I 548 W/m 15,6 C 20,4 C 4,8 km/h (1 Bft) 93,62 %
21.09.2018 11:04 20,4 C 21,7 C 32,8 C 75 % 1013,0 hPa 0,0 l/m 2,1 km/h (1 Bft) W-SW 240 2 min 0,000 mm 2,5 UV-I 551 W/m 15,8 C 20,4 C 4,8 km/h (1 Bft) 93,62 %
21.09.2018 11:06 20,5 C 21,7 C 32,2 C 75 % 1013,0 hPa 0,0 l/m 3,5 km/h (1 Bft) NW 322 2 min 0,000 mm 2,5 UV-I 556 W/m 15,9 C 20,5 C 6,4 km/h (2 Bft) 97,37 %
21.09.2018 11:08 20,7 C 21,7 C 33,3 C 75 % 1012,9 hPa 0,0 l/m 2,0 km/h (1 Bft) NW 325 2 min 0,000 mm 2,5 UV-I 560 W/m 16,1 C 20,7 C 3,2 km/h (1 Bft) 92,45 %
21.09.2018 11:10 20,9 C 21,7 C 33,3 C 74 % 1012,9 hPa 0,0 l/m 1,5 km/h (1 Bft) NW 326 2 min 0,000 mm 2,6 UV-I 562 W/m 16,1 C 20,9 C 3,2 km/h (1 Bft) 96,00 %
21.09.2018 11:12 21,1 C 21,7 C 33,9 C 75 % 1012,9 hPa 0,0 l/m 3,6 km/h (1 Bft) N-NW 341 2 min 0,000 mm 2,6 UV-I 563 W/m 16,5 C 21,1 C 6,4 km/h (2 Bft) 93,62 %
21.09.2018 11:14 21,1 C 21,7 C 33,3 C 73 % 1012,8 hPa 0,0 l/m 3,7 km/h (1 Bft) NW 306 2 min 0,000 mm 2,6 UV-I 567 W/m 16,1 C 21,1 C 6,4 km/h (2 Bft) 97,56 %
21.09.2018 11:16 20,9 C 21,7 C 32,8 C 72 % 1012,8 hPa 0,0 l/m 3,5 km/h (1 Bft) W-NW 301 2 min 0,000 mm 2,7 UV-I 571 W/m 15,7 C 20,9 C 6,4 km/h (2 Bft) 98,11 %
21.09.2018 11:18 20,8 C 21,7 C 32,8 C 73 % 1012,8 hPa 0,0 l/m 2,8 km/h (1 Bft) N-NW 340 2 min 0,000 mm 2,7 UV-I 572 W/m 15,8 C 20,8 C 4,8 km/h (1 Bft) 97,87 %
21.09.2018 11:20 20,9 C 21,7 C 33,9 C 72 % 1012,8 hPa 0,0 l/m 2,2 km/h (1 Bft) N-NW 341 2 min 0,000 mm 2,7 UV-I 574 W/m 15,7 C 20,9 C 4,8 km/h (1 Bft) 97,37 %
21.09.2018 11:22 21,2 C 21,7 C 33,9 C 72 % 1012,8 hPa 0,0 l/m 2,4 km/h (1 Bft) N-NW 344 2 min 0,000 mm 2,7 UV-I 577 W/m 15,9 C 21,2 C 3,2 km/h (1 Bft) 100,00 %
21.09.2018 11:24 21,5 C 21,7 C 34,4 C 72 % 1012,8 hPa 0,0 l/m 1,8 km/h (1 Bft) N-NW 344 2 min 0,000 mm 2,7 UV-I 577 W/m 16,2 C 21,5 C 3,2 km/h (1 Bft) 98,57 %
21.09.2018 11:26 21,6 C 21,7 C 33,9 C 71 % 1012,8 hPa 0,0 l/m 3,1 km/h (1 Bft) N-NW 342 2 min 0,000 mm 2,8 UV-I 581 W/m 16,1 C 21,6 C 4,8 km/h (1 Bft) 97,14 %
21.09.2018 11:28 21,9 C 21,7 C 34,4 C 72 % 1012,8 hPa 0,0 l/m 3,1 km/h (1 Bft) W 275 2 min 0,000 mm 2,8 UV-I 586 W/m 16,6 C 21,9 C 4,8 km/h (1 Bft) 96,43 %
21.09.2018 11:30 21,8 C 21,7 C 34,4 C 70 % 1012,8 hPa 0,0 l/m 3,7 km/h (1 Bft) N-NO 30 2 min 0,000 mm 2,7 UV-I 587 W/m 16,1 C 21,8 C 6,4 km/h (2 Bft) 98,00 %
21.09.2018 11:32 21,9 C 21,7 C 34,4 C 70 % 1012,8 hPa 0,0 l/m 4,9 km/h (1 Bft) N-NO 29 2 min 0,000 mm 2,0 UV-I 590 W/m 16,2 C 21,9 C 6,4 km/h (2 Bft) 97,56 %
21.09.2018 11:34 21,9 C 21,7 C 33,9 C 70 % 1012,7 hPa 0,0 l/m 3,9 km/h (1 Bft) O 90 2 min 0,000 mm 1,9 UV-I 591 W/m 16,2 C 21,9 C 6,4 km/h (2 Bft) 97,92 %
21.09.2018 11:36 21,9 C 21,7 C 35,0 C 69 % 1012,8 hPa 0,0 l/m 2,7 km/h (1 Bft) O-SO 105 2 min 0,000 mm 2,4 UV-I 592 W/m 15,9 C 21,9 C 6,4 km/h (2 Bft) 97,56 %
21.09.2018 11:38 21,9 C 21,7 C 35,6 C 69 % 1012,7 hPa 0,0 l/m 4,4 km/h (1 Bft) O 100 2 min 0,000 mm 2,0 UV-I 594 W/m 15,9 C 21,9 C 6,4 km/h (2 Bft) 96,00 %
21.09.2018 11:40 21,8 C 21,7 C 35,6 C 70 % 1012,7 hPa 0,0 l/m 2,2 km/h (1 Bft) NO 54 2 min 0,000 mm 2,2 UV-I 596 W/m 16,1 C 21,8 C 3,2 km/h (1 Bft) 97,87 %
21.09.2018 11:42 21,8 C 21,7 C 35,0 C 70 % 1012,7 hPa 0,0 l/m 1,0 km/h (0 Bft) NO 54 2 min 0,000 mm 2,0 UV-I 598 W/m 16,1 C 21,8 C 3,2 km/h (1 Bft) 94,00 %
21.09.2018 11:44 21,8 C 21,7 C 35,0 C 71 % 1012,7 hPa 0,0 l/m 1,2 km/h (1 Bft) NO 54 2 min 0,000 mm 2,8 UV-I 572 W/m 16,3 C 21,8 C 3,2 km/h (1 Bft) 98,00 %
21.09.2018 11:46 21,8 C 21,7 C 35,0 C 69 % 1012,7 hPa 0,0 l/m 2,0 km/h (1 Bft) S-SW 197 2 min 0,000 mm 2,5 UV-I 601 W/m 15,9 C 21,8 C 3,2 km/h (1 Bft) 95,74 %
21.09.2018 11:48 21,7 C 21,7 C 35,0 C 69 % 1012,7 hPa 0,0 l/m 1,3 km/h (1 Bft) S-SW 197 2 min 0,000 mm 2,8 UV-I 604 W/m 15,8 C 21,7 C 3,2 km/h (1 Bft) 100,00 %
21.09.2018 11:50 21,8 C 21,7 C 35,0 C 69 % 1012,7 hPa 0,0 l/m 1,5 km/h (1 Bft) S-SO 167 2 min 0,000 mm 3,1 UV-I 603 W/m 15,9 C 21,8 C 4,8 km/h (1 Bft) 98,00 %
21.09.2018 11:52 22,0 C 21,7 C 35,0 C 70 % 1012,6 hPa 0,0 l/m 2,3 km/h (1 Bft) O-NO 67 2 min 0,000 mm 3,1 UV-I 602 W/m 16,3 C 22,0 C 4,8 km/h (1 Bft) 98,00 %
21.09.2018 11:54 22,1 C 21,7 C 35,0 C 70 % 1012,6 hPa 0,0 l/m 1,8 km/h (1 Bft) N 355 2 min 0,000 mm 3,1 UV-I 605 W/m 16,4 C 22,1 C 4,8 km/h (1 Bft) 97,37 %
21.09.2018 11:56 22,3 C 21,7 C 35,0 C 70 % 1012,5 hPa 0,0 l/m 1,8 km/h (1 Bft) W-NW 288 2 min 0,000 mm 2,9 UV-I 610 W/m 16,6 C 22,3 C 3,2 km/h (1 Bft) 98,11 %
21.09.2018 11:58 22,3 C 22,2 C 35,6 C 68 % 1012,6 hPa 0,0 l/m 4,1 km/h (1 Bft) W-SW 254 2 min 0,000 mm 2,9 UV-I 610 W/m 16,1 C 22,3 C 6,4 km/h (2 Bft) 100,00 %
21.09.2018 12:00 22,3 C 22,2 C 35,0 C 67 % 1012,5 hPa 0,0 l/m 3,1 km/h (1 Bft) W 274 2 min 0,356 mm 3,1 UV-I 610 W/m 15,9 C 22,3 C 6,4 km/h (2 Bft) 100,00 %
21.09.2018 12:02 22,4 C 22,2 C 35,6 C 68 % 1012,5 hPa 0,0 l/m 2,6 km/h (1 Bft) W-NW 300 2 min 0,000 mm 2,5 UV-I 610 W/m 16,2 C 22,4 C 6,4 km/h (2 Bft) 100,00 %
21.09.2018 12:04 22,5 C 22,2 C 35,6 C 67 % 1012,5 hPa 0,0 l/m 1,7 km/h (1 Bft) W-NW 301 2 min 0,000 mm 2,8 UV-I 613 W/m 16,1 C 22,5 C 3,2 km/h (1 Bft) 96,00 %
21.09.2018 12:06 22,7 C 22,2 C 36,1 C 69 % 1012,6 hPa 0,0 l/m 0,3 km/h (0 Bft) W-NW 301 2 min 0,000 mm 2,9 UV-I 615 W/m 16,7 C 22,7 C 1,6 km/h (1 Bft) 100,00 %
21.09.2018 12:08 22,9 C 22,2 C 36,1 C 67 % 1012,5 hPa 0,0 l/m 3,4 km/h (1 Bft) W 277 2 min 0,000 mm 3,2 UV-I 619 W/m 16,4 C 22,9 C 4,8 km/h (1 Bft) 100,00 %
21.09.2018 12:10 22,8 C 22,2 C 36,1 C 66 % 1012,5 hPa 0,0 l/m 2,8 km/h (1 Bft) NW 304 2 min 0,000 mm 3,2 UV-I 621 W/m 16,1 C 22,8 C 4,8 km/h (1 Bft) 100,00 %
21.09.2018 12:12 22,9 C 22,2 C 36,1 C 67 % 1012,5 hPa 0,0 l/m 1,4 km/h (1 Bft) NW 306 2 min 0,000 mm 2,8 UV-I 621 W/m 16,4 C 22,9 C 3,2 km/h (1 Bft) 98,11 %
21.09.2018 12:14 23,0 C 22,2 C 36,1 C 66 % 1012,5 hPa 0,0 l/m 3,3 km/h (1 Bft) NW 304 2 min 0,000 mm 3,2 UV-I 620 W/m 16,3 C 23,0 C 4,8 km/h (1 Bft) 100,00 %
21.09.2018 12:16 22,9 C 22,2 C 36,1 C 67 % 1012,4 hPa 0,0 l/m 2,7 km/h (1 Bft) W-NW 286 2 min 0,000 mm 3,2 UV-I 621 W/m 16,4 C 22,9 C 4,8 km/h (1 Bft) 100,00 %
21.09.2018 12:18 22,9 C 22,2 C 36,1 C 65 % 1012,4 hPa 0,0 l/m 3,1 km/h (1 Bft) NO 46 2 min 0,000 mm 3,2 UV-I 622 W/m 16,0 C 22,9 C 4,8 km/h (1 Bft) 100,00 %
21.09.2018 12:20 23,1 C 22,2 C 36,1 C 65 % 1012,4 hPa 0,0 l/m 1,1 km/h (1 Bft) NO 56 2 min 0,000 mm 3,3 UV-I 622 W/m 16,2 C 23,1 C 3,2 km/h (1 Bft) 100,00 %
21.09.2018 12:22 23,3 C 22,2 C 36,7 C 67 % 1012,4 hPa 0,0 l/m 2,4 km/h (1 Bft) N 355 2 min 0,000 mm 3,3 UV-I 623 W/m 16,8 C 23,3 C 4,8 km/h (1 Bft) 100,00 %
21.09.2018 12:24 23,6 C 22,2 C 36,7 C 68 % 1012,4 hPa 0,0 l/m 3,6 km/h (1 Bft) N 355 2 min 0,000 mm 3,3 UV-I 610 W/m 17,3 C 23,6 C 4,8 km/h (1 Bft) 100,00 %
21.09.2018 12:26 23,7 C 22,2 C 36,7 C 62 % 1012,3 hPa 0,0 l/m 2,9 km/h (1 Bft) NW 314 2 min 0,000 mm 2,8 UV-I 606 W/m 16,0 C 23,7 C 4,8 km/h (1 Bft) 100,00 %
21.09.2018 12:28 23,6 C 22,2 C 36,1 C 61 % 1012,4 hPa 0,0 l/m 3,6 km/h (1 Bft) SW 236 2 min 0,000 mm 2,7 UV-I 622 W/m 15,6 C 23,6 C 6,4 km/h (2 Bft) 93,62 %
21.09.2018 12:30 23,5 C 22,2 C 35,6 C 63 % 1012,4 hPa 0,0 l/m 1,9 km/h (1 Bft) SW 236 2 min 0,000 mm 3,2 UV-I 612 W/m 16,0 C 23,5 C 4,8 km/h (1 Bft) 98,00 %
21.09.2018 12:32 23,4 C 22,2 C 36,7 C 60 % 1012,3 hPa 0,0 l/m 1,7 km/h (1 Bft) SW 236 2 min 0,000 mm 3,0 UV-I 618 W/m 15,2 C 23,4 C 3,2 km/h (1 Bft) 97,87 %
21.09.2018 12:34 23,4 C 22,2 C 37,2 C 62 % 1012,3 hPa 0,0 l/m 1,5 km/h (1 Bft) SW 236 2 min 0,000 mm 2,7 UV-I 626 W/m 15,7 C 23,4 C 3,2 km/h (1 Bft) 97,37 %
21.09.2018 12:36 23,6 C 22,2 C 37,2 C 61 % 1012,3 hPa 0,0 l/m 1,2 km/h (1 Bft) SW 234 2 min 0,000 mm 2,8 UV-I 627 W/m 15,6 C 23,6 C 3,2 km/h (1 Bft) 98,00 %
21.09.2018 12:38 23,8 C 22,2 C 37,2 C 61 % 1012,3 hPa 0,0 l/m 1,4 km/h (1 Bft) SW 234 2 min 0,000 mm 3,3 UV-I 628 W/m 15,8 C 23,8 C 4,8 km/h (1 Bft) 98,00 %
21.09.2018 12:40 23,8 C 22,2 C 37,2 C 60 % 1012,3 hPa 0,0 l/m 1,3 km/h (1 Bft) N-NW 343 2 min 0,000 mm 3,3 UV-I 628 W/m 15,6 C 23,8 C 3,2 km/h (1 Bft) 96,00 %
21.09.2018 12:42 24,0 C 22,2 C 37,2 C 60 % 1012,3 hPa 0,0 l/m 3,1 km/h (1 Bft) W 259 2 min 0,000 mm 3,4 UV-I 631 W/m 15,7 C 24,0 C 4,8 km/h (1 Bft) 97,14 %
21.09.2018 12:44 24,1 C 22,2 C 36,7 C 58 % 1012,3 hPa 0,0 l/m 4,1 km/h (1 Bft) W 261 2 min 0,000 mm 3,4 UV-I 630 W/m 15,3 C 24,1 C 6,4 km/h (2 Bft) 97,87 %
21.09.2018 12:46 24,0 C 22,2 C 36,1 C 59 % 1012,3 hPa 0,0 l/m 1,6 km/h (1 Bft) NW 313 2 min 0,000 mm 3,3 UV-I 628 W/m 15,5 C 24,0 C 4,8 km/h (1 Bft) 95,83 %
21.09.2018 12:48 24,1 C 22,2 C 36,1 C 62 % 1012,3 hPa 0,0 l/m 4,5 km/h (1 Bft) N-NW 342 2 min 0,000 mm 3,3 UV-I 605 W/m 16,4 C 24,1 C 6,4 km/h (2 Bft) 98,08 %
21.09.2018 12:50 24,2 C 22,2 C 35,6 C 59 % 1012,2 hPa 0,0 l/m 5,3 km/h (1 Bft) N-NW 343 2 min 0,000 mm 2,9 UV-I 569 W/m 15,7 C 24,2 C 8,0 km/h (2 Bft) 97,92 %
21.09.2018 12:52 24,2 C 22,2 C 36,1 C 61 % 1012,3 hPa 0,0 l/m 3,2 km/h (1 Bft) N-NO 13 2 min 0,000 mm 3,4 UV-I 628 W/m 16,2 C 24,2 C 4,8 km/h (1 Bft) 97,37 %
21.09.2018 12:54 24,3 C 22,2 C 35,6 C 60 % 1012,2 hPa 0,0 l/m 4,2 km/h (1 Bft) N 355 2 min 0,000 mm 3,4 UV-I 628 W/m 16,0 C 24,3 C 4,8 km/h (1 Bft) 98,11 %
21.09.2018 12:56 24,3 C 22,2 C 36,1 C 60 % 1012,2 hPa 0,0 l/m 3,3 km/h (1 Bft) N-NW 338 2 min 0,000 mm 3,4 UV-I 621 W/m 16,0 C 24,3 C 6,4 km/h (2 Bft) 98,00 %
21.09.2018 12:58 24,3 C 22,2 C 35,6 C 58 % 1012,2 hPa 0,0 l/m 2,8 km/h (1 Bft) N-NW 338 2 min 0,000 mm 3,4 UV-I 627 W/m 15,5 C 24,3 C 4,8 km/h (1 Bft) 97,87 %
21.09.2018 13:00 24,3 C 22,2 C 36,1 C 59 % 1012,2 hPa 0,0 l/m 3,4 km/h (1 Bft) N-NW 329 2 min 0,381 mm 3,4 UV-I 629 W/m 15,8 C 24,3 C 4,8 km/h (1 Bft) 100,00 %
21.09.2018 13:02 24,4 C 22,2 C 36,1 C 59 % 1012,1 hPa 0,0 l/m 3,0 km/h (1 Bft) N-NO 12 2 min 0,000 mm 3,2 UV-I 631 W/m 15,9 C 24,4 C 6,4 km/h (2 Bft) 100,00 %
21.09.2018 13:04 24,6 C 22,2 C 36,1 C 59 % 1012,1 hPa 0,0 l/m 4,1 km/h (1 Bft) NW 317 2 min 0,000 mm 3,3 UV-I 633 W/m 16,0 C 24,6 C 6,4 km/h (2 Bft) 100,00 %
21.09.2018 13:06 24,8 C 22,2 C 36,1 C 58 % 1012,1 hPa 0,0 l/m 3,0 km/h (1 Bft) NO 55 2 min 0,000 mm 3,4 UV-I 631 W/m 16,0 C 24,8 C 4,8 km/h (1 Bft) 100,00 %
21.09.2018 13:09 24,9 C 22,2 C 36,7 C 59 % 1012,1 hPa 0,0 l/m 2,2 km/h (1 Bft) N-NW 348 3 min 0,000 mm 2,8 UV-I 632 W/m 16,3 C 24,9 C 4,8 km/h (1 Bft) 100,00 %
21.09.2018 13:10 24,9 C 22,2 C 36,7 C 56 % 1012,1 hPa 0,0 l/m 1,5 km/h (1 Bft) N 9 1 min 0,000 mm 3,4 UV-I 633 W/m 15,5 C 24,9 C 3,2 km/h (1 Bft) 100,00 %
21.09.2018 13:12 24,8 C 22,2 C 36,7 C 57 % 1012,0 hPa 0,0 l/m 2,9 km/h (1 Bft) W-SW 257 2 min 0,000 mm 3,4 UV-I 633 W/m 15,7 C 24,8 C 4,8 km/h (1 Bft) 100,00 %
21.09.2018 13:14 24,7 C 22,2 C 36,7 C 56 % 1012,1 hPa 0,0 l/m 2,6 km/h (1 Bft) W 281 2 min 0,000 mm 3,4 UV-I 633 W/m 15,3 C 24,7 C 4,8 km/h (1 Bft) 100,00 %
21.09.2018 13:16 24,7 C 22,2 C 36,1 C 56 % 1012,1 hPa 0,0 l/m 2,0 km/h (1 Bft) W 281 2 min 0,000 mm 3,4 UV-I 634 W/m 15,3 C 24,7 C 4,8 km/h (1 Bft) 100,00 %
21.09.2018 13:18 24,7 C 22,2 C 36,1 C 57 % 1012,0 hPa 0,0 l/m 1,8 km/h (1 Bft) W 281 2 min 0,000 mm 3,4 UV-I 633 W/m 15,6 C 24,7 C 3,2 km/h (1 Bft) 100,00 %
21.09.2018 13:20 24,8 C 22,2 C 36,1 C 57 % 1012,0 hPa 0,0 l/m 3,7 km/h (1 Bft) N 349 2 min 0,000 mm 3,4 UV-I 633 W/m 15,7 C 24,8 C 6,4 km/h (2 Bft) 95,74 %
21.09.2018 13:22 25,1 C 22,2 C 36,1 C 56 % 1012,0 hPa 0,0 l/m 2,8 km/h (1 Bft) NW 325 2 min 0,000 mm 3,4 UV-I 634 W/m 15,7 C 25,1 C 4,8 km/h (1 Bft) 97,44 %
21.09.2018 13:24 25,2 C 22,2 C 37,2 C 57 % 1012,0 hPa 0,0 l/m 2,0 km/h (1 Bft) NW 326 2 min 0,000 mm 3,4 UV-I 635 W/m 16,1 C 25,2 C 4,8 km/h (1 Bft) 98,00 %
21.09.2018 13:26 25,4 C 22,2 C 37,2 C 56 % 1011,9 hPa 0,0 l/m 2,7 km/h (1 Bft) NO 36 2 min 0,000 mm 3,4 UV-I 635 W/m 16,0 C 25,4 C 4,8 km/h (1 Bft) 95,74 %
21.09.2018 13:28 25,7 C 22,2 C 37,8 C 55 % 1011,9 hPa 0,0 l/m 5,3 km/h (1 Bft) W 277 2 min 0,000 mm 3,4 UV-I 635 W/m 16,0 C 25,7 C 9,7 km/h (2 Bft) 98,11 %
21.09.2018 13:30 25,7 C 22,2 C 37,2 C 52 % 1011,8 hPa 0,0 l/m 2,7 km/h (1 Bft) W 260 2 min 0,000 mm 3,3 UV-I 635 W/m 15,1 C 25,7 C 6,4 km/h (2 Bft) 97,56 %
21.09.2018 13:32 25,6 C 22,2 C 37,2 C 51 % 1011,9 hPa 0,0 l/m 1,2 km/h (1 Bft) NW 325 2 min 0,000 mm 3,1 UV-I 634 W/m 14,7 C 25,6 C 3,2 km/h (1 Bft) 97,87 %
21.09.2018 13:34 25,7 C 22,2 C 37,2 C 52 % 1011,8 hPa 0,0 l/m 2,8 km/h (1 Bft) S 174 2 min 0,000 mm 3,3 UV-I 630 W/m 15,1 C 25,7 C 4,8 km/h (1 Bft) 98,00 %
21.09.2018 13:36 25,8 C 22,2 C 37,8 C 53 % 1011,7 hPa 0,0 l/m 4,3 km/h (1 Bft) W-SW 244 2 min 0,000 mm 3,3 UV-I 625 W/m 15,5 C 25,8 C 6,4 km/h (2 Bft) 95,12 %
21.09.2018 13:38 25,9 C 22,2 C 37,2 C 52 % 1011,8 hPa 0,0 l/m 5,4 km/h (1 Bft) N 11 2 min 0,000 mm 3,3 UV-I 617 W/m 15,3 C 25,9 C 11,3 km/h (2 Bft) 98,21 %
21.09.2018 13:40 25,9 C 22,2 C 37,2 C 52 % 1011,8 hPa 0,0 l/m 3,0 km/h (1 Bft) NW 314 2 min 0,000 mm 3,3 UV-I 621 W/m 15,3 C 25,9 C 6,4 km/h (2 Bft) 95,12 %
21.09.2018 13:42 25,9 C 22,2 C 36,7 C 54 % 1011,7 hPa 0,0 l/m 3,4 km/h (1 Bft) W-NW 300 2 min 0,000 mm 3,2 UV-I 611 W/m 15,9 C 25,9 C 4,8 km/h (1 Bft) 97,56 %
21.09.2018 13:44 25,9 C 22,8 C 36,7 C 51 % 1011,7 hPa 0,0 l/m 4,4 km/h (1 Bft) S-SW 213 2 min 0,000 mm 3,2 UV-I 607 W/m 15,0 C 25,9 C 9,7 km/h (2 Bft) 96,36 %
21.09.2018 13:46 26,1 C 22,8 C 36,1 C 51 % 1011,8 hPa 0,0 l/m 5,8 km/h (2 Bft) S-SW 207 2 min 0,000 mm 3,2 UV-I 630 W/m 15,2 C 26,1 C 9,7 km/h (2 Bft) 97,73 %
21.09.2018 13:48 26,1 C 22,8 C 36,1 C 52 % 1011,7 hPa 0,0 l/m 8,1 km/h (2 Bft) S-SW 206 2 min 0,000 mm 3,2 UV-I 626 W/m 15,5 C 25,7 C 11,3 km/h (2 Bft) 98,00 %
21.09.2018 13:50 26,2 C 22,8 C 36,1 C 50 % 1011,7 hPa 0,0 l/m 6,5 km/h (2 Bft) SW 216 2 min 0,000 mm 3,2 UV-I 613 W/m 14,9 C 26,2 C 11,3 km/h (2 Bft) 100,00 %
21.09.2018 13:52 26,2 C 22,8 C 36,1 C 50 % 1011,6 hPa 0,0 l/m 3,6 km/h (1 Bft) SW 215 2 min 0,000 mm 3,0 UV-I 603 W/m 14,9 C 26,2 C 9,7 km/h (2 Bft) 95,71 %
21.09.2018 13:54 26,1 C 22,8 C 35,6 C 49 % 1011,6 hPa 0,0 l/m 6,5 km/h (2 Bft) S-SW 199 2 min 0,000 mm 3,1 UV-I 607 W/m 14,5 C 26,1 C 12,9 km/h (3 Bft) 93,62 %
21.09.2018 13:56 25,9 C 22,8 C 35,6 C 50 % 1011,6 hPa 0,0 l/m 8,1 km/h (2 Bft) S-SW 202 2 min 0,000 mm 3,1 UV-I 606 W/m 14,7 C 25,5 C 11,3 km/h (2 Bft) 96,97 %
21.09.2018 13:58 25,8 C 22,8 C 35,6 C 50 % 1011,5 hPa 0,0 l/m 4,2 km/h (1 Bft) S 174 2 min 0,000 mm 3,1 UV-I 600 W/m 14,6 C 25,8 C 6,4 km/h (2 Bft) 98,51 %
21.09.2018 14:00 25,9 C 22,8 C 36,1 C 51 % 1011,5 hPa 0,0 l/m 4,2 km/h (1 Bft) S 178 2 min 0,406 mm 3,1 UV-I 588 W/m 15,0 C 25,9 C 6,4 km/h (2 Bft) 97,56 %
21.09.2018 14:02 26,0 C 22,8 C 36,7 C 50 % 1011,5 hPa 0,0 l/m 2,0 km/h (1 Bft) S 173 2 min 0,000 mm 3,1 UV-I 603 W/m 14,8 C 26,0 C 4,8 km/h (1 Bft) 100,00 %
21.09.2018 14:04 26,1 C 22,8 C 37,2 C 50 % 1011,5 hPa 0,0 l/m 1,5 km/h (1 Bft) S 169 2 min 0,000 mm 2,6 UV-I 602 W/m 14,8 C 26,1 C 3,2 km/h (1 Bft) 96,77 %
21.09.2018 14:06 26,3 C 22,8 C 37,8 C 50 % 1011,5 hPa 0,0 l/m 2,6 km/h (1 Bft) S 169 2 min 0,000 mm 2,8 UV-I 590 W/m 15,0 C 26,3 C 6,4 km/h (2 Bft) 98,08 %
21.09.2018 14:08 26,3 C 22,8 C 37,8 C 49 % 1011,4 hPa 0,0 l/m 0,9 km/h (0 Bft) S 169 2 min 0,000 mm 2,9 UV-I 606 W/m 14,7 C 26,3 C 1,6 km/h (1 Bft) 92,86 %
21.09.2018 14:10 26,3 C 22,8 C 37,8 C 50 % 1011,4 hPa 0,0 l/m 0,6 km/h (0 Bft) S 169 2 min 0,000 mm 2,9 UV-I 601 W/m 15,0 C 26,3 C 3,2 km/h (1 Bft) 98,11 %
21.09.2018 14:12 26,4 C 22,8 C 37,8 C 50 % 1011,3 hPa 0,0 l/m 1,3 km/h (1 Bft) S-SW 193 2 min 0,000 mm 3,0 UV-I 593 W/m 15,1 C 26,4 C 4,8 km/h (1 Bft) 94,74 %
21.09.2018 14:14 26,6 C 22,8 C 37,8 C 50 % 1011,3 hPa 0,0 l/m 1,0 km/h (0 Bft) SO 140 2 min 0,000 mm 3,0 UV-I 594 W/m 15,3 C 26,6 C 3,2 km/h (1 Bft) 93,62 %
21.09.2018 14:16 26,8 C 22,8 C 38,3 C 51 % 1011,2 hPa 0,0 l/m 1,2 km/h (1 Bft) SO 140 2 min 0,000 mm 2,9 UV-I 577 W/m 15,8 C 26,8 C 3,2 km/h (1 Bft) 96,00 %
21.09.2018 14:18 27,2 C 22,8 C 38,3 C 52 % 1011,2 hPa 0,0 l/m 1,6 km/h (1 Bft) W-SW 251 2 min 0,000 mm 2,9 UV-I 565 W/m 16,5 C 27,2 C 3,2 km/h (1 Bft) 95,74 %
21.09.2018 14:20 27,2 C 22,8 C 37,8 C 49 % 1011,2 hPa 0,0 l/m 1,9 km/h (1 Bft) SW 214 2 min 0,000 mm 2,9 UV-I 568 W/m 15,5 C 27,2 C 6,4 km/h (2 Bft) 93,62 %
21.09.2018 14:22 27,1 C 22,8 C 37,8 C 49 % 1011,2 hPa 0,0 l/m 3,8 km/h (1 Bft) W-SW 251 2 min 0,000 mm 2,9 UV-I 584 W/m 15,4 C 27,1 C 6,4 km/h (2 Bft) 94,00 %
21.09.2018 14:24 27,4 C 22,8 C 37,8 C 50 % 1011,2 hPa 0,0 l/m 1,9 km/h (1 Bft) W-SW 255 2 min 0,000 mm 2,9 UV-I 581 W/m 16,0 C 27,4 C 6,4 km/h (2 Bft) 97,14 %
21.09.2018 14:26 27,3 C 22,8 C 37,2 C 48 % 1011,2 hPa 0,0 l/m 4,0 km/h (1 Bft) NW 306 2 min 0,000 mm 2,9 UV-I 591 W/m 15,3 C 27,3 C 6,4 km/h (2 Bft) 88,68 %
21.09.2018 14:28 27,2 C 22,8 C 36,7 C 49 % 1011,2 hPa 0,0 l/m 4,2 km/h (1 Bft) W 269 2 min 0,000 mm 2,8 UV-I 582 W/m 15,5 C 27,2 C 6,4 km/h (2 Bft) 96,23 %
21.09.2018 14:30 27,1 C 22,8 C 36,7 C 49 % 1011,2 hPa 0,0 l/m 5,2 km/h (1 Bft) W 280 2 min 0,000 mm 2,7 UV-I 566 W/m 15,4 C 27,1 C 11,3 km/h (2 Bft) 94,74 %
21.09.2018 14:32 27,1 C 22,8 C 36,1 C 48 % 1011,2 hPa 0,0 l/m 6,7 km/h (2 Bft) W-SW 238 2 min 0,000 mm 2,7 UV-I 535 W/m 15,1 C 27,0 C 11,3 km/h (2 Bft) 96,00 %
21.09.2018 14:34 27,0 C 22,8 C 36,1 C 48 % 1011,1 hPa 0,0 l/m 7,8 km/h (2 Bft) W 276 2 min 0,000 mm 2,7 UV-I 551 W/m 15,0 C 26,7 C 14,5 km/h (3 Bft) 96,00 %
21.09.2018 14:36 26,9 C 22,8 C 35,6 C 48 % 1011,1 hPa 0,0 l/m 5,8 km/h (2 Bft) W-SW 258 2 min 0,000 mm 2,7 UV-I 572 W/m 14,9 C 26,9 C 11,3 km/h (2 Bft) 95,45 %
21.09.2018 14:38 27,0 C 22,8 C 35,0 C 48 % 1011,1 hPa 0,0 l/m 6,6 km/h (2 Bft) SW 218 2 min 0,000 mm 2,6 UV-I 537 W/m 15,0 C 27,0 C 9,7 km/h (2 Bft) 97,62 %
21.09.2018 14:40 26,9 C 22,8 C 35,0 C 48 % 1011,1 hPa 0,0 l/m 4,1 km/h (1 Bft) SW 227 2 min 0,000 mm 2,1 UV-I 486 W/m 14,9 C 26,9 C 8,0 km/h (2 Bft) 98,00 %
21.09.2018 14:42 26,8 C 22,8 C 35,0 C 48 % 1011,0 hPa 0,0 l/m 4,2 km/h (1 Bft) SW 216 2 min 0,000 mm 2,5 UV-I 511 W/m 14,9 C 26,8 C 6,4 km/h (2 Bft) 94,00 %
21.09.2018 14:44 26,9 C 22,8 C 34,4 C 48 % 1011,0 hPa 0,0 l/m 5,7 km/h (1 Bft) W-SW 240 2 min 0,000 mm 2,5 UV-I 519 W/m 14,9 C 26,9 C 11,3 km/h (2 Bft) 96,00 %
21.09.2018 14:46 26,9 C 22,8 C 34,4 C 48 % 1010,9 hPa 0,0 l/m 1,6 km/h (1 Bft) W-SW 240 2 min 0,000 mm 2,5 UV-I 518 W/m 14,9 C 26,9 C 4,8 km/h (1 Bft) 97,37 %
21.09.2018 14:48 27,1 C 22,8 C 35,0 C 49 % 1010,9 hPa 0,0 l/m 5,8 km/h (2 Bft) SW 217 2 min 0,000 mm 2,5 UV-I 523 W/m 15,4 C 27,1 C 11,3 km/h (2 Bft) 98,00 %
21.09.2018 14:50 27,3 C 22,8 C 35,0 C 49 % 1010,9 hPa 0,0 l/m 3,7 km/h (1 Bft) W 271 2 min 0,000 mm 2,5 UV-I 566 W/m 15,6 C 27,3 C 8,0 km/h (2 Bft) 98,00 %
21.09.2018 14:52 27,3 C 22,8 C 35,6 C 47 % 1010,8 hPa 0,0 l/m 1,5 km/h (1 Bft) SO 138 2 min 0,000 mm 2,5 UV-I 544 W/m 15,0 C 27,3 C 4,8 km/h (1 Bft) 97,37 %
21.09.2018 14:54 27,4 C 22,8 C 36,7 C 47 % 1010,8 hPa 0,0 l/m 1,4 km/h (1 Bft) SO 137 2 min 0,000 mm 2,4 UV-I 536 W/m 15,1 C 27,4 C 3,2 km/h (1 Bft) 98,21 %
21.09.2018 14:56 27,6 C 22,8 C 36,7 C 49 % 1010,8 hPa 0,0 l/m 3,4 km/h (1 Bft) W-SW 241 2 min 0,000 mm 2,4 UV-I 533 W/m 15,9 C 27,6 C 8,0 km/h (2 Bft) 98,00 %
21.09.2018 14:58 27,7 C 22,8 C 36,7 C 47 % 1010,8 hPa 0,0 l/m 3,5 km/h (1 Bft) SW 220 2 min 0,000 mm 2,4 UV-I 525 W/m 15,3 C 27,7 C 8,0 km/h (2 Bft) 100,00 %
21.09.2018 15:00 27,7 C 22,8 C 36,1 C 48 % 1010,7 hPa 0,0 l/m 2,5 km/h (1 Bft) S 178 2 min 0,381 mm 2,4 UV-I 531 W/m 15,7 C 27,7 C 4,8 km/h (1 Bft) 100,00 %
21.09.2018 15:02 27,8 C 22,8 C 36,7 C 45 % 1010,6 hPa 0,0 l/m 3,0 km/h (1 Bft) S-SO 159 2 min 0,000 mm 2,3 UV-I 535 W/m 14,8 C 27,8 C 6,4 km/h (2 Bft) 97,56 %
21.09.2018 15:04 27,9 C 22,8 C 36,7 C 47 % 1010,6 hPa 0,0 l/m 2,0 km/h (1 Bft) SW 234 2 min 0,000 mm 2,3 UV-I 523 W/m 15,5 C 27,9 C 6,4 km/h (2 Bft) 100,00 %
21.09.2018 15:06 28,1 C 22,8 C 36,7 C 47 % 1010,6 hPa 0,0 l/m 4,7 km/h (1 Bft) W-NW 296 2 min 0,000 mm 2,2 UV-I 514 W/m 15,7 C 28,1 C 6,4 km/h (2 Bft) 100,00 %
21.09.2018 15:08 27,9 C 22,8 C 36,7 C 47 % 1010,5 hPa 0,0 l/m 2,9 km/h (1 Bft) N-NW 343 2 min 0,000 mm 2,0 UV-I 519 W/m 15,5 C 27,9 C 6,4 km/h (2 Bft) 100,00 %
21.09.2018 15:10 27,8 C 22,8 C 36,7 C 47 % 1010,5 hPa 0,0 l/m 1,8 km/h (1 Bft) NW 322 2 min 0,000 mm 2,2 UV-I 514 W/m 15,4 C 27,8 C 4,8 km/h (1 Bft) 100,00 %
21.09.2018 15:12 28,0 C 22,8 C 37,2 C 49 % 1010,5 hPa 0,0 l/m 3,6 km/h (1 Bft) NW 312 2 min 0,000 mm 2,2 UV-I 510 W/m 16,3 C 28,0 C 8,0 km/h (2 Bft) 100,00 %
21.09.2018 15:14 27,9 C 22,8 C 36,1 C 47 % 1010,5 hPa 0,0 l/m 5,7 km/h (1 Bft) W-NW 297 2 min 0,000 mm 2,2 UV-I 509 W/m 15,5 C 27,9 C 8,0 km/h (2 Bft) 98,00 %
21.09.2018 15:16 27,9 C 22,8 C 35,6 C 45 % 1010,5 hPa 0,0 l/m 6,3 km/h (2 Bft) W-SW 254 2 min 0,000 mm 2,1 UV-I 506 W/m 14,8 C 27,9 C 9,7 km/h (2 Bft) 100,00 %
21.09.2018 15:18 27,8 C 22,8 C 36,1 C 46 % 1010,4 hPa 0,0 l/m 2,6 km/h (1 Bft) W 261 2 min 0,000 mm 2,1 UV-I 505 W/m 15,1 C 27,8 C 4,8 km/h (1 Bft) 100,00 %
21.09.2018 15:20 27,7 C 22,8 C 35,6 C 46 % 1010,4 hPa 0,0 l/m 3,6 km/h (1 Bft) SW 223 2 min 0,000 mm 2,1 UV-I 501 W/m 15,0 C 27,7 C 4,8 km/h (1 Bft) 100,00 %
21.09.2018 15:22 27,9 C 22,8 C 34,4 C 45 % 1010,3 hPa 0,0 l/m 3,8 km/h (1 Bft) S-SW 213 2 min 0,000 mm 2,0 UV-I 498 W/m 14,8 C 27,9 C 8,0 km/h (2 Bft) 96,23 %
21.09.2018 15:24 27,9 C 22,8 C 34,4 C 45 % 1010,3 hPa 0,0 l/m 3,8 km/h (1 Bft) SW 236 2 min 0,000 mm 2,0 UV-I 499 W/m 14,8 C 27,9 C 8,0 km/h (2 Bft) 95,74 %
21.09.2018 15:26 28,0 C 22,8 C 34,4 C 45 % 1010,2 hPa 0,0 l/m 3,9 km/h (1 Bft) SW 230 2 min 0,000 mm 2,0 UV-I 483 W/m 14,9 C 28,0 C 8,0 km/h (2 Bft) 95,12 %
21.09.2018 15:28 28,2 C 22,8 C 34,4 C 44 % 1010,3 hPa 0,0 l/m 4,9 km/h (1 Bft) SW 233 2 min 0,000 mm 1,9 UV-I 477 W/m 14,8 C 28,2 C 6,4 km/h (2 Bft) 97,87 %
21.09.2018 15:30 28,3 C 22,8 C 33,3 C 46 % 1010,2 hPa 0,0 l/m 6,0 km/h (2 Bft) W 270 2 min 0,000 mm 1,9 UV-I 479 W/m 15,6 C 28,3 C 9,7 km/h (2 Bft) 96,00 %
21.09.2018 15:32 28,3 C 22,8 C 32,8 C 44 % 1010,2 hPa 0,0 l/m 9,4 km/h (2 Bft) W-SW 238 2 min 0,000 mm 1,9 UV-I 478 W/m 14,9 C 27,9 C 14,5 km/h (3 Bft) 98,00 %
21.09.2018 15:34 28,4 C 22,8 C 32,2 C 42 % 1010,2 hPa 0,0 l/m 9,3 km/h (2 Bft) W-SW 248 2 min 0,000 mm 1,9 UV-I 474 W/m 14,2 C 28,0 C 16,1 km/h (3 Bft) 95,12 %
21.09.2018 15:36 28,4 C 22,8 C 31,1 C 42 % 1010,2 hPa 0,0 l/m 10,6 km/h (2 Bft) W 276 2 min 0,000 mm 1,8 UV-I 471 W/m 14,2 C 27,9 C 19,3 km/h (3 Bft) 95,74 %
21.09.2018 15:38 28,4 C 22,8 C 30,6 C 43 % 1010,2 hPa 0,0 l/m 6,0 km/h (2 Bft) W-NW 301 2 min 0,000 mm 1,8 UV-I 471 W/m 14,6 C 28,4 C 12,9 km/h (3 Bft) 100,00 %
21.09.2018 15:40 28,4 C 22,8 C 30,0 C 43 % 1010,2 hPa 0,0 l/m 5,9 km/h (2 Bft) W 270 2 min 0,000 mm 1,8 UV-I 470 W/m 14,6 C 28,4 C 14,5 km/h (3 Bft) 97,56 %
21.09.2018 15:42 28,4 C 22,8 C 29,4 C 42 % 1010,2 hPa 0,0 l/m 9,8 km/h (2 Bft) W 269 2 min 0,000 mm 1,7 UV-I 454 W/m 14,2 C 27,9 C 14,5 km/h (3 Bft) 98,00 %
21.09.2018 15:44 28,3 C 22,8 C 29,4 C 44 % 1010,1 hPa 0,0 l/m 5,5 km/h (1 Bft) W-NW 285 2 min 0,000 mm 1,4 UV-I 396 W/m 14,9 C 28,3 C 11,3 km/h (2 Bft) 94,34 %
21.09.2018 15:46 28,4 C 22,8 C 28,9 C 42 % 1010,1 hPa 0,0 l/m 3,7 km/h (1 Bft) W 272 2 min 0,000 mm 1,6 UV-I 407 W/m 14,2 C 28,4 C 6,4 km/h (2 Bft) 95,74 %
21.09.2018 15:48 28,4 C 22,8 C 28,9 C 43 % 1010,1 hPa 0,0 l/m 2,4 km/h (1 Bft) W 272 2 min 0,000 mm 1,6 UV-I 416 W/m 14,6 C 28,4 C 4,8 km/h (1 Bft) 97,87 %
21.09.2018 15:50 28,4 C 22,8 C 28,9 C 43 % 1010,1 hPa 0,0 l/m 2,7 km/h (1 Bft) W-SW 252 2 min 0,000 mm 1,5 UV-I 400 W/m 14,6 C 28,4 C 4,8 km/h (1 Bft) 94,74 %
21.09.2018 15:52 28,4 C 22,8 C 28,9 C 44 % 1010,1 hPa 0,0 l/m 3,0 km/h (1 Bft) W-NW 290 2 min 0,000 mm 1,4 UV-I 322 W/m 14,9 C 28,4 C 6,4 km/h (2 Bft) 95,83 %
21.09.2018 15:54 28,3 C 22,8 C 28,9 C 42 % 1010,1 hPa 0,0 l/m 3,3 km/h (1 Bft) NW 310 2 min 0,000 mm 1,3 UV-I 290 W/m 14,1 C 28,3 C 4,8 km/h (1 Bft) 98,08 %
21.09.2018 15:56 28,2 C 22,8 C 28,3 C 45 % 1010,0 hPa 0,0 l/m 0,9 km/h (0 Bft) NW 311 2 min 0,000 mm 1,3 UV-I 316 W/m 15,1 C 28,2 C 3,2 km/h (1 Bft) 97,62 %
21.09.2018 15:58 28,2 C 22,8 C 28,3 C 49 % 1010,0 hPa 0,0 l/m 2,2 km/h (1 Bft) N-NO 15 2 min 0,000 mm 1,2 UV-I 293 W/m 16,5 C 28,2 C 8,0 km/h (2 Bft) 93,62 %
21.09.2018 16:00 28,0 C 22,8 C 28,3 C 48 % 1010,1 hPa 0,0 l/m 8,4 km/h (2 Bft) N 355 2 min 0,356 mm 1,3 UV-I 309 W/m 15,9 C 27,7 C 16,1 km/h (3 Bft) 96,00 %
21.09.2018 16:02 27,7 C 22,8 C 27,8 C 49 % 1010,0 hPa 0,0 l/m 8,4 km/h (2 Bft) N 10 0 min 0,000 mm 1,2 UV-I 256 W/m 16,0 C 27,4 C 12,9 km/h (3 Bft) 95,45 %
21.09.2018 16:04 27,6 C 22,8 C 27,2 C 48 % 1010,0 hPa 0,0 l/m 2,2 km/h (1 Bft) N 360 0 min 0,000 mm 1,1 UV-I 203 W/m 15,6 C 27,6 C 4,8 km/h (1 Bft) 97,87 %
21.09.2018 16:06 27,4 C 22,8 C 27,2 C 49 % 1010,0 hPa 0,0 l/m 1,5 km/h (1 Bft) N 9 0 min 0,000 mm 1,1 UV-I 203 W/m 15,7 C 27,4 C 3,2 km/h (1 Bft) 96,00 %
21.09.2018 16:08 27,3 C 22,8 C 27,2 C 47 % 1010,0 hPa 0,0 l/m 2,0 km/h (1 Bft) N-NW 340 2 min 0,000 mm 1,1 UV-I 268 W/m 15,0 C 27,3 C 4,8 km/h (1 Bft) 97,73 %
21.09.2018 16:10 27,3 C 22,8 C 27,2 C 48 % 1009,9 hPa 0,0 l/m 5,1 km/h (1 Bft) N-NO 31 2 min 0,000 mm 1,2 UV-I 314 W/m 15,3 C 27,3 C 6,4 km/h (2 Bft) 98,11 %
21.09.2018 16:12 27,5 C 22,8 C 27,2 C 49 % 1009,9 hPa 0,0 l/m 4,5 km/h (1 Bft) N-NO 24 2 min 0,000 mm 1,2 UV-I 374 W/m 15,8 C 27,5 C 6,4 km/h (2 Bft) 97,37 %
21.09.2018 16:14 27,7 C 22,8 C 27,2 C 52 % 1009,9 hPa 0,0 l/m 7,0 km/h (2 Bft) N-NO 27 2 min 0,000 mm 1,3 UV-I 425 W/m 16,9 C 27,6 C 9,7 km/h (2 Bft) 97,87 %
21.09.2018 16:16 27,7 C 22,8 C 27,2 C 49 % 1009,8 hPa 0,0 l/m 8,0 km/h (2 Bft) N-NO 28 2 min 0,000 mm 1,3 UV-I 421 W/m 16,0 C 27,4 C 14,5 km/h (3 Bft) 94,34 %
21.09.2018 16:18 27,7 C 22,8 C 27,2 C 49 % 1009,9 hPa 0,0 l/m 8,6 km/h (2 Bft) N-NO 29 2 min 0,000 mm 1,3 UV-I 416 W/m 16,0 C 27,3 C 12,9 km/h (3 Bft) 95,74 %
21.09.2018 16:20 27,7 C 22,8 C 27,2 C 52 % 1009,8 hPa 0,0 l/m 7,1 km/h (2 Bft) NO 40 2 min 0,000 mm 1,2 UV-I 380 W/m 16,9 C 27,6 C 11,3 km/h (2 Bft) 100,00 %
21.09.2018 16:22 27,7 C 23,3 C 27,2 C 52 % 1009,9 hPa 0,0 l/m 5,9 km/h (2 Bft) NO 43 2 min 0,000 mm 1,2 UV-I 333 W/m 16,9 C 27,7 C 9,7 km/h (2 Bft) 100,00 %
21.09.2018 16:24 27,6 C 23,3 C 27,2 C 53 % 1009,9 hPa 0,0 l/m 7,1 km/h (2 Bft) N-NO 26 2 min 0,000 mm 1,1 UV-I 374 W/m 17,1 C 27,5 C 11,3 km/h (2 Bft) 100,00 %
21.09.2018 16:26 27,6 C 23,3 C 26,7 C 51 % 1009,9 hPa 0,0 l/m 9,1 km/h (2 Bft) N-NO 12 2 min 0,000 mm 1,1 UV-I 365 W/m 16,5 C 27,2 C 14,5 km/h (3 Bft) 100,00 %
21.09.2018 16:28 27,4 C 23,3 C 26,7 C 52 % 1009,9 hPa 0,0 l/m 9,8 km/h (2 Bft) N-NO 16 2 min 0,000 mm 1,1 UV-I 342 W/m 16,7 C 26,8 C 12,9 km/h (3 Bft) 95,74 %
21.09.2018 16:30 27,3 C 23,3 C 26,7 C 53 % 1009,9 hPa 0,0 l/m 10,2 km/h (2 Bft) NO 41 2 min 0,000 mm 1,0 UV-I 327 W/m 16,9 C 26,7 C 12,9 km/h (3 Bft) 100,00 %
21.09.2018 16:32 27,3 C 23,3 C 26,1 C 52 % 1009,9 hPa 0,0 l/m 7,5 km/h (2 Bft) N 10 2 min 0,000 mm 1,0 UV-I 343 W/m 16,6 C 27,1 C 12,9 km/h (3 Bft) 97,87 %
21.09.2018 16:34 27,3 C 23,3 C 26,1 C 52 % 1009,9 hPa 0,0 l/m 6,3 km/h (2 Bft) N 355 2 min 0,000 mm 1,0 UV-I 332 W/m 16,6 C 27,3 C 11,3 km/h (2 Bft) 100,00 %
21.09.2018 16:36 27,3 C 23,3 C 26,1 C 52 % 1009,9 hPa 0,0 l/m 4,0 km/h (1 Bft) N-NO 12 2 min 0,000 mm 1,0 UV-I 320 W/m 16,6 C 27,3 C 6,4 km/h (2 Bft) 100,00 %
21.09.2018 16:38 27,4 C 23,3 C 26,1 C 51 % 1009,9 hPa 0,0 l/m 6,8 km/h (2 Bft) N-NO 16 2 min 0,000 mm 0,9 UV-I 319 W/m 16,3 C 27,3 C 11,3 km/h (2 Bft) 98,00 %
21.09.2018 16:40 27,4 C 23,3 C 26,1 C 50 % 1009,9 hPa 0,0 l/m 4,2 km/h (1 Bft) N-NO 20 2 min 0,000 mm 0,9 UV-I 305 W/m 16,0 C 27,4 C 6,4 km/h (2 Bft) 96,23 %
21.09.2018 16:42 27,5 C 23,3 C 26,1 C 50 % 1009,9 hPa 0,0 l/m 4,2 km/h (1 Bft) N-NO 32 2 min 0,000 mm 0,9 UV-I 293 W/m 16,1 C 27,5 C 6,4 km/h (2 Bft) 100,00 %
21.09.2018 16:44 27,6 C 23,3 C 26,1 C 49 % 1009,9 hPa 0,0 l/m 2,8 km/h (1 Bft) N-NW 344 2 min 0,000 mm 0,8 UV-I 287 W/m 15,9 C 27,6 C 6,4 km/h (2 Bft) 100,00 %
21.09.2018 16:46 27,6 C 23,3 C 26,1 C 48 % 1009,8 hPa 0,0 l/m 1,1 km/h (1 Bft) N-NW 344 2 min 0,000 mm 0,8 UV-I 282 W/m 15,6 C 27,6 C 3,2 km/h (1 Bft) 97,73 %
21.09.2018 16:48 27,7 C 23,3 C 25,6 C 49 % 1009,8 hPa 0,0 l/m 2,2 km/h (1 Bft) N-NW 339 2 min 0,000 mm 0,8 UV-I 290 W/m 16,0 C 27,7 C 3,2 km/h (1 Bft) 100,00 %
21.09.2018 16:50 27,7 C 23,3 C 25,6 C 50 % 1009,8 hPa 0,0 l/m 4,0 km/h (1 Bft) NO 34 2 min 0,000 mm 0,8 UV-I 287 W/m 16,3 C 27,7 C 6,4 km/h (2 Bft) 100,00 %
21.09.2018 16:52 27,7 C 23,3 C 25,6 C 50 % 1009,7 hPa 0,0 l/m 3,9 km/h (1 Bft) N-NW 331 2 min 0,000 mm 0,8 UV-I 283 W/m 16,3 C 27,7 C 6,4 km/h (2 Bft) 100,00 %
21.09.2018 16:54 27,7 C 23,3 C 25,6 C 48 % 1009,7 hPa 0,0 l/m 3,2 km/h (1 Bft) NW 308 2 min 0,000 mm 0,8 UV-I 279 W/m 15,7 C 27,7 C 6,4 km/h (2 Bft) 98,11 %
21.09.2018 16:56 27,6 C 23,3 C 25,6 C 48 % 1009,7 hPa 0,0 l/m 5,0 km/h (1 Bft) N-NW 336 2 min 0,000 mm 0,7 UV-I 272 W/m 15,6 C 27,6 C 8,0 km/h (2 Bft) 100,00 %
21.09.2018 16:58 27,5 C 23,3 C 25,6 C 48 % 1009,7 hPa 0,0 l/m 4,6 km/h (1 Bft) N 5 2 min 0,000 mm 0,7 UV-I 267 W/m 15,5 C 27,5 C 6,4 km/h (2 Bft) 100,00 %
21.09.2018 17:00 27,6 C 23,3 C 25,6 C 48 % 1009,7 hPa 0,0 l/m 3,1 km/h (1 Bft) N 11 2 min 0,000 mm 0,7 UV-I 262 W/m 15,6 C 27,6 C 6,4 km/h (2 Bft) 100,00 %
21.09.2018 17:02 27,6 C 23,3 C 25,6 C 45 % 1009,6 hPa 0,0 l/m 2,2 km/h (1 Bft) N-NO 28 2 min 0,254 mm 0,7 UV-I 257 W/m 14,6 C 27,6 C 3,2 km/h (1 Bft) 100,00 %
21.09.2018 17:04 27,6 C 23,3 C 25,0 C 45 % 1009,6 hPa 0,0 l/m 1,6 km/h (1 Bft) W 268 2 min 0,000 mm 0,6 UV-I 255 W/m 14,6 C 27,6 C 3,2 km/h (1 Bft) 100,00 %
21.09.2018 17:06 27,7 C 23,3 C 25,0 C 44 % 1009,6 hPa 0,0 l/m 3,5 km/h (1 Bft) W-SW 248 2 min 0,000 mm 0,6 UV-I 247 W/m 14,3 C 27,7 C 6,4 km/h (2 Bft) 100,00 %
21.09.2018 17:08 27,8 C 23,3 C 25,0 C 42 % 1009,6 hPa 0,0 l/m 3,7 km/h (1 Bft) SW 226 2 min 0,000 mm 0,6 UV-I 237 W/m 13,7 C 27,8 C 6,4 km/h (2 Bft) 100,00 %
21.09.2018 17:10 27,7 C 23,3 C 25,0 C 41 % 1009,6 hPa 0,0 l/m 2,9 km/h (1 Bft) W-NW 292 2 min 0,000 mm 0,6 UV-I 236 W/m 13,2 C 27,7 C 4,8 km/h (1 Bft) 95,74 %
21.09.2018 17:12 27,7 C 23,3 C 25,0 C 43 % 1009,7 hPa 0,0 l/m 3,3 km/h (1 Bft) W-NW 292 2 min 0,000 mm 0,6 UV-I 231 W/m 14,0 C 27,7 C 6,4 km/h (2 Bft) 97,22 %
21.09.2018 17:14 27,7 C 23,3 C 25,0 C 42 % 1009,7 hPa 0,0 l/m 2,0 km/h (1 Bft) W 266 2 min 0,000 mm 0,5 UV-I 225 W/m 13,6 C 27,7 C 6,4 km/h (2 Bft) 98,25 %
21.09.2018 17:16 27,7 C 23,3 C 25,0 C 42 % 1009,7 hPa 0,0 l/m 3,4 km/h (1 Bft) NW 314 2 min 0,000 mm 0,5 UV-I 220 W/m 13,6 C 27,7 C 4,8 km/h (1 Bft) 98,00 %
21.09.2018 17:18 27,7 C 23,3 C 25,0 C 40 % 1009,7 hPa 0,0 l/m 5,1 km/h (1 Bft) W 267 2 min 0,000 mm 0,5 UV-I 216 W/m 12,9 C 27,7 C 11,3 km/h (2 Bft) 95,74 %
21.09.2018 17:20 27,7 C 23,3 C 25,0 C 40 % 1009,6 hPa 0,0 l/m 4,4 km/h (1 Bft) W 269 2 min 0,000 mm 0,5 UV-I 205 W/m 12,9 C 27,7 C 8,0 km/h (2 Bft) 97,87 %
21.09.2018 17:22 27,7 C 23,3 C 25,0 C 42 % 1009,6 hPa 0,0 l/m 3,1 km/h (1 Bft) W 267 2 min 0,000 mm 0,5 UV-I 196 W/m 13,6 C 27,7 C 6,4 km/h (2 Bft) 92,11 %
21.09.2018 17:24 27,6 C 23,3 C 25,0 C 40 % 1009,6 hPa 0,0 l/m 5,3 km/h (1 Bft) W 261 2 min 0,000 mm 0,2 UV-I 189 W/m 12,8 C 27,6 C 9,7 km/h (2 Bft) 95,74 %
21.09.2018 17:26 27,6 C 23,3 C 24,4 C 39 % 1009,5 hPa 0,0 l/m 3,2 km/h (1 Bft) W-NW 287 2 min 0,000 mm 0,0 UV-I 187 W/m 12,4 C 27,6 C 6,4 km/h (2 Bft) 94,00 %
21.09.2018 17:28 27,6 C 23,3 C 24,4 C 41 % 1009,5 hPa 0,0 l/m 3,4 km/h (1 Bft) W 260 2 min 0,000 mm 0,0 UV-I 184 W/m 13,1 C 27,6 C 6,4 km/h (2 Bft) 96,00 %
21.09.2018 17:30 27,6 C 23,3 C 24,4 C 42 % 1009,5 hPa 0,0 l/m 4,1 km/h (1 Bft) SW 232 2 min 0,000 mm 0,0 UV-I 178 W/m 13,5 C 27,6 C 6,4 km/h (2 Bft) 91,49 %
21.09.2018 17:32 27,6 C 23,3 C 24,4 C 41 % 1009,5 hPa 0,0 l/m 3,7 km/h (1 Bft) W 265 2 min 0,000 mm 0,0 UV-I 173 W/m 13,1 C 27,6 C 6,4 km/h (2 Bft) 95,12 %
21.09.2018 17:34 27,7 C 23,3 C 24,4 C 40 % 1009,5 hPa 0,0 l/m 3,1 km/h (1 Bft) W-SW 248 2 min 0,000 mm 0,0 UV-I 168 W/m 12,9 C 27,7 C 6,4 km/h (2 Bft) 95,74 %
21.09.2018 17:36 27,6 C 23,3 C 24,4 C 40 % 1009,5 hPa 0,0 l/m 6,5 km/h (2 Bft) W 267 2 min 0,000 mm 0,0 UV-I 158 W/m 12,8 C 27,6 C 11,3 km/h (2 Bft) 94,34 %
21.09.2018 17:38 27,6 C 23,3 C 24,4 C 40 % 1009,5 hPa 0,0 l/m 3,1 km/h (1 Bft) W 263 2 min 0,000 mm 0,0 UV-I 149 W/m 12,8 C 27,6 C 6,4 km/h (2 Bft) 91,43 %
21.09.2018 17:40 27,6 C 23,3 C 23,9 C 42 % 1009,4 hPa 0,0 l/m 2,7 km/h (1 Bft) W-NW 290 2 min 0,000 mm 0,0 UV-I 148 W/m 13,5 C 27,6 C 4,8 km/h (1 Bft) 92,86 %
21.09.2018 17:42 27,6 C 23,3 C 23,3 C 43 % 1009,4 hPa 0,0 l/m 2,4 km/h (1 Bft) W-NW 290 2 min 0,000 mm 0,0 UV-I 145 W/m 13,9 C 27,6 C 3,2 km/h (1 Bft) 93,62 %
21.09.2018 17:44 27,6 C 23,3 C 23,3 C 41 % 1009,3 hPa 0,0 l/m 3,5 km/h (1 Bft) W-NW 285 2 min 0,000 mm 0,0 UV-I 137 W/m 13,1 C 27,6 C 4,8 km/h (1 Bft) 89,36 %
21.09.2018 17:46 27,6 C 23,3 C 23,9 C 40 % 1009,3 hPa 0,0 l/m 2,5 km/h (1 Bft) W-NW 285 2 min 0,000 mm 0,0 UV-I 141 W/m 12,8 C 27,6 C 3,2 km/h (1 Bft) 92,31 %
21.09.2018 17:48 27,5 C 23,3 C 23,3 C 40 % 1009,3 hPa 0,0 l/m 3,0 km/h (1 Bft) W-NW 285 2 min 0,000 mm 0,0 UV-I 133 W/m 12,7 C 27,5 C 4,8 km/h (1 Bft) 92,73 %
21.09.2018 17:50 27,4 C 23,3 C 23,3 C 40 % 1009,3 hPa 0,0 l/m 3,2 km/h (1 Bft) W-SW 246 2 min 0,000 mm 0,0 UV-I 129 W/m 12,6 C 27,4 C 4,8 km/h (1 Bft) 90,00 %
21.09.2018 17:52 27,4 C 23,3 C 23,3 C 40 % 1009,3 hPa 0,0 l/m 3,9 km/h (1 Bft) W-SW 254 2 min 0,000 mm 0,0 UV-I 123 W/m 12,6 C 27,4 C 4,8 km/h (1 Bft) 97,44 %
21.09.2018 17:54 27,3 C 23,3 C 23,3 C 41 % 1009,2 hPa 0,0 l/m 3,0 km/h (1 Bft) W-SW 254 0 min 0,000 mm 0,0 UV-I 95 W/m 12,9 C 27,3 C 4,8 km/h (1 Bft) 92,45 %
21.09.2018 17:56 27,2 C 23,3 C 23,3 C 42 % 1009,2 hPa 0,0 l/m 2,1 km/h (1 Bft) W-SW 243 0 min 0,000 mm 0,0 UV-I 84 W/m 13,2 C 27,2 C 4,8 km/h (1 Bft) 97,14 %
21.09.2018 17:58 27,0 C 23,3 C 23,3 C 43 % 1009,2 hPa 0,0 l/m 1,5 km/h (1 Bft) W-SW 243 0 min 0,000 mm 0,0 UV-I 49 W/m 13,3 C 27,0 C 3,2 km/h (1 Bft) 94,00 %
21.09.2018 18:00 26,8 C 23,3 C 23,3 C 46 % 1009,2 hPa 0,0 l/m 1,6 km/h (1 Bft) W-SW 243 0 min 0,000 mm 0,0 UV-I 46 W/m 14,2 C 26,8 C 3,2 km/h (1 Bft) 96,23 %
21.09.2018 18:02 26,6 C 23,3 C 22,8 C 48 % 1009,2 hPa 0,0 l/m 2,0 km/h (1 Bft) W-SW 243 0 min 0,152 mm 0,0 UV-I 44 W/m 14,7 C 26,6 C 3,2 km/h (1 Bft) 92,68 %
21.09.2018 18:04 26,1 C 23,3 C 22,2 C 49 % 1009,2 hPa 0,0 l/m 2,5 km/h (1 Bft) W-SW 243 0 min 0,000 mm 0,0 UV-I 44 W/m 14,5 C 26,1 C 3,2 km/h (1 Bft) 93,18 %
21.09.2018 18:06 25,7 C 23,3 C 22,2 C 51 % 1009,2 hPa 0,0 l/m 0,7 km/h (0 Bft) W-SW 243 0 min 0,000 mm 0,0 UV-I 42 W/m 14,8 C 25,7 C 3,2 km/h (1 Bft) 96,61 %
21.09.2018 18:08 25,3 C 23,3 C 22,2 C 51 % 1009,2 hPa 0,0 l/m 0,0 km/h (0 Bft) W-SW 243 0 min 0,000 mm 0,0 UV-I 39 W/m 14,4 C 25,3 C 0,0 km/h (0 Bft) 100,00 %
21.09.2018 18:10 25,1 C 23,3 C 21,7 C 51 % 1009,2 hPa 0,0 l/m 0,6 km/h (0 Bft) W-SW 243 0 min 0,000 mm 0,0 UV-I 37 W/m 14,2 C 25,1 C 1,6 km/h (1 Bft) 97,87 %
21.09.2018 18:12 24,9 C 23,3 C 21,1 C 51 % 1009,2 hPa 0,0 l/m 1,3 km/h (1 Bft) W-SW 243 0 min 0,000 mm 0,0 UV-I 33 W/m 14,1 C 24,9 C 3,2 km/h (1 Bft) 100,00 %
21.09.2018 18:14 24,7 C 23,3 C 21,1 C 53 % 1009,2 hPa 0,0 l/m 1,5 km/h (1 Bft) W-SW 243 0 min 0,000 mm 0,0 UV-I 29 W/m 14,5 C 24,7 C 3,2 km/h (1 Bft) 100,00 %
21.09.2018 18:16 24,4 C 23,3 C 21,1 C 54 % 1009,2 hPa 0,0 l/m 1,5 km/h (1 Bft) W-SW 243 0 min 0,000 mm 0,0 UV-I 26 W/m 14,5 C 24,4 C 3,2 km/h (1 Bft) 98,00 %
21.09.2018 18:18 24,2 C 23,3 C 20,6 C 56 % 1009,1 hPa 0,0 l/m 1,5 km/h (1 Bft) W-SW 243 0 min 0,000 mm 0,0 UV-I 25 W/m 14,9 C 24,2 C 3,2 km/h (1 Bft) 100,00 %
21.09.2018 18:20 23,9 C 23,3 C 20,6 C 57 % 1009,1 hPa 0,0 l/m 1,5 km/h (1 Bft) W-SW 243 0 min 0,000 mm 0,0 UV-I 25 W/m 14,9 C 23,9 C 3,2 km/h (1 Bft) 100,00 %
21.09.2018 18:22 23,7 C 23,3 C 20,0 C 58 % 1009,1 hPa 0,0 l/m 2,5 km/h (1 Bft) W-SW 243 0 min 0,000 mm 0,0 UV-I 23 W/m 14,9 C 23,7 C 4,8 km/h (1 Bft) 100,00 %
21.09.2018 18:24 23,4 C 23,3 C 20,0 C 58 % 1009,1 hPa 0,0 l/m 3,0 km/h (1 Bft) S-SW 199 0 min 0,000 mm 0,0 UV-I 23 W/m 14,7 C 23,4 C 4,8 km/h (1 Bft) 100,00 %
21.09.2018 18:26 23,3 C 23,3 C 20,0 C 57 % 1009,0 hPa 0,0 l/m 3,4 km/h (1 Bft) S-SW 199 0 min 0,000 mm 0,0 UV-I 21 W/m 14,3 C 23,3 C 4,8 km/h (1 Bft) 100,00 %
21.09.2018 18:28 23,3 C 23,3 C 19,4 C 57 % 1009,0 hPa 0,0 l/m 3,3 km/h (1 Bft) S-SW 196 0 min 0,000 mm 0,0 UV-I 21 W/m 14,3 C 23,3 C 4,8 km/h (1 Bft) 100,00 %
21.09.2018 18:30 23,3 C 23,3 C 20,0 C 55 % 1009,0 hPa 0,0 l/m 3,9 km/h (1 Bft) S 175 0 min 0,000 mm 0,0 UV-I 19 W/m 13,7 C 23,3 C 4,8 km/h (1 Bft) 100,00 %
21.09.2018 18:32 23,3 C 23,3 C 19,4 C 57 % 1009,0 hPa 0,0 l/m 3,5 km/h (1 Bft) S 175 0 min 0,000 mm 0,0 UV-I 18 W/m 14,3 C 23,3 C 4,8 km/h (1 Bft) 97,87 %
21.09.2018 18:34 23,2 C 23,3 C 19,4 C 58 % 1009,0 hPa 0,0 l/m 3,3 km/h (1 Bft) S 175 0 min 0,000 mm 0,0 UV-I 18 W/m 14,5 C 23,2 C 4,8 km/h (1 Bft) 97,87 %
21.09.2018 18:36 23,0 C 23,3 C 19,4 C 60 % 1009,0 hPa 0,0 l/m 3,5 km/h (1 Bft) S 175 0 min 0,000 mm 0,0 UV-I 15 W/m 14,8 C 23,0 C 4,8 km/h (1 Bft) 100,00 %
21.09.2018 18:38 22,6 C 23,3 C 19,4 C 62 % 1009,0 hPa 0,0 l/m 3,2 km/h (1 Bft) S 175 0 min 0,000 mm 0,0 UV-I 14 W/m 14,9 C 22,6 C 4,8 km/h (1 Bft) 97,87 %
21.09.2018 18:40 22,4 C 23,3 C 19,4 C 61 % 1009,0 hPa 0,0 l/m 4,0 km/h (1 Bft) S 175 0 min 0,000 mm 0,0 UV-I 12 W/m 14,5 C 22,4 C 4,8 km/h (1 Bft) 98,00 %
21.09.2018 18:42 22,3 C 23,3 C 18,9 C 61 % 1009,0 hPa 0,0 l/m 4,7 km/h (1 Bft) S 175 0 min 0,000 mm 0,0 UV-I 12 W/m 14,4 C 22,3 C 6,4 km/h (2 Bft) 100,00 %
21.09.2018 18:44 22,1 C 23,3 C 18,9 C 64 % 1008,9 hPa 0,0 l/m 3,8 km/h (1 Bft) S 175 0 min 0,000 mm 0,0 UV-I 11 W/m 15,0 C 22,1 C 6,4 km/h (2 Bft) 98,00 %
21.09.2018 18:46 22,0 C 23,3 C 18,9 C 63 % 1009,0 hPa 0,0 l/m 3,8 km/h (1 Bft) S 175 0 min 0,000 mm 0,0 UV-I 11 W/m 14,6 C 22,0 C 4,8 km/h (1 Bft) 100,00 %
21.09.2018 18:48 21,9 C 23,3 C 18,9 C 62 % 1008,9 hPa 0,0 l/m 4,4 km/h (1 Bft) S 186 0 min 0,000 mm 0,0 UV-I 10 W/m 14,3 C 21,9 C 6,4 km/h (2 Bft) 97,14 %
21.09.2018 18:50 22,0 C 23,3 C 18,3 C 62 % 1008,9 hPa 0,0 l/m 3,6 km/h (1 Bft) S 186 0 min 0,000 mm 0,0 UV-I 9 W/m 14,4 C 22,0 C 4,8 km/h (1 Bft) 100,00 %
21.09.2018 18:52 21,9 C 23,3 C 18,3 C 63 % 1008,9 hPa 0,0 l/m 3,2 km/h (1 Bft) S 186 0 min 0,000 mm 0,0 UV-I 9 W/m 14,5 C 21,9 C 3,2 km/h (1 Bft) 100,00 %
21.09.2018 18:54 21,9 C 22,8 C 18,3 C 63 % 1009,0 hPa 0,0 l/m 3,8 km/h (1 Bft) S 186 2 min 0,000 mm 0,0 UV-I 9 W/m 14,5 C 21,9 C 4,8 km/h (1 Bft) 100,00 %
21.09.2018 18:56 21,8 C 22,8 C 17,8 C 63 % 1008,9 hPa 0,0 l/m 2,6 km/h (1 Bft) S 186 0 min 0,000 mm 0,0 UV-I 7 W/m 14,4 C 21,8 C 4,8 km/h (1 Bft) 100,00 %
21.09.2018 18:58 21,7 C 22,8 C 17,8 C 63 % 1008,9 hPa 0,0 l/m 2,9 km/h (1 Bft) S 175 0 min 0,000 mm 0,0 UV-I 7 W/m 14,3 C 21,7 C 4,8 km/h (1 Bft) 100,00 %
21.09.2018 19:00 21,6 C 22,8 C 17,8 C 63 % 1008,9 hPa 0,0 l/m 5,0 km/h (1 Bft) S-SO 165 0 min 0,051 mm 0,0 UV-I 7 W/m 14,2 C 21,6 C 8,0 km/h (2 Bft) 97,14 %
21.09.2018 19:02 21,7 C 22,8 C 18,3 C 61 % 1008,9 hPa 0,0 l/m 7,0 km/h (2 Bft) SO 144 0 min 0,000 mm 0,0 UV-I 5 W/m 13,8 C 21,5 C 9,7 km/h (2 Bft) 100,00 %
21.09.2018 19:04 21,8 C 22,8 C 18,3 C 62 % 1008,9 hPa 0,0 l/m 7,3 km/h (2 Bft) S-SO 151 0 min 0,000 mm 0,0 UV-I 5 W/m 14,2 C 21,5 C 9,7 km/h (2 Bft) 97,22 %
21.09.2018 19:06 21,8 C 22,8 C 18,9 C 61 % 1008,9 hPa 0,0 l/m 6,6 km/h (2 Bft) S-SO 153 0 min 0,000 mm 0,0 UV-I 5 W/m 13,9 C 21,7 C 8,0 km/h (2 Bft) 98,11 %
21.09.2018 19:08 21,9 C 22,8 C 18,9 C 60 % 1008,9 hPa 0,0 l/m 5,8 km/h (2 Bft) S-SO 155 0 min 0,000 mm 0,0 UV-I 5 W/m 13,8 C 21,9 C 9,7 km/h (2 Bft) 97,87 %
21.09.2018 19:10 22,4 C 22,8 C 18,9 C 58 % 1008,9 hPa 0,0 l/m 5,4 km/h (1 Bft) S-SO 165 0 min 0,000 mm 0,0 UV-I 5 W/m 13,7 C 22,4 C 8,0 km/h (2 Bft) 98,11 %
21.09.2018 19:12 22,7 C 22,8 C 19,4 C 57 % 1008,9 hPa 0,0 l/m 2,8 km/h (1 Bft) S-SO 153 0 min 0,000 mm 0,0 UV-I 5 W/m 13,7 C 22,7 C 6,4 km/h (2 Bft) 97,37 %
21.09.2018 19:14 23,0 C 22,8 C 19,4 C 56 % 1008,8 hPa 0,0 l/m 5,3 km/h (1 Bft) S-SO 166 0 min 0,000 mm 0,0 UV-I 0 W/m 13,7 C 23,0 C 6,4 km/h (2 Bft) 98,11 %
21.09.2018 19:16 23,1 C 22,8 C 19,4 C 56 % 1008,8 hPa 0,0 l/m 5,0 km/h (1 Bft) S-SO 165 0 min 0,000 mm 0,0 UV-I 0 W/m 13,8 C 23,1 C 8,0 km/h (2 Bft) 97,37 %
21.09.2018 19:18 23,1 C 22,8 C 20,0 C 56 % 1008,8 hPa 0,0 l/m 5,3 km/h (1 Bft) S-SO 163 0 min 0,000 mm 0,0 UV-I 0 W/m 13,8 C 23,1 C 8,0 km/h (2 Bft) 95,74 %
21.09.2018 19:20 23,0 C 22,8 C 20,0 C 56 % 1008,8 hPa 0,0 l/m 5,4 km/h (1 Bft) S-SO 162 0 min 0,000 mm 0,0 UV-I 0 W/m 13,7 C 23,0 C 8,0 km/h (2 Bft) 97,87 %
21.09.2018 19:22 22,9 C 22,8 C 20,0 C 57 % 1008,8 hPa 0,0 l/m 5,1 km/h (1 Bft) S-SO 165 0 min 0,000 mm 0,0 UV-I 0 W/m 13,9 C 22,9 C 6,4 km/h (2 Bft) 93,62 %
21.09.2018 19:24 23,0 C 22,8 C 20,6 C 56 % 1008,8 hPa 0,0 l/m 4,9 km/h (1 Bft) S-SO 162 0 min 0,000 mm 0,0 UV-I 0 W/m 13,7 C 23,0 C 8,0 km/h (2 Bft) 93,62 %
21.09.2018 19:26 22,9 C 22,8 C 20,6 C 58 % 1008,8 hPa 0,0 l/m 3,4 km/h (1 Bft) S-SO 162 0 min 0,000 mm 0,0 UV-I 0 W/m 14,2 C 22,9 C 6,4 km/h (2 Bft) 95,74 %
21.09.2018 19:28 22,8 C 22,8 C 20,6 C 57 % 1008,8 hPa 0,0 l/m 3,6 km/h (1 Bft) S-SO 162 0 min 0,000 mm 0,0 UV-I 0 W/m 13,8 C 22,8 C 6,4 km/h (2 Bft) 93,62 %
21.09.2018 19:30 22,8 C 22,8 C 20,6 C 57 % 1008,9 hPa 0,0 l/m 2,7 km/h (1 Bft) S-SO 162 0 min 0,000 mm 0,0 UV-I 0 W/m 13,8 C 22,8 C 6,4 km/h (2 Bft) 91,49 %
21.09.2018 19:32 22,8 C 22,8 C 20,6 C 58 % 1008,9 hPa 0,0 l/m 2,7 km/h (1 Bft) S-SO 162 0 min 0,000 mm 0,0 UV-I 0 W/m 14,1 C 22,8 C 6,4 km/h (2 Bft) 90,57 %
21.09.2018 19:34 22,7 C 22,8 C 20,0 C 58 % 1008,9 hPa 0,0 l/m 1,2 km/h (1 Bft) S-SO 162 0 min 0,000 mm 0,0 UV-I 0 W/m 14,0 C 22,7 C 3,2 km/h (1 Bft) 98,00 %
21.09.2018 19:36 22,6 C 22,8 C 20,0 C 60 % 1008,9 hPa 0,0 l/m 0,3 km/h (0 Bft) S-SO 162 0 min 0,000 mm 0,0 UV-I 0 W/m 14,4 C 22,6 C 1,6 km/h (1 Bft) 97,44 %
21.09.2018 19:38 22,3 C 22,8 C 20,0 C 61 % 1009,0 hPa 0,0 l/m 1,3 km/h (1 Bft) S-SO 162 0 min 0,000 mm 0,0 UV-I 0 W/m 14,4 C 22,3 C 3,2 km/h (1 Bft) 96,36 %
21.09.2018 19:40 22,0 C 22,8 C 20,0 C 64 % 1009,0 hPa 0,0 l/m 1,5 km/h (1 Bft) S-SO 162 0 min 0,000 mm 0,0 UV-I 0 W/m 14,9 C 22,0 C 3,2 km/h (1 Bft) 97,62 %
21.09.2018 19:42 21,8 C 22,8 C 20,0 C 65 % 1009,0 hPa 0,0 l/m 1,6 km/h (1 Bft) S-SO 162 0 min 0,000 mm 0,0 UV-I 0 W/m 14,9 C 21,8 C 3,2 km/h (1 Bft) 95,74 %
21.09.2018 19:44 21,7 C 22,8 C 20,0 C 66 % 1009,0 hPa 0,0 l/m 1,0 km/h (0 Bft) S-SO 162 0 min 0,000 mm 0,0 UV-I 0 W/m 15,1 C 21,7 C 1,6 km/h (1 Bft) 96,00 %
21.09.2018 19:46 21,7 C 22,8 C 20,0 C 66 % 1009,0 hPa 0,0 l/m 0,1 km/h (0 Bft) S-SO 162 0 min 0,000 mm 0,0 UV-I 0 W/m 15,1 C 21,7 C 1,6 km/h (1 Bft) 100,00 %
21.09.2018 19:48 21,6 C 22,8 C 19,4 C 67 % 1009,0 hPa 0,0 l/m 0,0 km/h (0 Bft) S-SO 162 0 min 0,000 mm 0,0 UV-I 0 W/m 15,2 C 21,6 C 0,0 km/h (0 Bft) 94,00 %
21.09.2018 19:50 21,6 C 22,8 C 19,4 C 65 % 1009,1 hPa 0,0 l/m 0,0 km/h (0 Bft) S-SO 162 0 min 0,000 mm 0,0 UV-I 0 W/m 14,7 C 21,6 C 0,0 km/h (0 Bft) 95,74 %
21.09.2018 19:52 21,7 C 22,8 C 19,4 C 65 % 1009,2 hPa 0,0 l/m 0,0 km/h (0 Bft) S-SO 162 0 min 0,000 mm 0,0 UV-I 0 W/m 14,8 C 21,7 C 0,0 km/h (0 Bft) 97,87 %
21.09.2018 19:54 21,9 C 22,8 C 19,4 C 63 % 1009,2 hPa 0,0 l/m 1,2 km/h (1 Bft) S-SO 162 0 min 0,000 mm 0,0 UV-I 0 W/m 14,5 C 21,9 C 3,2 km/h (1 Bft) 100,00 %
21.09.2018 19:56 21,9 C 22,8 C 19,4 C 64 % 1009,3 hPa 0,0 l/m 2,6 km/h (1 Bft) S-SO 162 0 min 0,000 mm 0,0 UV-I 0 W/m 14,8 C 21,9 C 3,2 km/h (1 Bft) 100,00 %
21.09.2018 19:58 21,8 C 22,8 C 19,4 C 64 % 1009,3 hPa 0,0 l/m 3,1 km/h (1 Bft) S-SO 162 0 min 0,000 mm 0,0 UV-I 0 W/m 14,7 C 21,8 C 6,4 km/h (2 Bft) 100,00 %
21.09.2018 20:00 21,6 C 22,8 C 19,4 C 65 % 1009,3 hPa 0,0 l/m 2,3 km/h (1 Bft) S-SO 162 0 min 0,000 mm 0,0 UV-I 0 W/m 14,7 C 21,6 C 3,2 km/h (1 Bft) 98,11 %
21.09.2018 20:02 21,4 C 22,8 C 19,4 C 64 % 1009,3 hPa 0,0 l/m 2,9 km/h (1 Bft) S-SO 162 0 min 0,025 mm 0,0 UV-I 0 W/m 14,3 C 21,4 C 6,4 km/h (2 Bft) 100,00 %
21.09.2018 20:04 21,4 C 22,8 C 19,4 C 64 % 1009,3 hPa 0,0 l/m 3,5 km/h (1 Bft) S-SO 162 0 min 0,000 mm 0,0 UV-I 0 W/m 14,3 C 21,4 C 6,4 km/h (2 Bft) 98,00 %
21.09.2018 20:06 21,4 C 22,8 C 19,4 C 65 % 1009,2 hPa 0,0 l/m 0,8 km/h (0 Bft) S-SO 162 0 min 0,000 mm 0,0 UV-I 0 W/m 14,5 C 21,4 C 3,2 km/h (1 Bft) 100,00 %
21.09.2018 20:08 21,6 C 22,8 C 19,4 C 64 % 1009,2 hPa 0,0 l/m 0,8 km/h (0 Bft) S-SO 162 0 min 0,000 mm 0,0 UV-I 0 W/m 14,5 C 21,6 C 1,6 km/h (1 Bft) 100,00 %
21.09.2018 20:10 21,8 C 22,8 C 19,4 C 64 % 1009,3 hPa 0,0 l/m 2,9 km/h (1 Bft) S-SO 162 0 min 0,000 mm 0,0 UV-I 0 W/m 14,7 C 21,8 C 6,4 km/h (2 Bft) 100,00 %
21.09.2018 20:12 21,8 C 22,8 C 19,4 C 63 % 1009,3 hPa 0,0 l/m 3,0 km/h (1 Bft) S-SO 162 0 min 0,000 mm 0,0 UV-I 0 W/m 14,4 C 21,8 C 6,4 km/h (2 Bft) 100,00 %
21.09.2018 20:14 21,9 C 22,8 C 20,0 C 62 % 1009,3 hPa 0,0 l/m 4,0 km/h (1 Bft) S 175 0 min 0,000 mm 0,0 UV-I 0 W/m 14,3 C 21,9 C 6,4 km/h (2 Bft) 100,00 %
21.09.2018 20:16 21,8 C 22,8 C 20,0 C 64 % 1009,3 hPa 0,0 l/m 2,7 km/h (1 Bft) S 175 0 min 0,000 mm 0,0 UV-I 0 W/m 14,7 C 21,8 C 3,2 km/h (1 Bft) 100,00 %
21.09.2018 20:18 21,7 C 22,8 C 20,0 C 65 % 1009,3 hPa 0,0 l/m 2,8 km/h (1 Bft) S 175 0 min 0,000 mm 0,0 UV-I 0 W/m 14,8 C 21,7 C 3,2 km/h (1 Bft) 100,00 %
21.09.2018 20:20 21,6 C 22,8 C 20,0 C 64 % 1009,3 hPa 0,0 l/m 3,4 km/h (1 Bft) S 175 0 min 0,000 mm 0,0 UV-I 0 W/m 14,5 C 21,6 C 4,8 km/h (1 Bft) 100,00 %
21.09.2018 20:22 21,4 C 22,8 C 20,0 C 65 % 1009,3 hPa 0,0 l/m 2,6 km/h (1 Bft) S 175 0 min 0,000 mm 0,0 UV-I 0 W/m 14,5 C 21,4 C 4,8 km/h (1 Bft) 100,00 %
21.09.2018 20:24 21,3 C 22,8 C 20,0 C 65 % 1009,3 hPa 0,0 l/m 3,8 km/h (1 Bft) S-SW 196 0 min 0,000 mm 0,0 UV-I 0 W/m 14,4 C 21,3 C 4,8 km/h (1 Bft) 100,00 %
21.09.2018 20:26 21,3 C 22,8 C 20,0 C 65 % 1009,3 hPa 0,0 l/m 4,5 km/h (1 Bft) S-SW 196 0 min 0,000 mm 0,0 UV-I 0 W/m 14,4 C 21,3 C 4,8 km/h (1 Bft) 100,00 %
21.09.2018 20:28 21,3 C 22,8 C 20,0 C 66 % 1009,4 hPa 0,0 l/m 4,1 km/h (1 Bft) S-SW 197 0 min 0,000 mm 0,0 UV-I 0 W/m 14,7 C 21,3 C 4,8 km/h (1 Bft) 100,00 %
21.09.2018 20:30 21,3 C 22,8 C 20,0 C 66 % 1009,4 hPa 0,0 l/m 3,8 km/h (1 Bft) S-SW 197 0 min 0,000 mm 0,0 UV-I 0 W/m 14,7 C 21,3 C 4,8 km/h (1 Bft) 100,00 %
21.09.2018 20:32 21,4 C 22,8 C 20,0 C 65 % 1009,4 hPa 0,0 l/m 3,2 km/h (1 Bft) S-SW 197 0 min 0,000 mm 0,0 UV-I 0 W/m 14,5 C 21,4 C 4,8 km/h (1 Bft) 97,56 %
21.09.2018 20:34 21,5 C 22,8 C 20,0 C 65 % 1009,4 hPa 0,0 l/m 3,7 km/h (1 Bft) S-SW 197 0 min 0,000 mm 0,0 UV-I 0 W/m 14,6 C 21,5 C 4,8 km/h (1 Bft) 100,00 %
21.09.2018 20:36 21,6 C 22,8 C 20,0 C 63 % 1009,4 hPa 0,0 l/m 5,2 km/h (1 Bft) S-SW 195 0 min 0,000 mm 0,0 UV-I 0 W/m 14,2 C 21,6 C 8,0 km/h (2 Bft) 100,00 %
21.09.2018 20:38 21,7 C 22,8 C 20,0 C 62 % 1009,4 hPa 0,0 l/m 4,8 km/h (1 Bft) S-SW 198 0 min 0,000 mm 0,0 UV-I 0 W/m 14,1 C 21,7 C 6,4 km/h (2 Bft) 100,00 %
21.09.2018 20:40 21,8 C 22,8 C 20,0 C 62 % 1009,5 hPa 0,0 l/m 4,7 km/h (1 Bft) SW 227 0 min 0,000 mm 0,0 UV-I 0 W/m 14,2 C 21,8 C 8,0 km/h (2 Bft) 97,56 %
21.09.2018 20:42 21,8 C 22,8 C 20,0 C 62 % 1009,5 hPa 0,0 l/m 6,3 km/h (2 Bft) S-SW 203 0 min 0,000 mm 0,0 UV-I 0 W/m 14,2 C 21,8 C 9,7 km/h (2 Bft) 98,00 %
21.09.2018 20:44 21,9 C 22,8 C 20,0 C 62 % 1009,5 hPa 0,0 l/m 5,9 km/h (2 Bft) S-SW 207 0 min 0,000 mm 0,0 UV-I 0 W/m 14,3 C 21,9 C 8,0 km/h (2 Bft) 97,73 %
21.09.2018 20:46 21,9 C 22,8 C 20,0 C 62 % 1009,6 hPa 0,0 l/m 5,2 km/h (1 Bft) S-SW 207 0 min 0,000 mm 0,0 UV-I 0 W/m 14,3 C 21,9 C 6,4 km/h (2 Bft) 98,00 %
21.09.2018 20:48 21,9 C 22,8 C 20,0 C 62 % 1009,7 hPa 0,0 l/m 5,3 km/h (1 Bft) SW 221 0 min 0,000 mm 0,0 UV-I 0 W/m 14,3 C 21,9 C 8,0 km/h (2 Bft) 98,00 %
21.09.2018 20:50 21,9 C 22,8 C 20,0 C 63 % 1009,7 hPa 0,0 l/m 4,9 km/h (1 Bft) SW 225 0 min 0,000 mm 0,0 UV-I 0 W/m 14,5 C 21,9 C 6,4 km/h (2 Bft) 98,00 %
21.09.2018 20:52 21,8 C 22,8 C 20,0 C 63 % 1009,8 hPa 0,0 l/m 5,5 km/h (1 Bft) W-SW 247 0 min 0,000 mm 0,0 UV-I 0 W/m 14,4 C 21,8 C 8,0 km/h (2 Bft) 97,87 %
21.09.2018 20:54 21,8 C 22,8 C 20,6 C 64 % 1009,8 hPa 0,0 l/m 7,8 km/h (2 Bft) W-SW 243 0 min 0,000 mm 0,0 UV-I 0 W/m 14,7 C 21,3 C 11,3 km/h (2 Bft) 95,74 %
21.09.2018 20:56 21,7 C 22,8 C 20,6 C 65 % 1009,8 hPa 0,0 l/m 6,8 km/h (2 Bft) SW 225 0 min 0,000 mm 0,0 UV-I 0 W/m 14,8 C 21,6 C 9,7 km/h (2 Bft) 100,00 %
21.09.2018 20:58 21,6 C 22,8 C 20,6 C 65 % 1010,0 hPa 0,0 l/m 7,8 km/h (2 Bft) W-SW 245 0 min 0,000 mm 0,0 UV-I 0 W/m 14,7 C 21,1 C 12,9 km/h (3 Bft) 97,73 %
21.09.2018 21:00 21,5 C 22,8 C 20,6 C 65 % 1010,1 hPa 0,0 l/m 7,8 km/h (2 Bft) W-SW 248 0 min 0,026 mm 0,0 UV-I 0 W/m 14,6 C 21,0 C 12,9 km/h (3 Bft) 94,64 %
21.09.2018 21:02 21,5 C 22,8 C 20,6 C 65 % 1010,2 hPa 0,0 l/m 7,8 km/h (2 Bft) W 273 0 min 0,000 mm 0,0 UV-I 0 W/m 14,6 C 21,0 C 12,9 km/h (3 Bft) 97,87 %
21.09.2018 21:04 21,6 C 22,8 C 20,6 C 65 % 1010,4 hPa 0,0 l/m 13,9 km/h (3 Bft) W 277 0 min 0,000 mm 0,0 UV-I 0 W/m 14,7 C 19,4 C 22,5 km/h (4 Bft) 97,56 %
21.09.2018 21:06 21,7 C 22,8 C 20,6 C 64 % 1010,4 hPa 0,0 l/m 12,2 km/h (2 Bft) W-NW 288 0 min 0,000 mm 0,0 UV-I 0 W/m 14,6 C 19,9 C 19,3 km/h (3 Bft) 96,00 %
21.09.2018 21:08 21,7 C 22,8 C 20,6 C 65 % 1010,5 hPa 0,0 l/m 6,2 km/h (2 Bft) W-SW 245 0 min 0,000 mm 0,0 UV-I 0 W/m 14,8 C 21,7 C 11,3 km/h (2 Bft) 97,56 %
21.09.2018 21:10 21,6 C 22,8 C 20,0 C 66 % 1010,5 hPa 0,0 l/m 8,0 km/h (2 Bft) W-NW 295 0 min 0,000 mm 0,0 UV-I 0 W/m 15,0 C 21,0 C 12,9 km/h (3 Bft) 95,45 %
21.09.2018 21:12 21,6 C 22,8 C 20,0 C 67 % 1010,5 hPa 0,0 l/m 8,2 km/h (2 Bft) W 268 0 min 0,000 mm 0,0 UV-I 0 W/m 15,2 C 21,0 C 14,5 km/h (3 Bft) 98,11 %
21.09.2018 21:14 21,6 C 22,8 C 19,4 C 68 % 1010,6 hPa 0,0 l/m 11,8 km/h (2 Bft) W 275 0 min 0,000 mm 0,0 UV-I 0 W/m 15,4 C 19,9 C 16,1 km/h (3 Bft) 97,87 %
21.09.2018 21:16 21,6 C 22,8 C 19,4 C 68 % 1010,6 hPa 0,0 l/m 13,4 km/h (3 Bft) W 273 0 min 0,000 mm 0,0 UV-I 0 W/m 15,4 C 19,5 C 20,9 km/h (4 Bft) 97,73 %
21.09.2018 21:19 21,9 C 22,8 C 19,4 C 65 % 1010,7 hPa 0,0 l/m 12,2 km/h (2 Bft) W 275 0 min 0,000 mm 0,0 UV-I 0 W/m 15,0 C 20,2 C 19,3 km/h (3 Bft) 96,10 %
21.09.2018 21:20 22,0 C 22,8 C 19,4 C 65 % 1010,7 hPa 0,0 l/m 10,1 km/h (2 Bft) W 263 0 min 0,000 mm 0,0 UV-I 0 W/m 15,1 C 20,8 C 14,5 km/h (3 Bft) 100,00 %
21.09.2018 21:22 22,1 C 22,8 C 20,0 C 65 % 1010,6 hPa 0,0 l/m 9,2 km/h (2 Bft) W 268 0 min 0,000 mm 0,0 UV-I 0 W/m 15,2 C 21,2 C 16,1 km/h (3 Bft) 95,74 %
21.09.2018 21:24 22,2 C 22,8 C 20,6 C 64 % 1010,7 hPa 0,0 l/m 10,4 km/h (2 Bft) W 275 0 min 0,000 mm 0,0 UV-I 0 W/m 15,1 C 21,0 C 16,1 km/h (3 Bft) 95,74 %
21.09.2018 21:26 22,2 C 22,8 C 20,6 C 64 % 1010,8 hPa 0,0 l/m 9,1 km/h (2 Bft) W-SW 252 0 min 0,000 mm 0,0 UV-I 0 W/m 15,1 C 21,3 C 14,5 km/h (3 Bft) 92,00 %
21.09.2018 21:28 22,2 C 22,8 C 20,6 C 64 % 1010,8 hPa 0,0 l/m 13,4 km/h (3 Bft) W-SW 242 0 min 0,000 mm 0,0 UV-I 0 W/m 15,1 C 20,2 C 20,9 km/h (4 Bft) 95,74 %
21.09.2018 21:30 22,3 C 22,8 C 21,1 C 64 % 1010,9 hPa 0,0 l/m 11,6 km/h (2 Bft) W 259 0 min 0,000 mm 0,0 UV-I 0 W/m 15,2 C 20,8 C 17,7 km/h (3 Bft) 94,87 %
21.09.2018 21:32 22,3 C 22,8 C 21,1 C 63 % 1010,8 hPa 0,0 l/m 13,4 km/h (3 Bft) W 265 0 min 0,000 mm 0,0 UV-I 0 W/m 14,9 C 20,4 C 17,7 km/h (3 Bft) 93,62 %
21.09.2018 21:34 22,4 C 22,8 C 20,6 C 64 % 1010,9 hPa 0,0 l/m 12,4 km/h (3 Bft) W 277 0 min 0,000 mm 0,0 UV-I 0 W/m 15,2 C 20,7 C 22,5 km/h (4 Bft) 93,62 %
21.09.2018 21:36 22,3 C 22,8 C 20,0 C 66 % 1010,9 hPa 0,0 l/m 7,7 km/h (2 Bft) W-NW 285 0 min 0,000 mm 0,0 UV-I 0 W/m 15,6 C 21,9 C 14,5 km/h (3 Bft) 97,87 %
21.09.2018 21:38 22,1 C 22,8 C 20,0 C 67 % 1011,0 hPa 0,0 l/m 8,8 km/h (2 Bft) W 263 0 min 0,000 mm 0,0 UV-I 0 W/m 15,7 C 21,3 C 14,5 km/h (3 Bft) 95,74 %
21.09.2018 21:40 21,9 C 22,8 C 20,0 C 67 % 1010,9 hPa 0,0 l/m 8,9 km/h (2 Bft) W 279 0 min 0,000 mm 0,0 UV-I 0 W/m 15,5 C 21,1 C 16,1 km/h (3 Bft) 91,49 %
21.09.2018 21:42 21,8 C 22,8 C 19,4 C 69 % 1011,0 hPa 0,0 l/m 10,1 km/h (2 Bft) W-SW 254 0 min 0,000 mm 0,0 UV-I 0 W/m 15,9 C 20,6 C 17,7 km/h (3 Bft) 94,00 %
21.09.2018 21:44 21,6 C 22,8 C 18,9 C 70 % 1011,1 hPa 0,0 l/m 7,5 km/h (2 Bft) W 275 0 min 0,000 mm 0,0 UV-I 0 W/m 15,9 C 21,2 C 14,5 km/h (3 Bft) 95,74 %
21.09.2018 21:46 21,5 C 22,8 C 18,9 C 69 % 1011,1 hPa 0,0 l/m 9,4 km/h (2 Bft) W 279 0 min 0,000 mm 0,0 UV-I 0 W/m 15,6 C 20,5 C 12,9 km/h (3 Bft) 92,00 %
21.09.2018 21:48 21,4 C 22,8 C 18,9 C 70 % 1011,1 hPa 0,0 l/m 7,8 km/h (2 Bft) W 266 0 min 0,000 mm 0,0 UV-I 0 W/m 15,7 C 20,9 C 12,9 km/h (3 Bft) 97,37 %
21.09.2018 21:50 21,4 C 22,8 C 18,9 C 70 % 1011,1 hPa 0,0 l/m 9,9 km/h (2 Bft) W-NW 293 0 min 0,000 mm 0,0 UV-I 0 W/m 15,7 C 20,2 C 14,5 km/h (3 Bft) 94,00 %
21.09.2018 21:52 21,5 C 22,8 C 18,9 C 67 % 1011,1 hPa 0,0 l/m 9,9 km/h (2 Bft) W 272 0 min 0,000 mm 0,0 UV-I 0 W/m 15,1 C 20,3 C 16,1 km/h (3 Bft) 100,00 %
21.09.2018 21:54 21,8 C 22,8 C 18,9 C 66 % 1011,3 hPa 0,0 l/m 10,2 km/h (2 Bft) W-NW 283 0 min 0,000 mm 0,0 UV-I 0 W/m 15,2 C 20,6 C 19,3 km/h (3 Bft) 98,11 %
21.09.2018 21:56 21,9 C 22,8 C 19,4 C 64 % 1011,3 hPa 0,0 l/m 17,8 km/h (3 Bft) SW 225 0 min 0,000 mm 0,0 UV-I 0 W/m 14,8 C 19,0 C 30,6 km/h (5 Bft) 95,12 %
21.09.2018 21:58 22,2 C 22,8 C 20,0 C 62 % 1011,3 hPa 0,0 l/m 16,9 km/h (3 Bft) W-SW 257 0 min 0,000 mm 0,0 UV-I 0 W/m 14,6 C 19,6 C 30,6 km/h (5 Bft) 94,74 %
21.09.2018 22:00 22,4 C 22,8 C 20,6 C 59 % 1011,4 hPa 0,0 l/m 14,4 km/h (3 Bft) W 277 0 min 0,050 mm 0,0 UV-I 0 W/m 14,0 C 20,3 C 27,4 km/h (4 Bft) 98,11 %
21.09.2018 22:02 22,6 C 22,8 C 20,6 C 59 % 1011,4 hPa 0,0 l/m 13,0 km/h (3 Bft) W-NW 286 0 min 0,000 mm 0,0 UV-I 0 W/m 14,2 C 20,8 C 22,5 km/h (4 Bft) 96,23 %
21.09.2018 22:04 22,6 C 22,8 C 21,1 C 59 % 1011,5 hPa 0,0 l/m 10,3 km/h (2 Bft) W-SW 250 0 min 0,000 mm 0,0 UV-I 0 W/m 14,2 C 21,4 C 20,9 km/h (4 Bft) 96,30 %
21.09.2018 22:06 22,7 C 22,8 C 21,1 C 57 % 1011,5 hPa 0,0 l/m 17,3 km/h (3 Bft) W 273 0 min 0,000 mm 0,0 UV-I 0 W/m 13,7 C 20,1 C 25,7 km/h (4 Bft) 98,44 %
21.09.2018 22:09 22,8 C 22,8 C 21,1 C 57 % 1011,7 hPa 0,0 l/m 12,0 km/h (2 Bft) W 261 0 min 0,000 mm 0,0 UV-I 0 W/m 13,8 C 21,3 C 17,7 km/h (3 Bft) 95,77 %
21.09.2018 22:10 22,8 C 22,8 C 21,1 C 57 % 1011,7 hPa 0,0 l/m 13,1 km/h (3 Bft) W 264 0 min 0,000 mm 0,0 UV-I 0 W/m 13,8 C 21,0 C 19,3 km/h (3 Bft) 96,15 %
21.09.2018 22:12 22,8 C 22,8 C 21,7 C 57 % 1011,8 hPa 0,0 l/m 18,0 km/h (3 Bft) W 265 0 min 0,000 mm 0,0 UV-I 0 W/m 13,8 C 20,1 C 22,5 km/h (4 Bft) 93,33 %
21.09.2018 22:14 22,8 C 22,8 C 21,7 C 57 % 1011,8 hPa 0,0 l/m 14,1 km/h (3 Bft) W-SW 238 0 min 0,000 mm 0,0 UV-I 0 W/m 13,8 C 20,8 C 19,3 km/h (3 Bft) 95,12 %
21.09.2018 22:16 22,8 C 22,8 C 21,7 C 56 % 1011,9 hPa 0,0 l/m 23,9 km/h (4 Bft) W 268 0 min 0,000 mm 0,0 UV-I 0 W/m 13,6 C 19,3 C 37,0 km/h (5 Bft) 98,00 %
21.09.2018 22:19 22,8 C 22,8 C 21,7 C 56 % 1011,9 hPa 0,0 l/m 16,2 km/h (3 Bft) W 259 0 min 0,000 mm 0,0 UV-I 0 W/m 13,6 C 20,4 C 27,4 km/h (4 Bft) 97,01 %
21.09.2018 22:20 22,8 C 22,8 C 21,7 C 56 % 1011,9 hPa 0,0 l/m 13,1 km/h (3 Bft) W 267 0 min 0,000 mm 0,0 UV-I 0 W/m 13,6 C 21,0 C 16,1 km/h (3 Bft) 100,00 %
21.09.2018 22:22 22,8 C 22,8 C 21,7 C 56 % 1012,0 hPa 0,0 l/m 12,7 km/h (3 Bft) W 269 0 min 0,000 mm 0,0 UV-I 0 W/m 13,6 C 21,1 C 24,1 km/h (4 Bft) 96,00 %
21.09.2018 22:24 22,7 C 22,8 C 21,7 C 56 % 1012,1 hPa 0,0 l/m 15,1 km/h (3 Bft) W 275 0 min 0,000 mm 0,0 UV-I 0 W/m 13,5 C 20,5 C 20,9 km/h (4 Bft) 97,73 %
21.09.2018 22:26 22,7 C 22,8 C 21,7 C 56 % 1012,1 hPa 0,0 l/m 12,5 km/h (3 Bft) W-SW 256 0 min 0,000 mm 0,0 UV-I 0 W/m 13,5 C 21,0 C 19,3 km/h (3 Bft) 94,00 %
21.09.2018 22:28 22,7 C 22,8 C 21,7 C 56 % 1012,1 hPa 0,0 l/m 12,6 km/h (3 Bft) W-SW 243 0 min 0,000 mm 0,0 UV-I 0 W/m 13,5 C 21,0 C 16,1 km/h (3 Bft) 98,00 %
21.09.2018 22:30 22,7 C 22,8 C 21,7 C 56 % 1012,1 hPa 0,0 l/m 14,2 km/h (3 Bft) W 267 0 min 0,000 mm 0,0 UV-I 0 W/m 13,5 C 20,7 C 20,9 km/h (4 Bft) 97,56 %
21.09.2018 22:32 22,6 C 22,8 C 21,1 C 57 % 1012,2 hPa 0,0 l/m 14,1 km/h (3 Bft) W 276 0 min 0,000 mm 0,0 UV-I 0 W/m 13,6 C 20,6 C 19,3 km/h (3 Bft) 95,12 %
21.09.2018 22:34 22,6 C 22,8 C 21,1 C 57 % 1012,2 hPa 0,0 l/m 12,7 km/h (3 Bft) W 279 0 min 0,000 mm 0,0 UV-I 0 W/m 13,6 C 20,9 C 17,7 km/h (3 Bft) 98,00 %
21.09.2018 22:36 22,6 C 22,8 C 21,1 C 57 % 1012,3 hPa 0,0 l/m 15,4 km/h (3 Bft) W 261 0 min 0,000 mm 0,0 UV-I 0 W/m 13,6 C 20,3 C 19,3 km/h (3 Bft) 98,11 %
21.09.2018 22:38 22,4 C 22,8 C 21,1 C 58 % 1012,2 hPa 0,0 l/m 12,0 km/h (2 Bft) W-NW 299 0 min 0,000 mm 0,0 UV-I 0 W/m 13,7 C 20,8 C 22,5 km/h (4 Bft) 97,87 %
21.09.2018 22:40 22,4 C 22,8 C 21,1 C 58 % 1012,3 hPa 0,0 l/m 15,2 km/h (3 Bft) W-SW 253 0 min 0,000 mm 0,0 UV-I 0 W/m 13,7 C 20,1 C 25,7 km/h (4 Bft) 98,00 %
21.09.2018 22:42 22,3 C 22,8 C 21,1 C 59 % 1012,3 hPa 0,0 l/m 15,5 km/h (3 Bft) SW 217 0 min 0,000 mm 0,0 UV-I 0 W/m 13,9 C 19,9 C 22,5 km/h (4 Bft) 100,00 %
21.09.2018 22:44 22,2 C 22,8 C 21,1 C 61 % 1012,3 hPa 0,0 l/m 15,3 km/h (3 Bft) SW 233 0 min 0,000 mm 0,0 UV-I 0 W/m 14,3 C 19,9 C 33,8 km/h (5 Bft) 100,00 %
21.09.2018 22:46 21,9 C 22,8 C 20,6 C 63 % 1012,4 hPa 0,0 l/m 18,3 km/h (3 Bft) SW 227 0 min 0,000 mm 0,0 UV-I 0 W/m 14,5 C 18,9 C 33,8 km/h (5 Bft) 100,00 %
21.09.2018 22:48 21,8 C 22,8 C 20,0 C 65 % 1012,4 hPa 0,0 l/m 15,9 km/h (3 Bft) W 263 0 min 0,000 mm 0,0 UV-I 0 W/m 14,9 C 19,3 C 24,1 km/h (4 Bft) 100,00 %
21.09.2018 22:50 21,6 C 22,8 C 19,4 C 66 % 1012,4 hPa 0,0 l/m 13,5 km/h (3 Bft) W-SW 245 0 min 0,000 mm 0,0 UV-I 0 W/m 15,0 C 19,5 C 24,1 km/h (4 Bft) 98,11 %
21.09.2018 22:52 21,3 C 22,8 C 18,9 C 67 % 1012,5 hPa 0,0 l/m 16,3 km/h (3 Bft) SW 223 0 min 0,000 mm 0,0 UV-I 0 W/m 14,9 C 18,6 C 22,5 km/h (4 Bft) 97,87 %
21.09.2018 22:54 21,2 C 22,8 C 18,9 C 68 % 1012,5 hPa 0,0 l/m 14,8 km/h (3 Bft) W 261 0 min 0,000 mm 0,0 UV-I 0 W/m 15,1 C 18,7 C 24,1 km/h (4 Bft) 100,00 %
21.09.2018 22:56 21,1 C 22,8 C 18,9 C 69 % 1012,6 hPa 0,0 l/m 15,7 km/h (3 Bft) SW 232 0 min 0,000 mm 0,0 UV-I 0 W/m 15,2 C 18,4 C 22,5 km/h (4 Bft) 98,00 %
21.09.2018 22:58 20,9 C 22,8 C 18,9 C 69 % 1012,6 hPa 0,0 l/m 11,5 km/h (2 Bft) W-SW 238 0 min 0,000 mm 0,0 UV-I 0 W/m 15,0 C 19,2 C 16,1 km/h (3 Bft) 97,56 %
21.09.2018 23:00 20,8 C 22,8 C 18,9 C 70 % 1012,7 hPa 0,0 l/m 12,1 km/h (2 Bft) W-SW 246 0 min 0,000 mm 0,0 UV-I 0 W/m 15,1 C 18,9 C 17,7 km/h (3 Bft) 100,00 %
21.09.2018 23:02 20,8 C 22,8 C 19,4 C 71 % 1012,7 hPa 0,0 l/m 15,2 km/h (3 Bft) SW 235 0 min 0,102 mm 0,0 UV-I 0 W/m 15,3 C 18,2 C 20,9 km/h (4 Bft) 100,00 %
21.09.2018 23:04 20,7 C 22,8 C 19,4 C 71 % 1012,7 hPa 0,0 l/m 14,7 km/h (3 Bft) SW 232 0 min 0,000 mm 0,0 UV-I 0 W/m 15,2 C 18,2 C 19,3 km/h (3 Bft) 100,00 %
21.09.2018 23:06 20,7 C 22,8 C 18,9 C 72 % 1012,8 hPa 0,0 l/m 13,2 km/h (3 Bft) W-SW 254 0 min 0,000 mm 0,0 UV-I 0 W/m 15,5 C 18,5 C 17,7 km/h (3 Bft) 100,00 %
21.09.2018 23:09 20,5 C 22,8 C 18,9 C 73 % 1012,9 hPa 0,0 l/m 14,0 km/h (3 Bft) W 271 0 min 0,000 mm 0,0 UV-I 0 W/m 15,5 C 18,1 C 20,9 km/h (4 Bft) 100,00 %
21.09.2018 23:10 20,4 C 22,8 C 18,3 C 74 % 1012,9 hPa 0,0 l/m 13,7 km/h (3 Bft) W 268 0 min 0,000 mm 0,0 UV-I 0 W/m 15,6 C 18,0 C 19,3 km/h (3 Bft) 100,00 %
21.09.2018 23:12 20,3 C 22,8 C 18,3 C 73 % 1012,9 hPa 0,0 l/m 14,0 km/h (3 Bft) W-SW 254 0 min 0,000 mm 0,0 UV-I 0 W/m 15,3 C 17,9 C 22,5 km/h (4 Bft) 100,00 %
21.09.2018 23:14 20,3 C 22,8 C 18,3 C 74 % 1013,0 hPa 0,0 l/m 12,6 km/h (3 Bft) W 275 0 min 0,000 mm 0,0 UV-I 0 W/m 15,5 C 18,2 C 19,3 km/h (3 Bft) 100,00 %
21.09.2018 23:16 20,2 C 22,8 C 17,8 C 75 % 1013,0 hPa 0,0 l/m 11,7 km/h (2 Bft) W-SW 257 0 min 0,000 mm 0,0 UV-I 0 W/m 15,6 C 18,3 C 19,3 km/h (3 Bft) 94,74 %
21.09.2018 23:19 20,2 C 22,8 C 17,8 C 75 % 1013,0 hPa 0,0 l/m 14,6 km/h (3 Bft) W-SW 242 0 min 0,000 mm 0,0 UV-I 0 W/m 15,6 C 17,6 C 19,3 km/h (3 Bft) 98,65 %
21.09.2018 23:20 20,2 C 22,8 C 17,8 C 75 % 1013,0 hPa 0,0 l/m 12,1 km/h (2 Bft) W-SW 248 0 min 0,000 mm 0,0 UV-I 0 W/m 15,6 C 18,2 C 20,9 km/h (4 Bft) 96,15 %
21.09.2018 23:22 20,1 C 22,8 C 17,8 C 76 % 1013,1 hPa 0,0 l/m 10,5 km/h (2 Bft) SW 214 0 min 0,000 mm 0,0 UV-I 0 W/m 15,7 C 18,6 C 17,7 km/h (3 Bft) 97,92 %
21.09.2018 23:24 20,0 C 22,8 C 17,8 C 76 % 1013,1 hPa 0,0 l/m 10,5 km/h (2 Bft) W 259 0 min 0,000 mm 0,0 UV-I 0 W/m 15,6 C 18,5 C 16,1 km/h (3 Bft) 97,56 %
21.09.2018 23:26 19,9 C 22,8 C 17,8 C 77 % 1013,2 hPa 0,0 l/m 10,0 km/h (2 Bft) W 266 0 min 0,000 mm 0,0 UV-I 0 W/m 15,7 C 18,5 C 14,5 km/h (3 Bft) 98,11 %
21.09.2018 23:28 19,8 C 22,8 C 17,8 C 78 % 1013,4 hPa 0,0 l/m 10,7 km/h (2 Bft) W 271 0 min 0,000 mm 0,0 UV-I 0 W/m 15,8 C 18,2 C 16,1 km/h (3 Bft) 97,87 %
21.09.2018 23:30 19,7 C 22,8 C 17,8 C 78 % 1013,6 hPa 0,0 l/m 12,8 km/h (3 Bft) W-NW 284 0 min 0,000 mm 0,0 UV-I 0 W/m 15,8 C 17,5 C 19,3 km/h (3 Bft) 95,74 %
21.09.2018 23:32 19,7 C 22,8 C 18,3 C 77 % 1013,6 hPa 0,0 l/m 23,8 km/h (4 Bft) W 274 0 min 0,000 mm 0,0 UV-I 0 W/m 15,5 C 15,2 C 41,8 km/h (6 Bft) 94,00 %
21.09.2018 23:34 19,6 C 22,8 C 17,8 C 76 % 1013,6 hPa 0,0 l/m 17,4 km/h (3 Bft) W-NW 290 0 min 0,000 mm 0,0 UV-I 0 W/m 15,2 C 16,2 C 25,7 km/h (4 Bft) 97,87 %
21.09.2018 23:36 19,4 C 22,8 C 17,8 C 77 % 1013,7 hPa 0,0 l/m 18,0 km/h (3 Bft) W-SW 245 0 min 0,000 mm 0,0 UV-I 0 W/m 15,3 C 15,8 C 30,6 km/h (5 Bft) 96,00 %
21.09.2018 23:38 19,1 C 22,8 C 17,2 C 77 % 1013,9 hPa 0,0 l/m 22,0 km/h (4 Bft) W-SW 254 0 min 0,000 mm 0,0 UV-I 0 W/m 15,0 C 14,7 C 37,0 km/h (5 Bft) 97,37 %
21.09.2018 23:40 18,7 C 22,8 C 16,7 C 79 % 1014,0 hPa 0,0 l/m 18,7 km/h (3 Bft) W-SW 248 0 min 0,000 mm 0,0 UV-I 0 W/m 15,0 C 14,8 C 32,2 km/h (5 Bft) 98,11 %
21.09.2018 23:42 18,4 C 22,8 C 16,7 C 80 % 1014,2 hPa 0,0 l/m 15,3 km/h (3 Bft) W-SW 252 0 min 0,000 mm 0,0 UV-I 0 W/m 14,9 C 15,2 C 25,7 km/h (4 Bft) 97,14 %
21.09.2018 23:44 18,2 C 22,8 C 16,1 C 80 % 1014,1 hPa 0,0 l/m 15,4 km/h (3 Bft) NW 319 0 min 0,000 mm 0,0 UV-I 0 W/m 14,7 C 15,0 C 25,7 km/h (4 Bft) 92,86 %
21.09.2018 23:46 17,9 C 22,8 C 16,1 C 81 % 1014,2 hPa 0,0 l/m 14,2 km/h (3 Bft) NW 304 0 min 0,000 mm 0,0 UV-I 0 W/m 14,6 C 14,9 C 24,1 km/h (4 Bft) 94,00 %
21.09.2018 23:49 17,6 C 22,8 C 15,6 C 81 % 1014,4 hPa 0,2 l/m 14,7 km/h (3 Bft) NW 323 0 min 0,000 mm 0,0 UV-I 0 W/m 14,3 C 14,4 C 27,4 km/h (4 Bft) 97,30 %
21.09.2018 23:50 17,5 C 22,8 C 15,6 C 81 % 1014,4 hPa 0,0 l/m 19,1 km/h (3 Bft) W-NW 290 0 min 0,000 mm 0,0 UV-I 0 W/m 14,2 C 13,2 C 30,6 km/h (5 Bft) 92,86 %
21.09.2018 23:52 17,3 C 22,8 C 15,6 C 79 % 1014,5 hPa 0,0 l/m 16,8 km/h (3 Bft) W-NW 285 0 min 0,000 mm 0,0 UV-I 0 W/m 13,6 C 13,5 C 38,6 km/h (5 Bft) 93,62 %
21.09.2018 23:54 17,2 C 22,8 C 15,0 C 77 % 1014,5 hPa 0,0 l/m 15,0 km/h (3 Bft) NW 316 0 min 0,000 mm 0,0 UV-I 0 W/m 13,1 C 13,9 C 30,6 km/h (5 Bft) 95,45 %
21.09.2018 23:56 16,9 C 22,8 C 14,4 C 76 % 1014,5 hPa 0,0 l/m 10,2 km/h (2 Bft) W 278 0 min 0,000 mm 0,0 UV-I 0 W/m 12,6 C 15,1 C 20,9 km/h (4 Bft) 97,87 %
21.09.2018 23:58 16,8 C 22,8 C 14,4 C 74 % 1014,5 hPa 0,0 l/m 17,7 km/h (3 Bft) W-NW 294 0 min 0,000 mm 0,0 UV-I 0 W/m 12,1 C 12,6 C 29,0 km/h (5 Bft) 96,00 %
_ Min-Zeit 06:18 04:10 05:12 17:26 19:14 - 00:06 - - - - - - 06:16 06:18 00:06 14:26
Minimum _ 10,7 C 21,7 C 8,3 C 39 % 1008,8 hPa - 0,0 km/h (0 Bft) - - - - - - 9,9 C 10,7 C 0,0 km/h (0 Bft) 88,68 %
_ Max-Zeit 15:50 16:22 14:16 06:22 00:00 23:49 22:16 - - 13:09 14:00 12:42 13:24 12:24 15:38 23:32 00:42
Maximum _ 28,5 C 23,3 C 38,3 C 96 % 1015,9 hPa 0,2 l/m 23,9 km/h
W (4 Bft)
- - 3 min 0,406 mm 3,4 UV-I 635 W/m 17,3 C 28,4 C 41,8 km/h
W-SW (6 Bft)
100,00 %
Durchschnitt _ 19,3 C 22,4 C 20,3 C 73 % 1012,3 hPa #0,2 l/m 3,8 km/h (1 Bft) S-SW - #10:50 h #3,175 mm 2,0 UV-I 357 W/m 13,8 C 19,0 C 6,3 km/h (2 Bft) 97,40 %